GEFSSE_prec_meanprecacc_060.txt.gz
Total_Precipitation_Accumulation
0.00 0.01 0.04 0.03 0.03 0.03 0.03 0.04 0.05 0.06 0.07 0.09 0.09 0.09 0.10 0.09 0.07 0.04 0.04 0.05 0.08 0.12 0.17 0.21 0.22 0.21 0.19 0.18 0.15 0.08 0.03 0.01 0.00 0.00 0.00 0.00 0.00 0.01 0.01 0.02 0.04 0.04 0.04
0.00 0.01 0.04 0.03 0.03 0.04 0.04 0.05 0.05 0.05 0.06 0.08 0.10 0.09 0.07 0.06 0.06 0.05 0.04 0.05 0.09 0.14 0.20 0.20 0.15 0.08 0.04 0.02 0.02 0.02 0.02 0.01 0.00 0.00 0.00 0.00 0.00 0.00 0.01 0.01 0.03 0.03 0.04
0.00 0.01 0.04 0.04 0.04 0.05 0.05 0.05 0.04 0.04 0.06 0.07 0.07 0.06 0.04 0.03 0.03 0.05 0.05 0.06 0.09 0.12 0.13 0.10 0.05 0.02 0.01 0.00 0.00 0.00 0.00 0.00 0.00 0.00 0.00 0.00 0.00 0.00 0.00 0.01 0.02 0.02 0.03
0.00 0.01 0.03 0.05 0.04 0.04 0.05 0.04 0.04 0.05 0.05 0.04 0.04 0.03 0.03 0.03 0.05 0.07 0.06 0.05 0.05 0.04 0.02 0.01 0.00 0.00 0.00 0.00 0.00 0.00 0.00 0.00 0.00 0.00 0.00 0.00 0.00 0.01 0.01 0.01 0.02 0.03 0.05
0.00 0.01 0.03 0.05 0.04 0.04 0.04 0.04 0.04 0.05 0.04 0.03 0.03 0.03 0.03 0.04 0.05 0.04 0.03 0.01 0.01 0.00 0.00 0.00 0.00 0.00 0.00 0.00 0.00 0.00 0.01 0.00 0.00 0.00 0.00 0.01 0.01 0.03 0.03 0.03 0.05 0.06 0.08
0.00 0.01 0.04 0.04 0.04 0.03 0.03 0.04 0.05 0.05 0.04 0.03 0.02 0.02 0.03 0.05 0.06 0.05 0.01 0.00 0.00 0.00 0.00 0.00 0.00 0.00 0.00 0.00 0.00 0.00 0.00 0.00 0.00 0.00 0.00 0.01 0.01 0.03 0.04 0.05 0.07 0.09 0.10
0.00 0.02 0.04 0.05 0.04 0.04 0.04 0.04 0.04 0.04 0.04 0.03 0.02 0.02 0.04 0.06 0.06 0.06 0.04 0.01 0.00 0.00 0.00 0.01 0.01 0.02 0.01 0.01 0.01 0.00 0.00 0.00 0.00 0.00 0.00 0.01 0.01 0.03 0.05 0.07 0.10 0.11 0.11
0.01 0.04 0.06 0.06 0.05 0.05 0.05 0.04 0.03 0.03 0.03 0.02 0.02 0.02 0.03 0.03 0.05 0.09 0.08 0.02 0.01 0.01 0.02 0.02 0.03 0.03 0.02 0.01 0.01 0.00 0.00 0.00 0.00 0.00 0.00 0.00 0.02 0.05 0.06 0.07 0.09 0.10 0.10
0.02 0.05 0.05 0.06 0.05 0.05 0.05 0.04 0.02 0.03 0.03 0.02 0.02 0.02 0.01 0.01 0.02 0.05 0.08 0.05 0.03 0.02 0.03 0.03 0.03 0.03 0.02 0.01 0.01 0.00 0.00 0.00 0.00 0.00 0.00 0.01 0.03 0.08 0.10 0.11 0.13 0.14 0.13
0.05 0.06 0.04 0.04 0.04 0.06 0.06 0.04 0.02 0.02 0.02 0.02 0.01 0.01 0.00 0.00 0.01 0.02 0.02 0.03 0.02 0.02 0.02 0.02 0.03 0.03 0.02 0.00 0.00 0.00 0.00 0.00 0.00 0.00 0.00 0.02 0.08 0.15 0.15 0.16 0.17 0.17 0.14
0.08 0.08 0.06 0.04 0.04 0.05 0.07 0.04 0.02 0.01 0.01 0.01 0.01 0.01 0.00 0.01 0.01 0.01 0.00 0.00 0.01 0.01 0.01 0.02 0.02 0.01 0.00 0.00 0.00 0.00 0.00 0.00 0.00 0.00 0.01 0.04 0.11 0.14 0.12 0.11 0.10 0.08 0.07
0.07 0.09 0.08 0.05 0.05 0.05 0.06 0.04 0.03 0.01 0.01 0.00 0.00 0.00 0.00 0.01 0.01 0.01 0.00 0.00 0.01 0.01 0.00 0.00 0.00 0.00 0.00 0.00 0.00 0.00 0.00 0.00 0.00 0.00 0.01 0.02 0.05 0.06 0.05 0.03 0.02 0.03 0.02
0.04 0.05 0.06 0.06 0.05 0.05 0.05 0.04 0.03 0.01 0.01 0.00 0.00 0.00 0.00 0.00 0.01 0.01 0.01 0.01 0.01 0.00 0.00 0.00 0.00 0.00 0.00 0.00 0.00 0.00 0.00 0.00 0.00 0.00 0.00 0.00 0.02 0.03 0.03 0.01 0.01 0.01 0.01
0.04 0.04 0.05 0.06 0.06 0.07 0.06 0.04 0.03 0.02 0.01 0.00 0.00 0.00 0.00 0.00 0.00 0.01 0.02 0.01 0.01 0.00 0.00 0.00 0.00 0.00 0.00 0.00 0.00 0.00 0.00 0.00 0.00 0.00 0.00 0.00 0.00 0.01 0.02 0.01 0.01 0.01 0.00
0.06 0.06 0.07 0.07 0.06 0.07 0.08 0.06 0.03 0.02 0.01 0.01 0.00 0.00 0.00 0.00 0.00 0.00 0.01 0.01 0.01 0.00 0.00 0.00 0.00 0.00 0.00 0.00 0.00 0.00 0.00 0.00 0.00 0.00 0.00 0.00 0.00 0.01 0.01 0.01 0.01 0.01 0.01
0.07 0.06 0.08 0.08 0.07 0.06 0.06 0.06 0.05 0.04 0.03 0.01 0.00 0.00 0.00 0.00 0.00 0.00 0.00 0.01 0.01 0.00 0.00 0.00 0.00 0.00 0.00 0.00 0.00 0.00 0.00 0.00 0.00 0.00 0.00 0.00 0.00 0.00 0.01 0.02 0.02 0.02 0.02
0.09 0.07 0.07 0.08 0.11 0.08 0.08 0.10 0.08 0.08 0.07 0.03 0.02 0.01 0.01 0.00 0.00 0.00 0.00 0.00 0.00 0.01 0.00 0.00 0.00 0.00 0.00 0.00 0.00 0.00 0.00 0.00 0.00 0.00 0.00 0.00 0.00 0.00 0.00 0.01 0.02 0.03 0.04
0.10 0.07 0.06 0.09 0.10 0.09 0.10 0.16 0.12 0.11 0.10 0.07 0.06 0.03 0.02 0.01 0.01 0.00 0.00 0.01 0.01 0.01 0.01 0.01 0.01 0.02 0.01 0.01 0.01 0.01 0.01 0.01 0.01 0.00 0.00 0.00 0.00 0.00 0.00 0.01 0.01 0.03 0.04
0.11 0.08 0.05 0.07 0.10 0.11 0.17 0.22 0.18 0.16 0.13 0.11 0.09 0.05 0.05 0.05 0.05 0.03 0.01 0.02 0.02 0.02 0.03 0.04 0.04 0.04 0.04 0.04 0.04 0.03 0.03 0.02 0.01 0.01 0.01 0.01 0.01 0.01 0.01 0.01 0.01 0.01 0.02
0.09 0.09 0.06 0.07 0.11 0.18 0.29 0.32 0.30 0.25 0.18 0.15 0.11 0.08 0.10 0.10 0.12 0.10 0.05 0.06 0.06 0.05 0.05 0.06 0.08 0.08 0.07 0.07 0.06 0.03 0.02 0.02 0.01 0.01 0.01 0.01 0.01 0.01 0.02 0.01 0.01 0.01 0.01
0.07 0.07 0.06 0.07 0.10 0.18 0.23 0.21 0.19 0.17 0.16 0.15 0.13 0.14 0.16 0.16 0.19 0.17 0.11 0.09 0.09 0.08 0.09 0.12 0.14 0.12 0.11 0.12 0.08 0.04 0.01 0.01 0.01 0.01 0.01 0.01 0.01 0.02 0.02 0.02 0.02 0.01 0.01
0.04 0.04 0.05 0.07 0.09 0.11 0.12 0.17 0.22 0.26 0.23 0.22 0.22 0.19 0.20 0.21 0.22 0.19 0.16 0.16 0.18 0.17 0.14 0.14 0.15 0.13 0.13 0.15 0.12 0.09 0.03 0.00 0.00 0.01 0.01 0.01 0.02 0.02 0.02 0.03 0.03 0.02 0.02
0.03 0.04 0.03 0.06 0.07 0.10 0.15 0.25 0.29 0.29 0.25 0.22 0.18 0.15 0.18 0.23 0.26 0.24 0.24 0.25 0.23 0.21 0.17 0.18 0.20 0.18 0.16 0.17 0.16 0.15 0.09 0.03 0.02 0.01 0.01 0.02 0.02 0.02 0.02 0.03 0.03 0.03 0.03
0.01 0.02 0.02 0.04 0.05 0.09 0.15 0.20 0.19 0.16 0.15 0.14 0.15 0.20 0.27 0.29 0.30 0.30 0.30 0.30 0.28 0.26 0.22 0.22 0.23 0.23 0.21 0.17 0.15 0.12 0.12 0.09 0.08 0.04 0.02 0.03 0.03 0.02 0.03 0.04 0.04 0.04 0.04
0.01 0.01 0.01 0.02 0.04 0.06 0.09 0.13 0.14 0.13 0.10 0.11 0.14 0.16 0.18 0.19 0.24 0.27 0.29 0.30 0.28 0.27 0.27 0.26 0.26 0.27 0.24 0.21 0.19 0.19 0.18 0.12 0.08 0.09 0.07 0.05 0.05 0.06 0.06 0.05 0.05 0.05 0.06
0.00 0.00 0.01 0.01 0.01 0.03 0.05 0.07 0.07 0.07 0.06 0.08 0.10 0.12 0.13 0.14 0.17 0.20 0.24 0.26 0.28 0.30 0.31 0.32 0.35 0.36 0.33 0.28 0.23 0.23 0.24 0.20 0.13 0.13 0.14 0.11 0.10 0.08 0.07 0.07 0.07 0.08 0.09

GEFSSE_prec_meanprecacc_066.txt.gz
Total_Precipitation_Accumulation
0.00 0.02 0.04 0.03 0.03 0.04 0.04 0.05 0.06 0.06 0.07 0.09 0.10 0.10 0.11 0.11 0.09 0.07 0.07 0.08 0.10 0.14 0.18 0.22 0.22 0.21 0.19 0.18 0.15 0.08 0.03 0.01 0.00 0.00 0.00 0.00 0.01 0.01 0.02 0.03 0.04 0.05 0.05
0.00 0.01 0.04 0.04 0.04 0.05 0.05 0.06 0.05 0.05 0.07 0.09 0.11 0.10 0.08 0.07 0.07 0.07 0.06 0.07 0.10 0.15 0.21 0.20 0.15 0.08 0.04 0.02 0.02 0.02 0.02 0.01 0.00 0.00 0.00 0.00 0.00 0.01 0.01 0.01 0.03 0.04 0.05
0.00 0.01 0.04 0.05 0.05 0.05 0.05 0.05 0.04 0.05 0.06 0.08 0.08 0.06 0.04 0.03 0.04 0.06 0.06 0.07 0.10 0.12 0.13 0.10 0.05 0.02 0.01 0.00 0.00 0.00 0.00 0.00 0.00 0.00 0.00 0.00 0.00 0.01 0.01 0.01 0.02 0.03 0.04
0.00 0.01 0.03 0.05 0.05 0.05 0.05 0.04 0.04 0.05 0.06 0.05 0.04 0.04 0.03 0.03 0.06 0.08 0.07 0.05 0.05 0.04 0.02 0.01 0.00 0.00 0.00 0.00 0.00 0.00 0.00 0.00 0.00 0.00 0.00 0.00 0.00 0.01 0.02 0.02 0.03 0.03 0.06
0.00 0.01 0.03 0.05 0.04 0.04 0.04 0.04 0.04 0.05 0.05 0.04 0.03 0.03 0.03 0.04 0.05 0.05 0.03 0.01 0.01 0.00 0.00 0.00 0.00 0.00 0.00 0.00 0.00 0.00 0.01 0.00 0.00 0.00 0.00 0.01 0.01 0.03 0.04 0.04 0.05 0.06 0.08
0.00 0.01 0.04 0.05 0.04 0.04 0.04 0.04 0.05 0.05 0.04 0.03 0.03 0.03 0.03 0.05 0.06 0.05 0.01 0.00 0.00 0.00 0.00 0.00 0.00 0.00 0.00 0.00 0.00 0.00 0.00 0.00 0.00 0.00 0.00 0.01 0.01 0.03 0.04 0.05 0.07 0.09 0.10
0.01 0.02 0.05 0.06 0.05 0.05 0.04 0.04 0.04 0.05 0.04 0.03 0.03 0.03 0.04 0.06 0.06 0.06 0.04 0.01 0.00 0.00 0.00 0.01 0.01 0.02 0.01 0.01 0.01 0.00 0.00 0.00 0.00 0.00 0.00 0.01 0.02 0.04 0.05 0.07 0.10 0.11 0.12
0.01 0.05 0.07 0.07 0.05 0.05 0.05 0.04 0.03 0.04 0.04 0.03 0.03 0.03 0.03 0.03 0.05 0.09 0.08 0.02 0.01 0.01 0.02 0.02 0.03 0.03 0.02 0.01 0.01 0.00 0.00 0.00 0.00 0.00 0.00 0.00 0.02 0.05 0.07 0.07 0.09 0.10 0.10
0.04 0.06 0.07 0.07 0.06 0.06 0.06 0.04 0.03 0.03 0.03 0.03 0.03 0.02 0.01 0.01 0.02 0.05 0.08 0.05 0.03 0.02 0.03 0.03 0.03 0.03 0.02 0.01 0.01 0.00 0.00 0.00 0.00 0.00 0.00 0.01 0.03 0.08 0.10 0.11 0.13 0.14 0.13
0.09 0.07 0.06 0.06 0.06 0.06 0.07 0.04 0.02 0.02 0.02 0.02 0.02 0.01 0.00 0.00 0.01 0.02 0.02 0.03 0.02 0.02 0.02 0.02 0.03 0.03 0.02 0.00 0.00 0.00 0.00 0.00 0.00 0.00 0.00 0.02 0.08 0.15 0.15 0.16 0.17 0.17 0.14
0.14 0.11 0.08 0.06 0.05 0.06 0.07 0.04 0.02 0.02 0.01 0.01 0.01 0.01 0.00 0.01 0.01 0.01 0.00 0.00 0.01 0.01 0.01 0.02 0.02 0.01 0.00 0.00 0.00 0.00 0.00 0.00 0.00 0.00 0.01 0.04 0.11 0.14 0.12 0.11 0.10 0.08 0.07
0.17 0.14 0.11 0.08 0.05 0.06 0.06 0.04 0.03 0.01 0.01 0.01 0.00 0.00 0.00 0.01 0.01 0.01 0.00 0.00 0.01 0.01 0.00 0.00 0.00 0.00 0.00 0.00 0.00 0.00 0.00 0.00 0.00 0.00 0.01 0.02 0.05 0.06 0.05 0.03 0.02 0.03 0.02
0.20 0.15 0.12 0.10 0.07 0.06 0.06 0.04 0.03 0.01 0.01 0.00 0.00 0.00 0.00 0.00 0.01 0.01 0.01 0.01 0.01 0.00 0.00 0.00 0.00 0.00 0.00 0.00 0.00 0.00 0.00 0.00 0.00 0.00 0.00 0.00 0.02 0.03 0.03 0.01 0.01 0.02 0.01
0.24 0.18 0.16 0.12 0.09 0.08 0.07 0.04 0.03 0.02 0.01 0.00 0.00 0.00 0.00 0.00 0.00 0.01 0.02 0.01 0.01 0.00 0.00 0.00 0.00 0.00 0.00 0.00 0.00 0.00 0.00 0.00 0.00 0.00 0.00 0.00 0.00 0.01 0.02 0.01 0.02 0.02 0.02
0.28 0.25 0.23 0.18 0.13 0.11 0.10 0.06 0.03 0.02 0.01 0.01 0.00 0.00 0.00 0.00 0.00 0.00 0.01 0.01 0.01 0.00 0.00 0.00 0.00 0.00 0.00 0.00 0.00 0.00 0.00 0.00 0.00 0.00 0.00 0.00 0.00 0.01 0.01 0.01 0.02 0.03 0.03
0.26 0.24 0.25 0.22 0.16 0.12 0.10 0.08 0.06 0.05 0.03 0.01 0.00 0.00 0.00 0.00 0.00 0.00 0.00 0.01 0.01 0.00 0.00 0.00 0.00 0.00 0.00 0.00 0.00 0.00 0.00 0.00 0.00 0.00 0.00 0.00 0.00 0.00 0.01 0.02 0.03 0.04 0.05
0.27 0.23 0.21 0.22 0.22 0.15 0.12 0.13 0.10 0.09 0.07 0.03 0.02 0.01 0.01 0.00 0.00 0.00 0.00 0.00 0.00 0.01 0.00 0.00 0.00 0.00 0.00 0.00 0.00 0.00 0.00 0.00 0.00 0.00 0.00 0.00 0.00 0.00 0.00 0.02 0.03 0.05 0.07
0.28 0.23 0.20 0.20 0.21 0.17 0.15 0.18 0.14 0.12 0.11 0.07 0.06 0.03 0.02 0.02 0.01 0.00 0.00 0.01 0.01 0.01 0.01 0.02 0.02 0.02 0.01 0.01 0.01 0.01 0.01 0.01 0.01 0.00 0.00 0.00 0.00 0.00 0.00 0.01 0.02 0.04 0.05
0.25 0.22 0.18 0.18 0.19 0.20 0.24 0.27 0.21 0.17 0.13 0.11 0.09 0.05 0.05 0.05 0.05 0.03 0.02 0.02 0.02 0.02 0.03 0.04 0.04 0.04 0.04 0.04 0.04 0.03 0.03 0.02 0.01 0.01 0.01 0.01 0.01 0.01 0.01 0.01 0.01 0.01 0.02
0.21 0.21 0.17 0.15 0.18 0.26 0.37 0.37 0.33 0.27 0.19 0.16 0.11 0.08 0.10 0.10 0.12 0.10 0.06 0.06 0.06 0.05 0.05 0.06 0.08 0.09 0.07 0.07 0.06 0.03 0.02 0.02 0.01 0.01 0.01 0.01 0.01 0.02 0.02 0.01 0.01 0.01 0.01
0.16 0.18 0.16 0.14 0.17 0.25 0.29 0.27 0.23 0.20 0.18 0.16 0.14 0.15 0.17 0.18 0.20 0.17 0.12 0.10 0.10 0.09 0.09 0.13 0.15 0.13 0.11 0.12 0.09 0.04 0.01 0.01 0.01 0.01 0.01 0.01 0.01 0.02 0.02 0.02 0.02 0.01 0.01
0.11 0.13 0.15 0.16 0.16 0.16 0.16 0.21 0.27 0.31 0.29 0.27 0.26 0.22 0.22 0.23 0.24 0.20 0.17 0.17 0.19 0.18 0.15 0.15 0.16 0.14 0.14 0.16 0.14 0.10 0.04 0.00 0.00 0.01 0.01 0.01 0.02 0.02 0.02 0.03 0.03 0.02 0.02
0.07 0.09 0.10 0.13 0.13 0.15 0.20 0.30 0.35 0.37 0.34 0.29 0.24 0.22 0.23 0.28 0.30 0.27 0.26 0.27 0.26 0.24 0.19 0.20 0.21 0.20 0.18 0.17 0.17 0.17 0.10 0.03 0.02 0.01 0.01 0.02 0.02 0.02 0.02 0.03 0.03 0.03 0.03
0.04 0.07 0.08 0.10 0.13 0.17 0.25 0.29 0.28 0.27 0.24 0.21 0.23 0.28 0.34 0.34 0.35 0.34 0.33 0.32 0.30 0.27 0.23 0.23 0.24 0.24 0.21 0.17 0.15 0.13 0.13 0.10 0.09 0.05 0.02 0.03 0.03 0.02 0.03 0.04 0.04 0.04 0.04
0.02 0.04 0.07 0.10 0.13 0.16 0.21 0.24 0.24 0.20 0.15 0.16 0.18 0.20 0.21 0.22 0.26 0.30 0.31 0.32 0.29 0.28 0.28 0.27 0.26 0.27 0.24 0.21 0.19 0.19 0.18 0.13 0.09 0.11 0.08 0.05 0.05 0.06 0.06 0.05 0.05 0.05 0.06
0.01 0.02 0.04 0.06 0.07 0.10 0.14 0.17 0.17 0.15 0.12 0.13 0.14 0.15 0.15 0.15 0.18 0.21 0.25 0.27 0.29 0.31 0.31 0.33 0.35 0.36 0.33 0.29 0.24 0.23 0.24 0.20 0.14 0.14 0.15 0.11 0.10 0.09 0.07 0.07 0.07 0.08 0.09

GEFSSE_prec_meanprecacc_072.txt.gz
Total_Precipitation_Accumulation
0.00 0.02 0.07 0.04 0.04 0.04 0.05 0.05 0.06 0.06 0.08 0.10 0.11 0.12 0.15 0.15 0.13 0.10 0.10 0.09 0.11 0.15 0.19 0.22 0.22 0.21 0.19 0.18 0.15 0.08 0.03 0.01 0.00 0.00 0.00 0.01 0.02 0.02 0.02 0.03 0.04 0.05 0.06
0.00 0.02 0.06 0.05 0.05 0.06 0.06 0.06 0.05 0.05 0.07 0.10 0.13 0.13 0.12 0.12 0.11 0.09 0.07 0.08 0.11 0.16 0.21 0.21 0.15 0.08 0.04 0.02 0.02 0.02 0.02 0.01 0.00 0.00 0.00 0.00 0.01 0.01 0.02 0.02 0.04 0.05 0.06
0.00 0.02 0.05 0.06 0.06 0.06 0.06 0.05 0.04 0.05 0.07 0.09 0.10 0.08 0.07 0.07 0.06 0.07 0.07 0.08 0.10 0.12 0.13 0.10 0.05 0.02 0.01 0.00 0.00 0.00 0.00 0.00 0.00 0.00 0.00 0.00 0.00 0.01 0.01 0.01 0.03 0.03 0.05
0.00 0.02 0.04 0.07 0.06 0.05 0.05 0.05 0.04 0.06 0.06 0.06 0.06 0.05 0.05 0.05 0.07 0.08 0.07 0.06 0.05 0.04 0.02 0.01 0.00 0.00 0.00 0.00 0.00 0.00 0.00 0.00 0.00 0.00 0.00 0.00 0.01 0.02 0.02 0.02 0.03 0.04 0.06
0.01 0.01 0.04 0.07 0.05 0.05 0.04 0.04 0.05 0.06 0.06 0.05 0.04 0.04 0.04 0.05 0.06 0.05 0.03 0.02 0.01 0.00 0.00 0.00 0.00 0.00 0.00 0.00 0.00 0.00 0.01 0.00 0.00 0.00 0.00 0.01 0.01 0.03 0.04 0.04 0.05 0.06 0.08
0.01 0.02 0.06 0.07 0.05 0.04 0.04 0.04 0.06 0.06 0.05 0.04 0.04 0.04 0.04 0.06 0.07 0.05 0.02 0.00 0.00 0.00 0.00 0.00 0.00 0.00 0.00 0.00 0.00 0.00 0.00 0.00 0.00 0.00 0.00 0.01 0.01 0.03 0.04 0.05 0.07 0.09 0.10
0.02 0.04 0.07 0.07 0.06 0.05 0.04 0.05 0.05 0.05 0.05 0.04 0.03 0.03 0.04 0.06 0.06 0.06 0.04 0.01 0.00 0.00 0.00 0.01 0.01 0.02 0.01 0.01 0.01 0.00 0.00 0.00 0.00 0.00 0.00 0.01 0.02 0.04 0.05 0.07 0.10 0.11 0.12
0.03 0.07 0.10 0.10 0.06 0.06 0.05 0.05 0.04 0.05 0.05 0.04 0.03 0.03 0.03 0.03 0.05 0.09 0.08 0.02 0.01 0.01 0.02 0.02 0.03 0.03 0.02 0.01 0.01 0.00 0.00 0.00 0.00 0.00 0.00 0.00 0.02 0.06 0.07 0.08 0.09 0.10 0.10
0.08 0.09 0.11 0.11 0.07 0.06 0.06 0.05 0.04 0.04 0.04 0.03 0.03 0.02 0.02 0.01 0.02 0.05 0.08 0.05 0.03 0.02 0.03 0.03 0.03 0.03 0.02 0.01 0.01 0.00 0.00 0.00 0.00 0.00 0.00 0.01 0.03 0.08 0.10 0.11 0.13 0.14 0.13
0.15 0.13 0.11 0.09 0.07 0.07 0.08 0.05 0.04 0.03 0.03 0.03 0.02 0.01 0.01 0.00 0.01 0.02 0.02 0.03 0.02 0.02 0.02 0.02 0.03 0.03 0.02 0.00 0.00 0.00 0.00 0.00 0.00 0.00 0.00 0.02 0.08 0.15 0.16 0.16 0.17 0.17 0.14
0.24 0.19 0.13 0.09 0.07 0.07 0.08 0.05 0.03 0.03 0.02 0.02 0.01 0.01 0.00 0.01 0.01 0.01 0.00 0.00 0.01 0.01 0.01 0.02 0.02 0.01 0.00 0.00 0.00 0.00 0.00 0.00 0.00 0.00 0.01 0.04 0.11 0.14 0.12 0.11 0.10 0.09 0.07
0.31 0.25 0.19 0.12 0.07 0.07 0.07 0.05 0.04 0.02 0.02 0.01 0.01 0.00 0.00 0.01 0.01 0.01 0.00 0.00 0.01 0.01 0.00 0.00 0.00 0.00 0.00 0.00 0.00 0.00 0.00 0.00 0.00 0.00 0.01 0.02 0.05 0.06 0.05 0.04 0.03 0.03 0.03
0.43 0.33 0.24 0.17 0.11 0.08 0.07 0.04 0.03 0.02 0.01 0.01 0.00 0.00 0.00 0.00 0.01 0.01 0.01 0.01 0.01 0.00 0.00 0.00 0.00 0.00 0.00 0.00 0.00 0.00 0.00 0.00 0.00 0.00 0.00 0.00 0.02 0.03 0.03 0.02 0.02 0.02 0.03
0.53 0.41 0.33 0.23 0.16 0.12 0.08 0.05 0.03 0.02 0.01 0.00 0.00 0.00 0.00 0.00 0.00 0.01 0.02 0.01 0.01 0.00 0.00 0.00 0.00 0.00 0.00 0.00 0.00 0.00 0.00 0.00 0.00 0.00 0.00 0.00 0.00 0.02 0.02 0.02 0.03 0.04 0.04
0.59 0.52 0.45 0.36 0.26 0.19 0.14 0.08 0.04 0.03 0.01 0.01 0.00 0.00 0.00 0.00 0.00 0.00 0.01 0.01 0.01 0.00 0.00 0.00 0.00 0.00 0.00 0.00 0.00 0.00 0.00 0.00 0.00 0.00 0.00 0.00 0.00 0.01 0.01 0.02 0.04 0.07 0.06
0.53 0.51 0.52 0.45 0.37 0.28 0.20 0.14 0.10 0.07 0.04 0.02 0.01 0.00 0.00 0.00 0.00 0.00 0.00 0.01 0.01 0.00 0.00 0.00 0.00 0.00 0.00 0.00 0.00 0.00 0.00 0.00 0.00 0.00 0.00 0.00 0.00 0.00 0.01 0.02 0.04 0.07 0.09
0.43 0.44 0.45 0.49 0.47 0.38 0.31 0.25 0.20 0.16 0.11 0.05 0.03 0.02 0.01 0.00 0.00 0.00 0.00 0.00 0.00 0.01 0.00 0.00 0.00 0.00 0.00 0.00 0.00 0.00 0.00 0.00 0.00 0.00 0.00 0.00 0.00 0.00 0.00 0.02 0.04 0.07 0.10
0.42 0.38 0.39 0.45 0.48 0.44 0.41 0.40 0.29 0.25 0.19 0.12 0.09 0.06 0.03 0.02 0.01 0.00 0.00 0.01 0.01 0.01 0.01 0.02 0.02 0.02 0.01 0.01 0.01 0.01 0.01 0.01 0.01 0.00 0.00 0.00 0.00 0.00 0.00 0.01 0.03 0.05 0.08
0.42 0.38 0.36 0.41 0.44 0.51 0.59 0.57 0.44 0.36 0.28 0.20 0.16 0.11 0.08 0.06 0.06 0.03 0.02 0.02 0.02 0.02 0.03 0.04 0.04 0.04 0.04 0.04 0.04 0.03 0.03 0.02 0.01 0.01 0.01 0.01 0.01 0.01 0.01 0.01 0.01 0.02 0.03
0.44 0.46 0.42 0.44 0.51 0.59 0.71 0.73 0.65 0.49 0.36 0.28 0.21 0.16 0.16 0.14 0.15 0.11 0.06 0.06 0.06 0.05 0.05 0.06 0.08 0.09 0.07 0.07 0.06 0.03 0.02 0.02 0.01 0.01 0.01 0.01 0.01 0.02 0.02 0.01 0.01 0.01 0.01
0.43 0.46 0.43 0.45 0.51 0.57 0.58 0.52 0.46 0.41 0.37 0.32 0.26 0.25 0.25 0.24 0.25 0.21 0.14 0.11 0.10 0.09 0.09 0.13 0.16 0.13 0.11 0.12 0.09 0.04 0.01 0.01 0.01 0.01 0.01 0.01 0.01 0.02 0.02 0.02 0.02 0.01 0.01
0.35 0.39 0.40 0.42 0.47 0.46 0.43 0.47 0.50 0.53 0.49 0.44 0.39 0.34 0.32 0.32 0.31 0.26 0.22 0.21 0.22 0.20 0.17 0.18 0.18 0.15 0.15 0.17 0.15 0.12 0.04 0.01 0.00 0.01 0.01 0.01 0.02 0.02 0.02 0.03 0.03 0.02 0.02
0.25 0.31 0.36 0.38 0.40 0.44 0.51 0.64 0.67 0.66 0.57 0.48 0.41 0.37 0.36 0.39 0.39 0.34 0.32 0.32 0.30 0.28 0.23 0.24 0.25 0.24 0.21 0.19 0.18 0.19 0.11 0.03 0.02 0.01 0.01 0.02 0.02 0.02 0.02 0.03 0.03 0.03 0.03
0.14 0.23 0.32 0.38 0.42 0.47 0.58 0.61 0.60 0.54 0.47 0.43 0.43 0.47 0.49 0.48 0.48 0.44 0.41 0.38 0.36 0.33 0.28 0.28 0.29 0.27 0.24 0.19 0.17 0.15 0.15 0.11 0.10 0.05 0.02 0.03 0.03 0.02 0.03 0.04 0.04 0.04 0.04
0.09 0.16 0.24 0.32 0.36 0.43 0.50 0.53 0.56 0.48 0.38 0.38 0.39 0.37 0.37 0.35 0.37 0.39 0.40 0.39 0.36 0.34 0.33 0.33 0.32 0.30 0.26 0.22 0.20 0.20 0.19 0.13 0.10 0.12 0.08 0.05 0.05 0.06 0.06 0.05 0.05 0.05 0.06
0.04 0.09 0.16 0.22 0.25 0.29 0.36 0.42 0.41 0.37 0.33 0.33 0.32 0.32 0.30 0.28 0.29 0.30 0.33 0.33 0.34 0.34 0.35 0.36 0.38 0.37 0.34 0.29 0.24 0.23 0.24 0.20 0.14 0.14 0.16 0.12 0.10 0.09 0.07 0.07 0.07 0.08 0.09

GEFSSE_prec_meanprecacc_078.txt.gz
Total_Precipitation_Accumulation
0.00 0.03 0.10 0.06 0.05 0.05 0.05 0.05 0.06 0.07 0.09 0.12 0.14 0.16 0.17 0.18 0.16 0.13 0.14 0.13 0.13 0.17 0.19 0.22 0.22 0.21 0.19 0.18 0.15 0.08 0.03 0.01 0.00 0.00 0.01 0.01 0.02 0.03 0.03 0.04 0.05 0.06 0.07
0.00 0.03 0.08 0.06 0.06 0.06 0.06 0.06 0.06 0.06 0.09 0.13 0.17 0.18 0.16 0.15 0.15 0.13 0.09 0.09 0.11 0.16 0.21 0.21 0.15 0.08 0.04 0.02 0.02 0.02 0.02 0.01 0.00 0.00 0.00 0.00 0.01 0.02 0.02 0.02 0.04 0.06 0.07
0.00 0.03 0.07 0.07 0.07 0.07 0.06 0.05 0.04 0.06 0.09 0.13 0.16 0.14 0.13 0.11 0.10 0.10 0.08 0.08 0.10 0.12 0.13 0.10 0.05 0.02 0.01 0.00 0.00 0.00 0.00 0.00 0.00 0.00 0.00 0.00 0.01 0.01 0.01 0.01 0.03 0.03 0.05
0.00 0.03 0.05 0.08 0.07 0.06 0.05 0.05 0.05 0.07 0.10 0.11 0.13 0.12 0.11 0.09 0.09 0.09 0.08 0.06 0.05 0.04 0.02 0.01 0.01 0.00 0.00 0.00 0.00 0.00 0.00 0.00 0.00 0.00 0.00 0.00 0.01 0.02 0.02 0.02 0.03 0.04 0.06
0.02 0.03 0.06 0.09 0.06 0.05 0.05 0.05 0.06 0.07 0.09 0.11 0.11 0.11 0.09 0.08 0.08 0.06 0.03 0.02 0.01 0.00 0.00 0.00 0.00 0.00 0.00 0.00 0.00 0.00 0.01 0.00 0.00 0.00 0.00 0.01 0.01 0.03 0.04 0.04 0.05 0.06 0.08
0.03 0.04 0.08 0.09 0.06 0.05 0.04 0.05 0.07 0.07 0.09 0.09 0.10 0.09 0.06 0.08 0.08 0.05 0.02 0.00 0.00 0.00 0.00 0.00 0.00 0.00 0.00 0.00 0.00 0.00 0.00 0.00 0.00 0.00 0.00 0.01 0.02 0.03 0.04 0.05 0.07 0.09 0.11
0.04 0.07 0.11 0.10 0.07 0.05 0.05 0.06 0.07 0.07 0.08 0.07 0.09 0.08 0.06 0.07 0.07 0.06 0.04 0.01 0.00 0.00 0.00 0.01 0.01 0.02 0.01 0.01 0.01 0.00 0.00 0.00 0.00 0.00 0.00 0.01 0.02 0.04 0.05 0.07 0.10 0.11 0.12
0.08 0.12 0.16 0.14 0.08 0.07 0.06 0.06 0.06 0.06 0.06 0.06 0.07 0.06 0.05 0.04 0.05 0.09 0.08 0.02 0.01 0.01 0.02 0.02 0.03 0.03 0.02 0.01 0.01 0.00 0.00 0.00 0.00 0.00 0.00 0.01 0.02 0.06 0.07 0.08 0.09 0.10 0.10
0.19 0.19 0.19 0.17 0.10 0.08 0.08 0.07 0.05 0.05 0.06 0.06 0.06 0.04 0.02 0.01 0.02 0.05 0.08 0.05 0.03 0.02 0.03 0.03 0.03 0.03 0.02 0.01 0.01 0.00 0.00 0.00 0.00 0.00 0.00 0.01 0.04 0.08 0.10 0.11 0.13 0.14 0.13
0.35 0.28 0.22 0.18 0.11 0.09 0.09 0.08 0.05 0.04 0.05 0.05 0.04 0.02 0.01 0.01 0.01 0.02 0.02 0.03 0.02 0.02 0.02 0.02 0.03 0.04 0.02 0.00 0.00 0.00 0.00 0.00 0.00 0.00 0.00 0.02 0.08 0.15 0.16 0.16 0.17 0.17 0.14
0.52 0.40 0.30 0.19 0.12 0.09 0.10 0.08 0.06 0.04 0.04 0.03 0.02 0.01 0.01 0.01 0.01 0.01 0.00 0.00 0.01 0.01 0.01 0.02 0.02 0.01 0.00 0.00 0.00 0.00 0.00 0.00 0.00 0.00 0.01 0.04 0.11 0.14 0.13 0.12 0.11 0.09 0.08
0.63 0.50 0.38 0.24 0.13 0.10 0.09 0.08 0.07 0.04 0.03 0.02 0.01 0.01 0.00 0.01 0.01 0.01 0.00 0.00 0.01 0.01 0.00 0.00 0.00 0.00 0.00 0.00 0.00 0.00 0.00 0.00 0.00 0.00 0.01 0.02 0.05 0.06 0.06 0.05 0.04 0.04 0.03
0.80 0.61 0.48 0.33 0.18 0.12 0.10 0.07 0.06 0.03 0.03 0.01 0.00 0.00 0.00 0.00 0.01 0.01 0.01 0.01 0.01 0.00 0.00 0.00 0.00 0.00 0.00 0.00 0.00 0.00 0.00 0.00 0.00 0.00 0.00 0.00 0.02 0.03 0.04 0.03 0.03 0.03 0.03
0.98 0.74 0.62 0.42 0.25 0.16 0.11 0.08 0.05 0.03 0.02 0.01 0.00 0.00 0.00 0.00 0.01 0.01 0.02 0.01 0.01 0.00 0.00 0.00 0.00 0.00 0.00 0.00 0.00 0.00 0.00 0.00 0.00 0.00 0.00 0.00 0.00 0.02 0.02 0.03 0.04 0.05 0.06
1.04 0.92 0.77 0.56 0.37 0.25 0.18 0.11 0.06 0.04 0.02 0.01 0.00 0.00 0.00 0.00 0.00 0.00 0.01 0.01 0.01 0.00 0.00 0.00 0.00 0.00 0.00 0.00 0.00 0.00 0.00 0.00 0.00 0.00 0.00 0.00 0.00 0.01 0.01 0.02 0.05 0.08 0.09
0.90 0.91 0.85 0.65 0.48 0.35 0.25 0.17 0.13 0.09 0.05 0.02 0.01 0.01 0.00 0.00 0.00 0.00 0.00 0.01 0.01 0.00 0.00 0.00 0.00 0.00 0.00 0.00 0.00 0.00 0.00 0.00 0.00 0.00 0.00 0.00 0.00 0.00 0.01 0.03 0.05 0.08 0.11
0.72 0.77 0.78 0.74 0.62 0.46 0.37 0.29 0.23 0.18 0.13 0.06 0.04 0.03 0.01 0.01 0.00 0.00 0.00 0.00 0.00 0.01 0.00 0.00 0.00 0.00 0.00 0.00 0.00 0.00 0.00 0.00 0.00 0.00 0.00 0.00 0.00 0.00 0.00 0.02 0.04 0.08 0.12
0.68 0.65 0.65 0.69 0.68 0.57 0.50 0.46 0.33 0.29 0.22 0.15 0.11 0.08 0.05 0.03 0.02 0.01 0.01 0.01 0.01 0.01 0.01 0.02 0.02 0.02 0.01 0.01 0.01 0.01 0.01 0.01 0.01 0.00 0.00 0.00 0.00 0.00 0.00 0.01 0.03 0.06 0.09
0.67 0.63 0.59 0.61 0.64 0.68 0.74 0.69 0.53 0.43 0.33 0.24 0.19 0.14 0.11 0.10 0.09 0.06 0.03 0.03 0.03 0.03 0.04 0.04 0.04 0.04 0.04 0.04 0.04 0.04 0.03 0.02 0.01 0.01 0.01 0.01 0.01 0.01 0.01 0.01 0.01 0.02 0.03
0.71 0.73 0.66 0.65 0.72 0.79 0.92 0.92 0.79 0.59 0.44 0.35 0.27 0.22 0.22 0.19 0.20 0.16 0.11 0.09 0.08 0.06 0.06 0.07 0.09 0.09 0.08 0.08 0.07 0.04 0.02 0.02 0.02 0.01 0.01 0.01 0.01 0.02 0.02 0.01 0.01 0.01 0.01
0.77 0.78 0.75 0.74 0.79 0.82 0.79 0.72 0.64 0.55 0.49 0.42 0.35 0.35 0.33 0.31 0.32 0.28 0.20 0.16 0.15 0.12 0.11 0.14 0.16 0.14 0.12 0.13 0.10 0.04 0.02 0.01 0.01 0.01 0.01 0.01 0.01 0.02 0.02 0.02 0.02 0.01 0.01
0.69 0.70 0.74 0.79 0.80 0.76 0.74 0.76 0.76 0.77 0.71 0.64 0.57 0.51 0.48 0.46 0.44 0.39 0.34 0.33 0.31 0.26 0.21 0.19 0.19 0.16 0.16 0.19 0.17 0.13 0.05 0.01 0.00 0.01 0.01 0.01 0.02 0.02 0.02 0.03 0.03 0.02 0.02
0.58 0.67 0.70 0.73 0.78 0.78 0.87 1.06 1.06 0.98 0.87 0.75 0.66 0.63 0.62 0.62 0.60 0.54 0.50 0.49 0.43 0.36 0.28 0.28 0.29 0.28 0.25 0.23 0.22 0.22 0.13 0.04 0.03 0.01 0.01 0.02 0.02 0.02 0.02 0.03 0.03 0.03 0.03
0.40 0.54 0.69 0.77 0.84 0.91 1.03 1.06 1.02 0.90 0.82 0.77 0.74 0.76 0.77 0.73 0.72 0.68 0.65 0.60 0.54 0.46 0.38 0.35 0.35 0.33 0.29 0.23 0.20 0.17 0.17 0.12 0.11 0.06 0.02 0.03 0.03 0.02 0.03 0.04 0.04 0.04 0.04
0.28 0.38 0.52 0.70 0.78 0.91 1.06 1.06 1.04 0.91 0.77 0.78 0.78 0.71 0.68 0.64 0.65 0.68 0.67 0.64 0.57 0.49 0.44 0.41 0.38 0.36 0.31 0.27 0.23 0.21 0.20 0.14 0.11 0.13 0.08 0.05 0.05 0.06 0.06 0.05 0.05 0.05 0.06
0.18 0.25 0.34 0.45 0.52 0.61 0.75 0.89 0.93 0.90 0.84 0.79 0.75 0.70 0.66 0.61 0.59 0.59 0.61 0.56 0.52 0.47 0.44 0.44 0.44 0.42 0.38 0.32 0.26 0.25 0.25 0.21 0.14 0.15 0.16 0.12 0.10 0.09 0.07 0.07 0.07 0.08 0.09

GEFSSE_prec_meanprecacc_084.txt.gz
Total_Precipitation_Accumulation
0.00 0.03 0.10 0.06 0.05 0.05 0.05 0.05 0.06 0.07 0.09 0.13 0.16 0.18 0.19 0.19 0.18 0.15 0.17 0.16 0.17 0.18 0.20 0.23 0.23 0.22 0.20 0.19 0.16 0.09 0.04 0.01 0.01 0.00 0.01 0.01 0.02 0.03 0.03 0.04 0.06 0.07 0.08
0.00 0.03 0.08 0.06 0.06 0.06 0.06 0.06 0.06 0.06 0.09 0.15 0.21 0.21 0.19 0.18 0.17 0.16 0.13 0.12 0.13 0.16 0.21 0.21 0.16 0.09 0.05 0.03 0.02 0.02 0.02 0.01 0.00 0.00 0.00 0.00 0.01 0.02 0.02 0.02 0.04 0.06 0.07
0.00 0.03 0.07 0.08 0.07 0.07 0.06 0.05 0.05 0.06 0.10 0.15 0.21 0.19 0.18 0.14 0.13 0.14 0.10 0.10 0.11 0.13 0.13 0.10 0.06 0.02 0.01 0.00 0.00 0.00 0.00 0.00 0.00 0.00 0.00 0.00 0.01 0.01 0.01 0.02 0.03 0.04 0.06
0.01 0.03 0.06 0.09 0.07 0.06 0.05 0.05 0.05 0.07 0.11 0.14 0.20 0.19 0.16 0.13 0.14 0.12 0.09 0.06 0.05 0.04 0.02 0.01 0.01 0.00 0.00 0.00 0.00 0.00 0.00 0.00 0.00 0.00 0.00 0.01 0.01 0.02 0.02 0.02 0.03 0.04 0.06
0.02 0.04 0.08 0.09 0.07 0.05 0.05 0.05 0.06 0.08 0.12 0.16 0.19 0.19 0.14 0.12 0.12 0.07 0.04 0.02 0.01 0.01 0.00 0.00 0.00 0.00 0.00 0.00 0.00 0.01 0.01 0.00 0.00 0.00 0.00 0.01 0.01 0.03 0.04 0.04 0.05 0.07 0.08
0.04 0.08 0.11 0.10 0.07 0.05 0.04 0.05 0.07 0.08 0.12 0.16 0.19 0.17 0.12 0.13 0.11 0.06 0.02 0.01 0.00 0.00 0.00 0.00 0.00 0.01 0.00 0.00 0.00 0.00 0.00 0.00 0.00 0.00 0.01 0.01 0.02 0.03 0.04 0.05 0.07 0.09 0.11
0.07 0.12 0.16 0.13 0.09 0.06 0.05 0.06 0.07 0.08 0.13 0.16 0.18 0.16 0.12 0.11 0.09 0.07 0.04 0.01 0.00 0.00 0.01 0.01 0.01 0.02 0.01 0.01 0.01 0.00 0.00 0.00 0.00 0.00 0.01 0.01 0.02 0.04 0.05 0.07 0.10 0.11 0.12
0.17 0.23 0.24 0.18 0.11 0.08 0.07 0.07 0.06 0.08 0.13 0.16 0.15 0.14 0.11 0.06 0.06 0.09 0.08 0.03 0.01 0.01 0.02 0.02 0.03 0.03 0.02 0.02 0.01 0.00 0.00 0.00 0.00 0.00 0.00 0.01 0.02 0.06 0.07 0.08 0.09 0.10 0.10
0.38 0.42 0.37 0.25 0.15 0.11 0.10 0.08 0.06 0.07 0.12 0.15 0.14 0.11 0.07 0.03 0.03 0.05 0.08 0.06 0.03 0.03 0.03 0.03 0.03 0.03 0.03 0.01 0.01 0.00 0.00 0.00 0.00 0.00 0.00 0.01 0.04 0.08 0.11 0.12 0.13 0.14 0.13
0.63 0.60 0.48 0.33 0.18 0.13 0.11 0.09 0.06 0.06 0.09 0.11 0.09 0.06 0.04 0.01 0.02 0.02 0.02 0.03 0.02 0.02 0.02 0.02 0.03 0.04 0.02 0.00 0.00 0.00 0.00 0.00 0.00 0.00 0.00 0.02 0.08 0.15 0.16 0.16 0.18 0.17 0.14
0.85 0.80 0.67 0.45 0.27 0.17 0.13 0.09 0.07 0.06 0.07 0.08 0.05 0.03 0.02 0.01 0.01 0.01 0.00 0.00 0.01 0.01 0.01 0.02 0.02 0.01 0.00 0.00 0.00 0.00 0.00 0.00 0.00 0.00 0.01 0.04 0.11 0.14 0.13 0.13 0.11 0.09 0.08
0.93 0.87 0.80 0.61 0.39 0.23 0.16 0.12 0.09 0.06 0.06 0.05 0.03 0.02 0.01 0.01 0.01 0.01 0.00 0.00 0.01 0.01 0.00 0.00 0.00 0.00 0.00 0.00 0.00 0.00 0.00 0.00 0.00 0.00 0.01 0.02 0.05 0.06 0.06 0.05 0.04 0.04 0.04
1.13 1.00 0.93 0.81 0.57 0.36 0.24 0.14 0.10 0.06 0.05 0.04 0.03 0.02 0.01 0.00 0.01 0.01 0.01 0.01 0.01 0.00 0.00 0.00 0.00 0.00 0.00 0.00 0.00 0.00 0.00 0.00 0.00 0.00 0.00 0.00 0.02 0.03 0.04 0.03 0.03 0.04 0.04
1.32 1.16 1.09 0.97 0.75 0.51 0.33 0.21 0.12 0.06 0.05 0.04 0.03 0.02 0.01 0.00 0.01 0.01 0.02 0.01 0.01 0.00 0.00 0.00 0.00 0.00 0.00 0.00 0.00 0.00 0.00 0.00 0.00 0.00 0.00 0.00 0.00 0.02 0.02 0.03 0.04 0.06 0.06
1.35 1.28 1.22 1.06 0.87 0.64 0.45 0.30 0.17 0.10 0.06 0.05 0.03 0.01 0.01 0.00 0.00 0.00 0.01 0.01 0.01 0.00 0.00 0.00 0.00 0.00 0.00 0.00 0.00 0.00 0.00 0.00 0.00 0.00 0.00 0.00 0.00 0.01 0.01 0.02 0.05 0.09 0.10
1.23 1.25 1.25 1.11 0.95 0.72 0.52 0.40 0.28 0.18 0.11 0.06 0.05 0.03 0.01 0.00 0.00 0.00 0.00 0.01 0.01 0.00 0.00 0.00 0.00 0.00 0.00 0.00 0.00 0.00 0.00 0.00 0.00 0.00 0.00 0.00 0.00 0.00 0.01 0.03 0.05 0.09 0.12
1.06 1.13 1.19 1.19 1.06 0.81 0.63 0.53 0.42 0.31 0.21 0.11 0.08 0.05 0.03 0.02 0.01 0.01 0.00 0.01 0.01 0.01 0.00 0.00 0.00 0.00 0.00 0.00 0.00 0.00 0.00 0.00 0.00 0.00 0.00 0.00 0.00 0.00 0.00 0.02 0.04 0.08 0.13
0.99 1.04 1.08 1.14 1.12 0.95 0.78 0.69 0.58 0.46 0.33 0.21 0.16 0.11 0.08 0.05 0.04 0.02 0.02 0.02 0.03 0.02 0.02 0.02 0.02 0.02 0.02 0.01 0.01 0.01 0.02 0.01 0.01 0.00 0.00 0.00 0.00 0.00 0.00 0.01 0.03 0.06 0.09
0.91 0.99 1.05 1.07 1.10 1.09 1.05 0.93 0.76 0.63 0.47 0.33 0.25 0.17 0.14 0.12 0.11 0.08 0.05 0.06 0.06 0.05 0.06 0.06 0.05 0.05 0.05 0.04 0.04 0.04 0.03 0.02 0.01 0.01 0.01 0.01 0.01 0.01 0.01 0.01 0.01 0.02 0.03
0.94 1.04 1.11 1.11 1.18 1.23 1.27 1.18 1.00 0.77 0.60 0.48 0.35 0.28 0.25 0.22 0.22 0.18 0.12 0.11 0.10 0.08 0.08 0.09 0.10 0.10 0.08 0.09 0.07 0.04 0.02 0.02 0.02 0.01 0.01 0.01 0.01 0.02 0.02 0.01 0.01 0.01 0.01
1.03 1.07 1.14 1.16 1.23 1.25 1.17 1.00 0.85 0.72 0.65 0.57 0.47 0.45 0.41 0.36 0.36 0.30 0.22 0.19 0.18 0.15 0.14 0.17 0.18 0.16 0.14 0.15 0.11 0.05 0.02 0.01 0.01 0.02 0.02 0.02 0.02 0.02 0.02 0.02 0.02 0.02 0.02
1.02 1.04 1.12 1.18 1.21 1.19 1.15 1.13 1.03 1.01 0.92 0.81 0.72 0.64 0.59 0.56 0.52 0.45 0.39 0.37 0.35 0.31 0.26 0.24 0.23 0.20 0.20 0.22 0.20 0.15 0.06 0.02 0.02 0.03 0.02 0.02 0.02 0.03 0.03 0.03 0.03 0.02 0.02
0.86 1.03 1.08 1.12 1.18 1.19 1.31 1.54 1.43 1.26 1.12 0.98 0.85 0.79 0.76 0.76 0.74 0.66 0.60 0.57 0.51 0.44 0.37 0.37 0.38 0.35 0.32 0.30 0.27 0.26 0.16 0.07 0.05 0.03 0.03 0.02 0.02 0.02 0.03 0.03 0.03 0.03 0.03
0.63 0.85 1.09 1.15 1.25 1.33 1.43 1.53 1.46 1.21 1.04 0.98 0.95 0.95 0.94 0.89 0.87 0.84 0.82 0.75 0.69 0.60 0.51 0.48 0.48 0.46 0.41 0.33 0.27 0.22 0.22 0.17 0.14 0.08 0.04 0.04 0.03 0.02 0.03 0.04 0.04 0.04 0.04
0.51 0.65 0.86 1.05 1.15 1.33 1.43 1.47 1.47 1.25 1.03 1.02 1.00 0.92 0.89 0.85 0.82 0.82 0.81 0.78 0.71 0.64 0.60 0.57 0.52 0.49 0.43 0.37 0.31 0.28 0.26 0.18 0.13 0.15 0.10 0.06 0.06 0.06 0.06 0.05 0.05 0.05 0.06
0.38 0.45 0.59 0.73 0.79 0.92 1.04 1.20 1.26 1.22 1.11 1.04 0.97 0.89 0.84 0.80 0.78 0.77 0.76 0.71 0.66 0.62 0.61 0.60 0.58 0.54 0.48 0.41 0.34 0.31 0.29 0.24 0.16 0.16 0.17 0.12 0.11 0.09 0.07 0.07 0.07 0.08 0.09

GEFSSE_prec_meanprecacc_090.txt.gz
Total_Precipitation_Accumulation
0.00 0.03 0.10 0.06 0.05 0.05 0.05 0.05 0.06 0.07 0.10 0.13 0.16 0.18 0.19 0.20 0.19 0.16 0.17 0.17 0.17 0.18 0.20 0.24 0.24 0.23 0.21 0.20 0.17 0.09 0.04 0.02 0.01 0.01 0.01 0.02 0.04 0.05 0.04 0.05 0.06 0.08 0.09
0.00 0.03 0.09 0.06 0.06 0.06 0.06 0.06 0.06 0.06 0.10 0.15 0.22 0.22 0.20 0.19 0.19 0.17 0.14 0.14 0.14 0.17 0.22 0.22 0.16 0.10 0.05 0.03 0.03 0.02 0.02 0.01 0.00 0.00 0.00 0.01 0.01 0.02 0.02 0.03 0.04 0.07 0.08
0.00 0.03 0.08 0.08 0.07 0.07 0.06 0.05 0.05 0.06 0.10 0.16 0.22 0.21 0.19 0.16 0.15 0.15 0.12 0.11 0.11 0.13 0.15 0.12 0.06 0.03 0.01 0.01 0.00 0.00 0.00 0.00 0.00 0.00 0.00 0.00 0.01 0.01 0.02 0.02 0.03 0.04 0.07
0.01 0.03 0.06 0.09 0.08 0.06 0.05 0.05 0.05 0.08 0.12 0.16 0.22 0.21 0.18 0.15 0.16 0.14 0.12 0.08 0.06 0.05 0.03 0.02 0.01 0.01 0.00 0.00 0.00 0.00 0.00 0.00 0.00 0.00 0.00 0.01 0.01 0.02 0.03 0.02 0.03 0.04 0.07
0.03 0.05 0.08 0.10 0.07 0.05 0.05 0.05 0.06 0.09 0.12 0.17 0.22 0.22 0.17 0.15 0.15 0.10 0.06 0.03 0.02 0.01 0.01 0.01 0.00 0.00 0.00 0.00 0.00 0.01 0.01 0.00 0.00 0.00 0.00 0.01 0.01 0.03 0.04 0.04 0.05 0.07 0.08
0.06 0.09 0.13 0.12 0.08 0.05 0.05 0.05 0.07 0.09 0.13 0.18 0.22 0.20 0.15 0.15 0.16 0.09 0.03 0.01 0.01 0.01 0.01 0.00 0.01 0.01 0.00 0.00 0.00 0.00 0.00 0.00 0.00 0.00 0.01 0.01 0.02 0.03 0.04 0.05 0.07 0.10 0.11
0.10 0.13 0.18 0.17 0.12 0.08 0.06 0.07 0.08 0.09 0.14 0.18 0.21 0.20 0.16 0.15 0.13 0.09 0.05 0.01 0.01 0.01 0.01 0.01 0.01 0.02 0.01 0.01 0.01 0.00 0.00 0.00 0.00 0.00 0.01 0.01 0.02 0.04 0.05 0.07 0.10 0.11 0.12
0.22 0.27 0.28 0.23 0.16 0.11 0.09 0.08 0.07 0.09 0.15 0.19 0.19 0.19 0.15 0.11 0.10 0.11 0.08 0.03 0.01 0.01 0.02 0.02 0.03 0.03 0.02 0.02 0.01 0.00 0.00 0.00 0.00 0.00 0.00 0.01 0.02 0.06 0.07 0.08 0.09 0.10 0.11
0.50 0.50 0.44 0.34 0.22 0.17 0.14 0.11 0.08 0.09 0.14 0.18 0.18 0.17 0.12 0.07 0.05 0.07 0.08 0.06 0.03 0.03 0.03 0.03 0.03 0.03 0.03 0.01 0.01 0.00 0.00 0.00 0.00 0.00 0.00 0.01 0.04 0.08 0.11 0.12 0.13 0.14 0.13
0.86 0.81 0.63 0.45 0.29 0.21 0.17 0.13 0.09 0.09 0.12 0.16 0.14 0.11 0.07 0.04 0.03 0.03 0.02 0.03 0.02 0.02 0.02 0.03 0.03 0.04 0.02 0.00 0.00 0.00 0.00 0.00 0.00 0.00 0.00 0.02 0.08 0.15 0.16 0.17 0.18 0.17 0.14
1.11 1.09 0.96 0.68 0.44 0.28 0.19 0.13 0.11 0.10 0.12 0.13 0.10 0.07 0.04 0.03 0.02 0.01 0.00 0.00 0.01 0.01 0.01 0.02 0.02 0.01 0.00 0.00 0.00 0.00 0.00 0.00 0.00 0.00 0.01 0.04 0.11 0.14 0.13 0.13 0.12 0.09 0.08
1.23 1.17 1.14 0.93 0.65 0.42 0.28 0.18 0.14 0.10 0.10 0.09 0.07 0.05 0.03 0.02 0.01 0.01 0.00 0.00 0.01 0.01 0.00 0.00 0.00 0.00 0.00 0.00 0.00 0.00 0.00 0.00 0.00 0.00 0.01 0.02 0.05 0.07 0.06 0.05 0.04 0.04 0.04
1.36 1.30 1.26 1.16 0.90 0.63 0.41 0.25 0.18 0.12 0.11 0.09 0.06 0.05 0.03 0.01 0.01 0.01 0.01 0.01 0.01 0.00 0.00 0.00 0.00 0.00 0.00 0.00 0.00 0.00 0.00 0.00 0.00 0.00 0.00 0.00 0.02 0.03 0.04 0.03 0.03 0.04 0.04
1.50 1.38 1.36 1.28 1.09 0.88 0.62 0.38 0.22 0.14 0.12 0.09 0.06 0.06 0.04 0.01 0.01 0.01 0.02 0.01 0.01 0.00 0.00 0.00 0.00 0.00 0.00 0.00 0.00 0.00 0.00 0.00 0.00 0.00 0.00 0.00 0.00 0.02 0.02 0.03 0.04 0.06 0.07
1.52 1.49 1.42 1.32 1.17 1.03 0.88 0.62 0.37 0.22 0.16 0.12 0.09 0.06 0.04 0.03 0.01 0.01 0.01 0.01 0.01 0.00 0.00 0.00 0.00 0.00 0.00 0.00 0.00 0.00 0.00 0.00 0.00 0.00 0.00 0.00 0.00 0.01 0.01 0.02 0.06 0.09 0.10
1.39 1.47 1.48 1.35 1.22 1.08 0.97 0.85 0.61 0.39 0.25 0.20 0.15 0.11 0.07 0.04 0.03 0.01 0.01 0.01 0.01 0.00 0.00 0.00 0.00 0.00 0.00 0.00 0.00 0.00 0.00 0.00 0.00 0.00 0.00 0.00 0.00 0.00 0.01 0.03 0.05 0.09 0.13
1.23 1.35 1.43 1.44 1.33 1.15 1.03 0.99 0.83 0.61 0.41 0.27 0.20 0.15 0.10 0.07 0.05 0.02 0.01 0.01 0.01 0.02 0.01 0.01 0.01 0.00 0.00 0.00 0.00 0.00 0.00 0.00 0.00 0.00 0.00 0.00 0.00 0.00 0.00 0.02 0.05 0.09 0.14
1.13 1.23 1.30 1.35 1.37 1.24 1.08 1.06 1.02 0.83 0.61 0.41 0.28 0.19 0.14 0.10 0.07 0.04 0.03 0.03 0.03 0.04 0.04 0.04 0.03 0.02 0.02 0.01 0.01 0.01 0.02 0.01 0.01 0.00 0.00 0.00 0.00 0.00 0.00 0.01 0.03 0.07 0.10
1.04 1.15 1.25 1.26 1.31 1.33 1.34 1.25 1.13 1.02 0.82 0.60 0.42 0.26 0.20 0.17 0.15 0.11 0.06 0.07 0.07 0.07 0.08 0.08 0.06 0.06 0.05 0.05 0.05 0.04 0.03 0.02 0.02 0.01 0.01 0.01 0.01 0.01 0.01 0.01 0.01 0.02 0.03
1.07 1.19 1.29 1.28 1.38 1.47 1.57 1.52 1.37 1.17 0.98 0.81 0.61 0.43 0.34 0.28 0.27 0.21 0.14 0.12 0.11 0.09 0.09 0.10 0.12 0.11 0.09 0.10 0.09 0.05 0.03 0.02 0.02 0.01 0.01 0.02 0.02 0.02 0.02 0.01 0.01 0.01 0.01
1.18 1.21 1.29 1.34 1.41 1.48 1.47 1.35 1.23 1.11 1.02 0.91 0.76 0.69 0.58 0.49 0.45 0.36 0.25 0.20 0.19 0.16 0.15 0.18 0.20 0.17 0.16 0.17 0.13 0.06 0.03 0.02 0.02 0.02 0.02 0.02 0.02 0.03 0.02 0.03 0.02 0.02 0.02
1.19 1.19 1.28 1.35 1.39 1.40 1.41 1.44 1.39 1.41 1.31 1.18 1.03 0.92 0.81 0.71 0.65 0.57 0.48 0.43 0.38 0.33 0.27 0.26 0.25 0.22 0.22 0.24 0.22 0.17 0.07 0.03 0.03 0.03 0.03 0.03 0.03 0.03 0.04 0.04 0.04 0.03 0.02
1.04 1.20 1.25 1.31 1.36 1.40 1.58 1.87 1.81 1.67 1.54 1.39 1.23 1.11 1.02 0.96 0.90 0.79 0.72 0.68 0.60 0.50 0.42 0.41 0.42 0.38 0.35 0.33 0.30 0.28 0.17 0.08 0.06 0.04 0.03 0.03 0.03 0.03 0.03 0.04 0.03 0.03 0.03
0.82 1.03 1.28 1.36 1.45 1.57 1.76 1.91 1.91 1.65 1.43 1.32 1.28 1.28 1.23 1.11 1.06 1.00 0.95 0.87 0.79 0.70 0.60 0.56 0.55 0.53 0.48 0.40 0.34 0.28 0.27 0.20 0.16 0.09 0.05 0.05 0.04 0.03 0.04 0.04 0.05 0.04 0.04
0.69 0.83 1.08 1.30 1.39 1.58 1.73 1.80 1.88 1.68 1.40 1.33 1.31 1.25 1.21 1.12 1.03 0.98 0.94 0.90 0.83 0.75 0.71 0.67 0.62 0.59 0.52 0.46 0.40 0.37 0.34 0.25 0.18 0.17 0.11 0.07 0.07 0.06 0.06 0.05 0.05 0.06 0.06
0.57 0.65 0.80 0.98 1.07 1.22 1.39 1.55 1.67 1.66 1.52 1.38 1.27 1.18 1.11 1.06 1.01 0.95 0.92 0.84 0.78 0.73 0.71 0.71 0.69 0.65 0.59 0.51 0.43 0.40 0.38 0.32 0.23 0.21 0.20 0.14 0.12 0.09 0.08 0.07 0.07 0.08 0.09

GEFSSE_prec_meanprecacc_096.txt.gz
Total_Precipitation_Accumulation
0.00 0.03 0.11 0.07 0.05 0.05 0.05 0.05 0.07 0.07 0.10 0.14 0.17 0.18 0.19 0.20 0.19 0.16 0.17 0.17 0.18 0.19 0.21 0.25 0.26 0.24 0.22 0.21 0.18 0.10 0.05 0.03 0.02 0.02 0.02 0.04 0.05 0.05 0.05 0.05 0.07 0.09 0.11
0.00 0.03 0.09 0.07 0.07 0.07 0.07 0.06 0.06 0.07 0.10 0.16 0.22 0.22 0.20 0.19 0.19 0.17 0.14 0.14 0.14 0.18 0.23 0.24 0.18 0.11 0.06 0.04 0.03 0.03 0.02 0.01 0.00 0.00 0.00 0.01 0.02 0.03 0.03 0.03 0.05 0.08 0.09
0.00 0.03 0.08 0.09 0.08 0.08 0.07 0.06 0.05 0.07 0.11 0.17 0.23 0.21 0.20 0.16 0.15 0.15 0.12 0.12 0.12 0.14 0.16 0.13 0.07 0.04 0.02 0.01 0.01 0.00 0.00 0.00 0.00 0.00 0.00 0.01 0.01 0.02 0.02 0.02 0.04 0.05 0.07
0.01 0.03 0.06 0.10 0.08 0.07 0.07 0.06 0.06 0.08 0.12 0.16 0.23 0.22 0.20 0.16 0.17 0.15 0.12 0.08 0.07 0.06 0.05 0.03 0.02 0.01 0.01 0.00 0.00 0.00 0.00 0.00 0.00 0.00 0.00 0.01 0.01 0.02 0.03 0.03 0.04 0.05 0.07
0.03 0.05 0.08 0.11 0.08 0.06 0.07 0.06 0.07 0.09 0.13 0.19 0.23 0.23 0.18 0.17 0.17 0.11 0.07 0.03 0.03 0.03 0.02 0.01 0.01 0.00 0.00 0.00 0.01 0.01 0.01 0.00 0.00 0.00 0.00 0.01 0.01 0.03 0.04 0.04 0.06 0.07 0.09
0.06 0.09 0.14 0.13 0.09 0.07 0.06 0.06 0.09 0.10 0.15 0.20 0.25 0.23 0.17 0.18 0.20 0.13 0.06 0.02 0.02 0.02 0.01 0.01 0.01 0.01 0.01 0.00 0.00 0.00 0.00 0.00 0.00 0.00 0.01 0.01 0.02 0.04 0.04 0.05 0.08 0.10 0.12
0.12 0.16 0.21 0.20 0.16 0.12 0.08 0.08 0.09 0.11 0.16 0.21 0.24 0.23 0.19 0.18 0.17 0.13 0.08 0.03 0.02 0.02 0.01 0.01 0.02 0.02 0.01 0.01 0.01 0.00 0.00 0.00 0.00 0.00 0.01 0.01 0.02 0.04 0.05 0.07 0.10 0.12 0.12
0.28 0.32 0.33 0.29 0.21 0.16 0.15 0.13 0.11 0.12 0.18 0.22 0.22 0.23 0.21 0.16 0.14 0.15 0.11 0.04 0.02 0.02 0.02 0.02 0.03 0.03 0.02 0.02 0.01 0.00 0.00 0.00 0.00 0.00 0.00 0.01 0.02 0.06 0.07 0.08 0.09 0.10 0.11
0.60 0.62 0.55 0.43 0.30 0.24 0.21 0.16 0.13 0.14 0.19 0.23 0.23 0.22 0.20 0.15 0.11 0.10 0.11 0.07 0.05 0.04 0.03 0.03 0.03 0.03 0.03 0.01 0.01 0.00 0.00 0.00 0.00 0.00 0.00 0.01 0.04 0.08 0.11 0.12 0.14 0.14 0.13
0.97 0.95 0.81 0.64 0.43 0.32 0.26 0.20 0.16 0.16 0.19 0.22 0.21 0.17 0.14 0.12 0.11 0.08 0.05 0.05 0.04 0.03 0.03 0.03 0.03 0.04 0.02 0.00 0.00 0.00 0.00 0.00 0.00 0.00 0.00 0.02 0.08 0.15 0.16 0.17 0.18 0.17 0.14
1.21 1.22 1.13 0.88 0.64 0.44 0.33 0.23 0.19 0.17 0.20 0.21 0.17 0.13 0.11 0.09 0.10 0.08 0.04 0.02 0.02 0.02 0.02 0.02 0.02 0.02 0.00 0.00 0.00 0.00 0.00 0.00 0.00 0.00 0.01 0.04 0.11 0.14 0.13 0.13 0.12 0.09 0.08
1.29 1.28 1.28 1.12 0.85 0.61 0.44 0.30 0.23 0.18 0.18 0.17 0.14 0.13 0.10 0.08 0.08 0.06 0.04 0.02 0.02 0.02 0.01 0.01 0.00 0.00 0.00 0.00 0.00 0.00 0.00 0.00 0.00 0.00 0.01 0.02 0.05 0.07 0.06 0.05 0.04 0.04 0.04
1.41 1.38 1.40 1.35 1.10 0.81 0.57 0.39 0.30 0.23 0.21 0.17 0.14 0.14 0.11 0.09 0.07 0.06 0.05 0.05 0.03 0.01 0.01 0.00 0.00 0.00 0.00 0.00 0.00 0.00 0.00 0.00 0.00 0.00 0.00 0.00 0.02 0.04 0.04 0.03 0.03 0.04 0.04
1.53 1.43 1.45 1.45 1.28 1.06 0.77 0.53 0.37 0.28 0.24 0.20 0.16 0.15 0.14 0.10 0.07 0.05 0.05 0.05 0.03 0.01 0.00 0.00 0.00 0.00 0.00 0.00 0.00 0.00 0.00 0.00 0.00 0.00 0.00 0.00 0.01 0.02 0.03 0.03 0.05 0.06 0.07
1.52 1.51 1.48 1.42 1.33 1.21 1.05 0.77 0.51 0.37 0.31 0.27 0.22 0.16 0.14 0.13 0.10 0.07 0.05 0.04 0.02 0.01 0.00 0.00 0.00 0.00 0.00 0.00 0.00 0.00 0.00 0.00 0.00 0.00 0.00 0.00 0.00 0.01 0.02 0.03 0.06 0.09 0.11
1.39 1.48 1.51 1.41 1.31 1.20 1.14 1.01 0.76 0.54 0.40 0.37 0.33 0.25 0.18 0.15 0.15 0.11 0.06 0.03 0.02 0.01 0.00 0.00 0.00 0.00 0.00 0.00 0.00 0.00 0.00 0.00 0.00 0.00 0.00 0.00 0.00 0.00 0.01 0.03 0.06 0.09 0.13
1.23 1.35 1.45 1.49 1.42 1.26 1.15 1.14 0.98 0.77 0.57 0.43 0.37 0.34 0.26 0.19 0.16 0.14 0.10 0.05 0.03 0.02 0.01 0.01 0.01 0.00 0.00 0.00 0.00 0.00 0.00 0.00 0.00 0.00 0.00 0.00 0.00 0.00 0.00 0.02 0.05 0.09 0.15
1.13 1.23 1.32 1.39 1.42 1.36 1.22 1.19 1.15 0.96 0.76 0.57 0.44 0.36 0.32 0.26 0.21 0.16 0.12 0.09 0.07 0.06 0.04 0.04 0.03 0.02 0.02 0.01 0.01 0.01 0.02 0.01 0.01 0.00 0.00 0.00 0.00 0.00 0.00 0.01 0.03 0.07 0.11
1.05 1.17 1.28 1.30 1.35 1.40 1.44 1.36 1.24 1.13 0.94 0.74 0.58 0.42 0.36 0.34 0.30 0.24 0.17 0.14 0.12 0.10 0.09 0.09 0.07 0.06 0.05 0.05 0.05 0.04 0.03 0.02 0.02 0.01 0.01 0.01 0.01 0.01 0.01 0.01 0.01 0.02 0.04
1.09 1.20 1.33 1.33 1.43 1.53 1.65 1.61 1.45 1.26 1.08 0.92 0.73 0.56 0.48 0.44 0.43 0.36 0.26 0.22 0.18 0.13 0.11 0.11 0.12 0.12 0.10 0.10 0.09 0.05 0.04 0.03 0.02 0.01 0.01 0.02 0.02 0.02 0.02 0.01 0.01 0.02 0.02
1.21 1.24 1.35 1.40 1.48 1.55 1.55 1.44 1.31 1.19 1.11 1.03 0.89 0.81 0.71 0.62 0.59 0.52 0.40 0.32 0.28 0.21 0.17 0.20 0.21 0.18 0.16 0.18 0.14 0.07 0.04 0.03 0.02 0.02 0.02 0.03 0.02 0.03 0.03 0.03 0.03 0.02 0.02
1.23 1.24 1.36 1.43 1.47 1.48 1.50 1.56 1.50 1.51 1.41 1.31 1.20 1.10 0.97 0.87 0.81 0.72 0.63 0.56 0.50 0.42 0.33 0.29 0.28 0.24 0.23 0.26 0.23 0.18 0.08 0.04 0.03 0.04 0.04 0.03 0.03 0.04 0.04 0.05 0.04 0.03 0.03
1.10 1.28 1.35 1.41 1.46 1.49 1.68 2.01 1.95 1.82 1.69 1.55 1.41 1.30 1.20 1.13 1.08 0.96 0.88 0.84 0.75 0.62 0.51 0.47 0.46 0.41 0.37 0.35 0.32 0.31 0.19 0.09 0.07 0.05 0.04 0.04 0.04 0.04 0.04 0.05 0.04 0.04 0.03
0.91 1.14 1.40 1.48 1.57 1.69 1.87 2.04 2.06 1.81 1.59 1.47 1.46 1.44 1.41 1.29 1.23 1.18 1.12 1.04 0.97 0.85 0.71 0.65 0.62 0.59 0.53 0.45 0.39 0.32 0.30 0.22 0.18 0.11 0.06 0.06 0.05 0.04 0.05 0.06 0.06 0.05 0.05
0.82 0.96 1.22 1.44 1.51 1.70 1.85 1.92 2.02 1.84 1.56 1.49 1.49 1.43 1.40 1.31 1.20 1.16 1.13 1.06 0.98 0.90 0.84 0.78 0.72 0.67 0.58 0.52 0.46 0.43 0.41 0.31 0.23 0.21 0.13 0.08 0.08 0.08 0.07 0.07 0.07 0.07 0.07
0.73 0.81 0.94 1.12 1.20 1.34 1.51 1.69 1.82 1.82 1.69 1.55 1.44 1.37 1.31 1.27 1.19 1.13 1.10 1.03 0.95 0.88 0.84 0.83 0.80 0.75 0.67 0.59 0.51 0.48 0.46 0.40 0.31 0.28 0.26 0.18 0.15 0.12 0.10 0.09 0.09 0.09 0.10

GEFSSE_prec_meanprecacc_102.txt.gz
Total_Precipitation_Accumulation
0.00 0.04 0.12 0.08 0.06 0.06 0.06 0.06 0.07 0.08 0.11 0.15 0.19 0.20 0.20 0.21 0.20 0.16 0.18 0.17 0.18 0.19 0.22 0.26 0.26 0.25 0.23 0.22 0.19 0.11 0.06 0.04 0.03 0.03 0.03 0.05 0.06 0.06 0.05 0.06 0.08 0.10 0.13
0.00 0.03 0.11 0.09 0.08 0.08 0.08 0.07 0.07 0.08 0.11 0.17 0.24 0.24 0.21 0.20 0.19 0.17 0.14 0.14 0.15 0.18 0.25 0.25 0.19 0.12 0.08 0.06 0.04 0.04 0.03 0.02 0.00 0.00 0.00 0.01 0.02 0.03 0.03 0.03 0.06 0.09 0.11
0.00 0.04 0.10 0.11 0.10 0.10 0.09 0.07 0.06 0.08 0.12 0.18 0.25 0.23 0.21 0.17 0.16 0.16 0.12 0.12 0.13 0.16 0.17 0.14 0.09 0.05 0.03 0.02 0.01 0.01 0.01 0.00 0.00 0.00 0.00 0.01 0.01 0.02 0.02 0.03 0.05 0.06 0.08
0.01 0.04 0.08 0.13 0.11 0.09 0.09 0.08 0.07 0.09 0.13 0.18 0.25 0.24 0.21 0.18 0.19 0.16 0.13 0.09 0.08 0.08 0.06 0.05 0.04 0.02 0.01 0.01 0.01 0.01 0.00 0.00 0.00 0.00 0.00 0.01 0.01 0.03 0.04 0.04 0.04 0.06 0.08
0.04 0.05 0.10 0.14 0.12 0.10 0.09 0.09 0.10 0.12 0.15 0.20 0.25 0.25 0.20 0.19 0.18 0.14 0.09 0.05 0.04 0.04 0.03 0.02 0.02 0.01 0.01 0.01 0.01 0.01 0.01 0.00 0.00 0.00 0.00 0.01 0.02 0.04 0.05 0.05 0.06 0.08 0.09
0.07 0.10 0.16 0.18 0.16 0.14 0.12 0.11 0.12 0.14 0.18 0.23 0.28 0.27 0.21 0.21 0.21 0.15 0.08 0.04 0.03 0.03 0.02 0.01 0.02 0.01 0.01 0.01 0.01 0.00 0.00 0.00 0.00 0.00 0.01 0.01 0.02 0.04 0.05 0.06 0.08 0.10 0.12
0.12 0.17 0.23 0.26 0.24 0.21 0.18 0.17 0.16 0.17 0.22 0.27 0.29 0.27 0.23 0.22 0.21 0.16 0.11 0.05 0.03 0.03 0.03 0.02 0.02 0.02 0.02 0.01 0.01 0.00 0.00 0.00 0.00 0.00 0.01 0.01 0.02 0.04 0.06 0.07 0.10 0.12 0.13
0.28 0.34 0.36 0.36 0.31 0.27 0.25 0.24 0.21 0.22 0.26 0.29 0.29 0.28 0.26 0.21 0.20 0.19 0.14 0.07 0.05 0.04 0.04 0.03 0.03 0.03 0.02 0.02 0.01 0.00 0.00 0.00 0.00 0.00 0.00 0.01 0.02 0.06 0.07 0.08 0.10 0.11 0.11
0.62 0.65 0.60 0.50 0.39 0.36 0.32 0.26 0.22 0.24 0.29 0.33 0.33 0.32 0.28 0.25 0.22 0.19 0.16 0.11 0.08 0.07 0.06 0.05 0.03 0.03 0.03 0.01 0.01 0.00 0.00 0.00 0.00 0.00 0.00 0.01 0.04 0.09 0.11 0.12 0.14 0.14 0.13
0.99 0.98 0.86 0.71 0.53 0.44 0.38 0.32 0.25 0.24 0.28 0.32 0.32 0.28 0.23 0.20 0.21 0.19 0.13 0.11 0.09 0.08 0.06 0.04 0.04 0.04 0.02 0.01 0.00 0.00 0.00 0.00 0.00 0.00 0.00 0.02 0.08 0.15 0.16 0.17 0.19 0.17 0.15
1.22 1.25 1.17 0.95 0.73 0.56 0.44 0.34 0.30 0.27 0.28 0.29 0.27 0.22 0.20 0.18 0.19 0.17 0.11 0.07 0.07 0.08 0.06 0.05 0.04 0.02 0.00 0.00 0.00 0.00 0.00 0.00 0.00 0.00 0.01 0.04 0.11 0.15 0.13 0.13 0.12 0.10 0.08
1.30 1.29 1.31 1.16 0.91 0.70 0.54 0.41 0.34 0.28 0.27 0.25 0.21 0.21 0.18 0.17 0.17 0.14 0.12 0.10 0.08 0.07 0.06 0.05 0.03 0.01 0.00 0.00 0.00 0.00 0.00 0.00 0.00 0.00 0.01 0.02 0.05 0.07 0.06 0.05 0.05 0.05 0.04
1.41 1.38 1.41 1.37 1.13 0.87 0.63 0.46 0.39 0.31 0.29 0.26 0.22 0.20 0.18 0.18 0.18 0.16 0.14 0.14 0.12 0.08 0.07 0.05 0.03 0.02 0.01 0.00 0.00 0.00 0.00 0.00 0.00 0.00 0.00 0.00 0.02 0.04 0.05 0.04 0.03 0.04 0.05
1.53 1.43 1.45 1.46 1.30 1.09 0.81 0.57 0.42 0.33 0.30 0.27 0.24 0.24 0.23 0.19 0.16 0.15 0.14 0.13 0.12 0.09 0.07 0.05 0.03 0.02 0.01 0.00 0.00 0.00 0.00 0.00 0.00 0.00 0.00 0.00 0.01 0.02 0.03 0.04 0.05 0.07 0.07
1.52 1.51 1.48 1.42 1.33 1.23 1.08 0.80 0.54 0.41 0.35 0.33 0.30 0.27 0.26 0.24 0.20 0.17 0.15 0.13 0.10 0.08 0.06 0.04 0.02 0.02 0.01 0.00 0.00 0.00 0.00 0.00 0.00 0.00 0.00 0.00 0.00 0.01 0.02 0.03 0.07 0.10 0.12
1.39 1.48 1.51 1.41 1.32 1.21 1.15 1.04 0.80 0.57 0.45 0.43 0.41 0.34 0.29 0.28 0.28 0.24 0.18 0.15 0.11 0.08 0.05 0.04 0.03 0.02 0.01 0.00 0.00 0.00 0.00 0.00 0.00 0.00 0.00 0.00 0.00 0.00 0.01 0.03 0.07 0.11 0.15
1.23 1.35 1.45 1.49 1.43 1.26 1.17 1.16 1.02 0.83 0.63 0.48 0.44 0.42 0.37 0.32 0.29 0.27 0.23 0.18 0.14 0.12 0.09 0.06 0.04 0.02 0.01 0.01 0.00 0.00 0.00 0.00 0.00 0.00 0.00 0.00 0.00 0.00 0.01 0.02 0.05 0.10 0.16
1.13 1.23 1.32 1.39 1.43 1.37 1.24 1.22 1.19 1.03 0.84 0.64 0.50 0.43 0.40 0.36 0.34 0.31 0.26 0.22 0.20 0.18 0.16 0.12 0.08 0.05 0.03 0.02 0.01 0.01 0.02 0.01 0.01 0.00 0.00 0.00 0.00 0.00 0.00 0.01 0.04 0.08 0.12
1.05 1.17 1.28 1.30 1.36 1.41 1.47 1.41 1.29 1.20 1.01 0.81 0.65 0.49 0.44 0.43 0.41 0.38 0.31 0.28 0.24 0.21 0.20 0.18 0.13 0.09 0.07 0.06 0.05 0.04 0.03 0.02 0.02 0.01 0.01 0.01 0.01 0.01 0.01 0.01 0.01 0.02 0.04
1.09 1.21 1.34 1.34 1.45 1.55 1.67 1.64 1.50 1.32 1.14 0.98 0.80 0.62 0.55 0.52 0.52 0.46 0.39 0.36 0.31 0.24 0.20 0.19 0.19 0.16 0.13 0.12 0.10 0.05 0.04 0.03 0.02 0.01 0.01 0.02 0.02 0.02 0.02 0.01 0.01 0.02 0.02
1.22 1.26 1.37 1.42 1.51 1.58 1.57 1.47 1.34 1.22 1.16 1.08 0.93 0.86 0.76 0.69 0.68 0.62 0.52 0.45 0.42 0.34 0.27 0.27 0.28 0.24 0.22 0.21 0.16 0.07 0.04 0.03 0.02 0.02 0.02 0.03 0.03 0.03 0.03 0.03 0.03 0.03 0.02
1.24 1.27 1.40 1.46 1.50 1.51 1.54 1.59 1.53 1.54 1.45 1.35 1.25 1.14 1.02 0.93 0.89 0.82 0.75 0.69 0.64 0.56 0.46 0.40 0.37 0.32 0.30 0.31 0.27 0.20 0.09 0.04 0.03 0.04 0.04 0.04 0.04 0.04 0.04 0.05 0.05 0.04 0.03
1.14 1.34 1.41 1.46 1.50 1.53 1.72 2.05 1.99 1.87 1.74 1.61 1.47 1.36 1.25 1.18 1.15 1.04 0.98 0.96 0.89 0.77 0.65 0.59 0.56 0.51 0.47 0.43 0.38 0.35 0.21 0.10 0.07 0.05 0.04 0.04 0.04 0.04 0.05 0.06 0.05 0.05 0.04
0.98 1.23 1.50 1.57 1.64 1.75 1.92 2.11 2.12 1.87 1.65 1.54 1.52 1.52 1.48 1.35 1.30 1.25 1.21 1.15 1.08 0.99 0.85 0.77 0.73 0.68 0.62 0.53 0.46 0.37 0.33 0.24 0.19 0.12 0.06 0.06 0.06 0.05 0.06 0.06 0.07 0.07 0.07
0.92 1.08 1.34 1.56 1.62 1.79 1.93 2.01 2.12 1.91 1.64 1.60 1.58 1.52 1.49 1.40 1.28 1.25 1.23 1.18 1.08 1.01 0.95 0.89 0.84 0.78 0.68 0.60 0.54 0.50 0.46 0.35 0.26 0.23 0.15 0.09 0.09 0.08 0.09 0.09 0.09 0.10 0.10
0.82 0.92 1.08 1.27 1.34 1.46 1.62 1.79 1.93 1.94 1.80 1.66 1.55 1.48 1.43 1.38 1.30 1.23 1.19 1.13 1.06 0.99 0.95 0.94 0.91 0.86 0.77 0.68 0.58 0.54 0.52 0.46 0.35 0.32 0.30 0.21 0.17 0.13 0.12 0.11 0.12 0.12 0.13

GEFSSE_prec_meanprecacc_108.txt.gz
Total_Precipitation_Accumulation
0.01 0.04 0.13 0.10 0.08 0.07 0.07 0.08 0.09 0.10 0.12 0.17 0.20 0.22 0.22 0.22 0.20 0.17 0.19 0.18 0.19 0.20 0.22 0.27 0.27 0.25 0.24 0.23 0.20 0.12 0.07 0.05 0.05 0.05 0.04 0.05 0.07 0.07 0.06 0.07 0.09 0.11 0.14
0.01 0.04 0.12 0.11 0.11 0.10 0.09 0.09 0.10 0.10 0.13 0.19 0.27 0.26 0.23 0.21 0.20 0.18 0.15 0.15 0.15 0.19 0.26 0.26 0.20 0.14 0.10 0.07 0.05 0.04 0.04 0.03 0.01 0.01 0.00 0.01 0.02 0.03 0.04 0.05 0.07 0.10 0.11
0.01 0.04 0.11 0.12 0.13 0.13 0.11 0.09 0.08 0.10 0.14 0.21 0.29 0.28 0.24 0.19 0.17 0.16 0.13 0.13 0.14 0.17 0.19 0.17 0.11 0.07 0.05 0.05 0.03 0.01 0.01 0.00 0.00 0.00 0.01 0.01 0.01 0.02 0.03 0.03 0.05 0.07 0.09
0.02 0.04 0.10 0.14 0.13 0.12 0.11 0.11 0.10 0.13 0.17 0.22 0.28 0.28 0.25 0.22 0.22 0.19 0.15 0.10 0.09 0.09 0.09 0.09 0.07 0.04 0.02 0.02 0.01 0.01 0.01 0.00 0.00 0.00 0.01 0.01 0.01 0.03 0.04 0.04 0.05 0.06 0.09
0.04 0.07 0.13 0.16 0.15 0.13 0.13 0.12 0.13 0.15 0.19 0.24 0.29 0.29 0.24 0.22 0.22 0.18 0.14 0.09 0.07 0.07 0.06 0.06 0.05 0.02 0.01 0.01 0.01 0.01 0.01 0.00 0.00 0.00 0.01 0.02 0.02 0.05 0.07 0.06 0.07 0.09 0.09
0.08 0.13 0.20 0.21 0.19 0.18 0.16 0.14 0.15 0.18 0.23 0.28 0.32 0.31 0.25 0.24 0.25 0.19 0.13 0.07 0.07 0.07 0.07 0.05 0.05 0.02 0.02 0.01 0.01 0.00 0.00 0.00 0.00 0.00 0.01 0.02 0.03 0.05 0.06 0.07 0.09 0.11 0.12
0.13 0.18 0.27 0.28 0.27 0.26 0.23 0.22 0.21 0.23 0.29 0.33 0.35 0.32 0.28 0.26 0.26 0.22 0.16 0.08 0.06 0.06 0.07 0.05 0.04 0.03 0.02 0.02 0.01 0.01 0.00 0.00 0.00 0.00 0.01 0.02 0.03 0.05 0.07 0.08 0.11 0.13 0.13
0.29 0.35 0.39 0.38 0.33 0.31 0.30 0.28 0.25 0.28 0.35 0.38 0.36 0.35 0.31 0.27 0.26 0.25 0.19 0.11 0.08 0.08 0.09 0.07 0.06 0.04 0.03 0.02 0.01 0.00 0.00 0.00 0.00 0.00 0.00 0.01 0.03 0.07 0.08 0.08 0.10 0.11 0.11
0.62 0.66 0.62 0.54 0.43 0.38 0.34 0.29 0.27 0.29 0.36 0.41 0.41 0.40 0.36 0.33 0.29 0.26 0.22 0.16 0.12 0.11 0.10 0.08 0.06 0.04 0.03 0.02 0.01 0.00 0.00 0.00 0.00 0.00 0.00 0.01 0.04 0.09 0.11 0.12 0.14 0.14 0.14
0.99 0.99 0.87 0.74 0.58 0.50 0.44 0.35 0.29 0.29 0.33 0.38 0.38 0.35 0.30 0.26 0.27 0.25 0.18 0.17 0.16 0.14 0.11 0.08 0.06 0.06 0.03 0.01 0.01 0.00 0.00 0.00 0.00 0.00 0.00 0.02 0.08 0.16 0.17 0.17 0.19 0.18 0.15
1.22 1.25 1.18 0.96 0.76 0.61 0.52 0.40 0.34 0.31 0.31 0.34 0.34 0.28 0.24 0.23 0.25 0.22 0.15 0.10 0.11 0.14 0.12 0.10 0.07 0.04 0.02 0.01 0.01 0.00 0.00 0.00 0.00 0.00 0.01 0.04 0.11 0.15 0.14 0.13 0.12 0.10 0.09
1.30 1.29 1.31 1.17 0.93 0.73 0.59 0.48 0.42 0.34 0.32 0.29 0.26 0.26 0.23 0.22 0.23 0.21 0.18 0.15 0.13 0.12 0.11 0.10 0.07 0.05 0.03 0.01 0.00 0.00 0.00 0.00 0.00 0.00 0.01 0.02 0.05 0.07 0.07 0.06 0.05 0.05 0.05
1.41 1.38 1.41 1.38 1.14 0.89 0.68 0.51 0.45 0.38 0.35 0.32 0.26 0.24 0.24 0.26 0.28 0.27 0.26 0.23 0.20 0.13 0.13 0.11 0.08 0.04 0.02 0.01 0.01 0.00 0.00 0.00 0.00 0.00 0.00 0.00 0.02 0.04 0.05 0.04 0.04 0.05 0.05
1.53 1.43 1.45 1.46 1.31 1.10 0.83 0.61 0.47 0.39 0.36 0.32 0.29 0.29 0.31 0.29 0.27 0.27 0.27 0.23 0.22 0.16 0.14 0.11 0.07 0.04 0.02 0.01 0.01 0.00 0.00 0.00 0.00 0.00 0.00 0.00 0.01 0.02 0.04 0.04 0.06 0.07 0.08
1.52 1.51 1.48 1.42 1.33 1.23 1.09 0.83 0.58 0.45 0.41 0.38 0.34 0.32 0.32 0.32 0.29 0.29 0.28 0.25 0.21 0.19 0.16 0.12 0.09 0.07 0.04 0.02 0.01 0.01 0.00 0.00 0.00 0.00 0.00 0.00 0.00 0.01 0.02 0.04 0.08 0.11 0.12
1.39 1.48 1.51 1.41 1.32 1.21 1.16 1.06 0.82 0.61 0.49 0.47 0.45 0.38 0.34 0.34 0.34 0.33 0.30 0.29 0.25 0.22 0.20 0.17 0.14 0.12 0.09 0.06 0.03 0.01 0.01 0.00 0.00 0.00 0.00 0.00 0.00 0.00 0.01 0.04 0.08 0.12 0.17
1.23 1.35 1.45 1.49 1.43 1.27 1.17 1.17 1.04 0.86 0.67 0.52 0.49 0.47 0.43 0.39 0.36 0.35 0.33 0.28 0.26 0.26 0.25 0.24 0.21 0.18 0.13 0.10 0.06 0.04 0.03 0.01 0.00 0.00 0.00 0.00 0.00 0.00 0.01 0.02 0.06 0.11 0.17
1.13 1.23 1.32 1.39 1.43 1.37 1.25 1.23 1.21 1.05 0.87 0.68 0.56 0.50 0.47 0.45 0.44 0.41 0.36 0.32 0.30 0.31 0.31 0.28 0.23 0.20 0.16 0.12 0.09 0.06 0.05 0.03 0.01 0.01 0.01 0.00 0.00 0.00 0.00 0.01 0.04 0.08 0.13
1.05 1.17 1.28 1.30 1.36 1.42 1.48 1.42 1.30 1.22 1.04 0.85 0.70 0.56 0.51 0.51 0.51 0.49 0.43 0.39 0.37 0.33 0.33 0.32 0.26 0.21 0.18 0.15 0.13 0.11 0.08 0.05 0.03 0.02 0.01 0.01 0.01 0.01 0.01 0.01 0.01 0.03 0.04
1.09 1.21 1.34 1.34 1.45 1.56 1.68 1.66 1.53 1.36 1.18 1.03 0.85 0.68 0.62 0.61 0.62 0.56 0.49 0.49 0.47 0.41 0.35 0.33 0.32 0.27 0.22 0.19 0.16 0.11 0.08 0.06 0.04 0.02 0.02 0.02 0.02 0.02 0.02 0.02 0.01 0.02 0.02
1.22 1.26 1.37 1.43 1.52 1.62 1.62 1.49 1.37 1.26 1.20 1.13 0.99 0.93 0.83 0.77 0.78 0.75 0.66 0.60 0.58 0.51 0.44 0.44 0.46 0.41 0.35 0.32 0.25 0.15 0.09 0.06 0.04 0.03 0.03 0.03 0.03 0.03 0.03 0.03 0.03 0.03 0.03
1.25 1.29 1.42 1.49 1.51 1.54 1.58 1.63 1.58 1.59 1.50 1.40 1.29 1.20 1.08 1.02 1.00 0.96 0.90 0.85 0.80 0.71 0.62 0.57 0.56 0.50 0.46 0.46 0.40 0.32 0.18 0.10 0.07 0.05 0.05 0.04 0.04 0.04 0.04 0.06 0.05 0.04 0.03
1.16 1.36 1.44 1.49 1.53 1.55 1.75 2.10 2.05 1.93 1.79 1.65 1.52 1.41 1.30 1.25 1.23 1.14 1.11 1.11 1.05 0.92 0.80 0.74 0.72 0.66 0.61 0.58 0.52 0.48 0.32 0.18 0.12 0.08 0.06 0.05 0.04 0.04 0.05 0.06 0.06 0.05 0.04
1.00 1.25 1.53 1.60 1.67 1.78 1.96 2.17 2.20 1.94 1.72 1.59 1.57 1.57 1.53 1.41 1.37 1.34 1.31 1.27 1.23 1.16 1.00 0.92 0.89 0.84 0.77 0.69 0.60 0.49 0.42 0.32 0.26 0.16 0.09 0.07 0.07 0.05 0.06 0.07 0.07 0.07 0.07
0.94 1.11 1.37 1.59 1.66 1.83 1.97 2.07 2.20 1.99 1.72 1.68 1.66 1.58 1.56 1.47 1.37 1.36 1.34 1.29 1.20 1.15 1.11 1.07 1.00 0.94 0.84 0.74 0.66 0.60 0.55 0.43 0.33 0.29 0.19 0.11 0.10 0.09 0.09 0.10 0.10 0.11 0.11
0.85 0.96 1.12 1.30 1.39 1.51 1.67 1.85 2.00 2.01 1.89 1.76 1.64 1.56 1.51 1.48 1.42 1.38 1.36 1.28 1.19 1.11 1.06 1.06 1.05 0.99 0.91 0.82 0.73 0.68 0.64 0.56 0.43 0.39 0.35 0.25 0.20 0.15 0.13 0.13 0.14 0.14 0.15

GEFSSE_prec_meanprecacc_114.txt.gz
Total_Precipitation_Accumulation
0.01 0.05 0.14 0.12 0.11 0.10 0.09 0.10 0.11 0.11 0.13 0.17 0.21 0.22 0.23 0.22 0.21 0.18 0.19 0.18 0.19 0.20 0.23 0.27 0.28 0.26 0.25 0.23 0.20 0.13 0.08 0.06 0.06 0.06 0.05 0.06 0.08 0.08 0.07 0.08 0.10 0.12 0.15
0.01 0.05 0.13 0.12 0.13 0.12 0.12 0.11 0.12 0.11 0.14 0.20 0.27 0.27 0.24 0.21 0.21 0.19 0.15 0.15 0.16 0.19 0.26 0.27 0.20 0.14 0.10 0.08 0.06 0.05 0.05 0.04 0.02 0.01 0.01 0.02 0.03 0.05 0.05 0.05 0.08 0.11 0.12
0.01 0.05 0.13 0.15 0.15 0.15 0.12 0.10 0.10 0.12 0.16 0.23 0.30 0.30 0.25 0.20 0.18 0.18 0.14 0.14 0.14 0.17 0.20 0.18 0.12 0.09 0.06 0.06 0.03 0.02 0.01 0.01 0.00 0.00 0.01 0.01 0.02 0.03 0.03 0.04 0.06 0.08 0.10
0.02 0.05 0.11 0.17 0.16 0.14 0.13 0.12 0.12 0.15 0.19 0.24 0.31 0.31 0.28 0.23 0.23 0.21 0.17 0.12 0.11 0.11 0.10 0.11 0.08 0.05 0.03 0.03 0.02 0.01 0.01 0.00 0.00 0.00 0.01 0.01 0.01 0.04 0.05 0.05 0.06 0.08 0.10
0.06 0.08 0.15 0.19 0.18 0.16 0.16 0.14 0.15 0.18 0.22 0.26 0.31 0.31 0.26 0.24 0.23 0.19 0.16 0.11 0.09 0.09 0.08 0.08 0.07 0.04 0.02 0.01 0.02 0.01 0.01 0.00 0.00 0.00 0.01 0.02 0.02 0.05 0.07 0.07 0.09 0.10 0.10
0.09 0.15 0.23 0.23 0.22 0.21 0.19 0.17 0.18 0.20 0.25 0.30 0.34 0.32 0.26 0.26 0.27 0.21 0.15 0.09 0.08 0.08 0.08 0.08 0.07 0.05 0.03 0.02 0.01 0.01 0.00 0.00 0.00 0.00 0.01 0.02 0.03 0.06 0.06 0.07 0.10 0.12 0.13
0.14 0.20 0.29 0.30 0.30 0.28 0.26 0.25 0.25 0.26 0.32 0.36 0.38 0.36 0.31 0.29 0.29 0.24 0.18 0.10 0.08 0.07 0.09 0.07 0.07 0.05 0.03 0.02 0.02 0.01 0.00 0.00 0.00 0.00 0.01 0.02 0.03 0.05 0.07 0.08 0.11 0.13 0.13
0.30 0.36 0.41 0.40 0.36 0.33 0.32 0.30 0.28 0.32 0.39 0.42 0.40 0.39 0.35 0.31 0.29 0.28 0.22 0.13 0.10 0.09 0.11 0.09 0.08 0.06 0.04 0.02 0.01 0.01 0.00 0.00 0.00 0.00 0.00 0.01 0.03 0.08 0.09 0.09 0.10 0.11 0.12
0.62 0.66 0.63 0.56 0.45 0.41 0.36 0.32 0.29 0.32 0.40 0.45 0.45 0.44 0.40 0.36 0.33 0.30 0.25 0.18 0.14 0.13 0.12 0.10 0.08 0.06 0.04 0.02 0.01 0.00 0.00 0.00 0.00 0.00 0.00 0.01 0.04 0.09 0.12 0.12 0.14 0.14 0.14
0.99 0.99 0.88 0.75 0.60 0.53 0.47 0.37 0.32 0.32 0.37 0.41 0.42 0.39 0.35 0.30 0.30 0.28 0.21 0.19 0.18 0.17 0.14 0.11 0.08 0.07 0.04 0.02 0.01 0.00 0.00 0.00 0.00 0.00 0.00 0.02 0.08 0.16 0.17 0.17 0.19 0.18 0.15
1.22 1.25 1.19 0.97 0.77 0.62 0.54 0.42 0.37 0.34 0.35 0.36 0.37 0.31 0.28 0.27 0.27 0.24 0.17 0.12 0.13 0.16 0.14 0.13 0.09 0.07 0.04 0.02 0.01 0.00 0.00 0.00 0.00 0.00 0.01 0.04 0.11 0.15 0.14 0.13 0.13 0.10 0.09
1.30 1.29 1.31 1.18 0.94 0.74 0.61 0.50 0.45 0.37 0.35 0.32 0.28 0.28 0.25 0.24 0.25 0.22 0.21 0.17 0.15 0.15 0.14 0.14 0.10 0.08 0.05 0.02 0.01 0.01 0.00 0.00 0.00 0.00 0.01 0.02 0.05 0.07 0.07 0.06 0.05 0.05 0.05
1.41 1.38 1.41 1.38 1.15 0.90 0.69 0.53 0.47 0.40 0.38 0.35 0.28 0.25 0.25 0.28 0.29 0.29 0.28 0.27 0.23 0.17 0.16 0.15 0.12 0.06 0.04 0.02 0.01 0.00 0.00 0.00 0.00 0.00 0.00 0.00 0.02 0.04 0.06 0.05 0.04 0.05 0.05
1.53 1.43 1.45 1.46 1.31 1.10 0.84 0.62 0.49 0.40 0.38 0.36 0.31 0.30 0.32 0.31 0.29 0.29 0.29 0.27 0.26 0.20 0.18 0.14 0.10 0.06 0.04 0.03 0.02 0.01 0.00 0.00 0.00 0.00 0.00 0.00 0.01 0.02 0.04 0.05 0.06 0.07 0.08
1.52 1.51 1.48 1.42 1.34 1.23 1.09 0.83 0.59 0.47 0.43 0.41 0.39 0.36 0.36 0.35 0.32 0.33 0.31 0.30 0.26 0.25 0.22 0.17 0.13 0.10 0.07 0.04 0.03 0.02 0.01 0.00 0.00 0.00 0.00 0.00 0.00 0.01 0.03 0.04 0.08 0.12 0.13
1.39 1.48 1.51 1.41 1.32 1.21 1.16 1.06 0.83 0.62 0.52 0.51 0.48 0.42 0.40 0.39 0.38 0.37 0.35 0.36 0.32 0.31 0.29 0.26 0.22 0.20 0.15 0.11 0.07 0.05 0.03 0.02 0.01 0.01 0.01 0.00 0.00 0.00 0.01 0.04 0.08 0.12 0.17
1.23 1.35 1.45 1.49 1.43 1.27 1.18 1.18 1.04 0.87 0.68 0.54 0.52 0.51 0.48 0.44 0.41 0.40 0.38 0.34 0.33 0.35 0.36 0.38 0.36 0.32 0.25 0.20 0.15 0.11 0.08 0.06 0.04 0.03 0.02 0.01 0.00 0.00 0.01 0.03 0.06 0.11 0.18
1.13 1.23 1.32 1.39 1.43 1.37 1.25 1.23 1.21 1.05 0.87 0.69 0.58 0.53 0.51 0.50 0.51 0.50 0.45 0.39 0.37 0.40 0.41 0.39 0.37 0.36 0.31 0.26 0.22 0.19 0.15 0.11 0.08 0.07 0.05 0.03 0.01 0.01 0.01 0.02 0.04 0.08 0.14
1.05 1.17 1.28 1.30 1.36 1.42 1.48 1.42 1.31 1.22 1.05 0.86 0.72 0.58 0.55 0.57 0.58 0.58 0.52 0.48 0.46 0.44 0.43 0.42 0.37 0.33 0.31 0.28 0.28 0.25 0.21 0.16 0.11 0.09 0.08 0.06 0.04 0.02 0.02 0.02 0.02 0.03 0.05
1.09 1.21 1.34 1.34 1.45 1.56 1.68 1.66 1.54 1.37 1.19 1.04 0.87 0.71 0.66 0.66 0.69 0.65 0.60 0.60 0.58 0.52 0.46 0.45 0.43 0.39 0.33 0.33 0.32 0.27 0.23 0.19 0.15 0.11 0.09 0.09 0.07 0.05 0.03 0.02 0.02 0.02 0.02
1.22 1.26 1.37 1.43 1.52 1.62 1.62 1.49 1.37 1.27 1.21 1.14 1.01 0.96 0.87 0.83 0.86 0.85 0.76 0.73 0.71 0.63 0.55 0.56 0.60 0.55 0.48 0.46 0.41 0.29 0.21 0.18 0.15 0.12 0.11 0.11 0.10 0.09 0.06 0.05 0.04 0.03 0.03
1.25 1.29 1.42 1.49 1.52 1.54 1.59 1.64 1.58 1.60 1.51 1.42 1.32 1.23 1.13 1.07 1.07 1.04 1.01 0.98 0.94 0.84 0.73 0.69 0.71 0.68 0.62 0.61 0.55 0.46 0.28 0.18 0.13 0.12 0.12 0.11 0.10 0.09 0.09 0.09 0.07 0.05 0.04
1.16 1.36 1.45 1.49 1.53 1.55 1.76 2.11 2.06 1.94 1.83 1.71 1.57 1.46 1.35 1.30 1.29 1.20 1.18 1.21 1.17 1.05 0.93 0.86 0.84 0.80 0.77 0.74 0.67 0.63 0.44 0.26 0.18 0.12 0.10 0.10 0.10 0.11 0.11 0.11 0.09 0.08 0.06
1.00 1.25 1.53 1.60 1.68 1.79 1.97 2.18 2.22 1.99 1.78 1.69 1.67 1.65 1.59 1.45 1.42 1.39 1.36 1.33 1.30 1.25 1.11 1.03 1.00 0.97 0.91 0.83 0.75 0.62 0.54 0.41 0.33 0.21 0.12 0.11 0.11 0.11 0.12 0.13 0.12 0.11 0.10
0.94 1.11 1.37 1.59 1.66 1.83 1.98 2.08 2.23 2.03 1.76 1.73 1.74 1.68 1.64 1.53 1.42 1.40 1.39 1.33 1.25 1.21 1.20 1.17 1.11 1.05 0.95 0.85 0.77 0.71 0.66 0.53 0.41 0.37 0.25 0.15 0.13 0.12 0.13 0.14 0.15 0.15 0.15
0.85 0.96 1.13 1.31 1.40 1.52 1.68 1.87 2.03 2.04 1.91 1.79 1.69 1.61 1.56 1.52 1.45 1.41 1.40 1.31 1.22 1.15 1.12 1.12 1.12 1.07 1.00 0.93 0.85 0.80 0.76 0.67 0.53 0.48 0.44 0.32 0.25 0.19 0.16 0.17 0.18 0.19 0.20

GEFSSE_prec_meanprecacc_120.txt.gz
Total_Precipitation_Accumulation
0.02 0.06 0.17 0.16 0.15 0.14 0.13 0.13 0.13 0.12 0.14 0.18 0.22 0.24 0.24 0.23 0.21 0.18 0.19 0.19 0.19 0.21 0.24 0.28 0.28 0.26 0.25 0.24 0.20 0.14 0.09 0.07 0.07 0.07 0.06 0.09 0.10 0.10 0.08 0.09 0.11 0.12 0.16
0.01 0.06 0.17 0.17 0.18 0.17 0.16 0.15 0.14 0.13 0.15 0.21 0.29 0.29 0.25 0.22 0.22 0.20 0.16 0.16 0.16 0.20 0.27 0.29 0.21 0.15 0.11 0.08 0.07 0.05 0.05 0.04 0.03 0.01 0.01 0.02 0.04 0.06 0.06 0.06 0.08 0.11 0.13
0.01 0.07 0.16 0.19 0.20 0.19 0.16 0.14 0.13 0.14 0.18 0.24 0.31 0.31 0.27 0.21 0.19 0.19 0.16 0.16 0.16 0.19 0.21 0.20 0.14 0.10 0.07 0.07 0.04 0.02 0.02 0.01 0.01 0.00 0.01 0.01 0.02 0.03 0.03 0.04 0.06 0.09 0.11
0.03 0.06 0.13 0.21 0.22 0.20 0.18 0.17 0.16 0.18 0.22 0.26 0.33 0.32 0.29 0.25 0.24 0.22 0.19 0.15 0.13 0.13 0.12 0.14 0.10 0.06 0.04 0.04 0.03 0.01 0.01 0.01 0.00 0.01 0.01 0.01 0.02 0.04 0.05 0.05 0.07 0.09 0.11
0.06 0.08 0.16 0.22 0.24 0.23 0.22 0.19 0.19 0.22 0.25 0.29 0.33 0.33 0.27 0.25 0.24 0.21 0.19 0.14 0.12 0.11 0.10 0.11 0.09 0.05 0.03 0.02 0.02 0.02 0.01 0.00 0.00 0.00 0.01 0.02 0.02 0.05 0.08 0.08 0.10 0.11 0.11
0.10 0.16 0.24 0.26 0.27 0.27 0.24 0.22 0.22 0.25 0.30 0.34 0.37 0.35 0.28 0.27 0.28 0.24 0.18 0.12 0.10 0.10 0.10 0.10 0.10 0.06 0.04 0.03 0.02 0.01 0.01 0.00 0.00 0.00 0.01 0.02 0.03 0.06 0.07 0.08 0.11 0.13 0.14
0.15 0.22 0.30 0.32 0.33 0.32 0.30 0.30 0.30 0.32 0.37 0.41 0.42 0.39 0.34 0.31 0.31 0.27 0.20 0.12 0.09 0.09 0.10 0.10 0.10 0.08 0.06 0.04 0.03 0.02 0.01 0.00 0.00 0.00 0.01 0.02 0.03 0.05 0.07 0.09 0.12 0.14 0.14
0.30 0.37 0.43 0.43 0.39 0.37 0.36 0.34 0.32 0.37 0.44 0.47 0.45 0.44 0.40 0.35 0.34 0.32 0.25 0.15 0.12 0.11 0.14 0.12 0.11 0.09 0.07 0.05 0.03 0.02 0.01 0.00 0.00 0.00 0.00 0.01 0.03 0.08 0.09 0.09 0.11 0.12 0.12
0.63 0.66 0.64 0.57 0.47 0.44 0.39 0.36 0.33 0.36 0.44 0.50 0.50 0.49 0.44 0.40 0.37 0.34 0.28 0.21 0.17 0.16 0.16 0.14 0.11 0.09 0.07 0.06 0.05 0.02 0.01 0.00 0.00 0.00 0.00 0.01 0.04 0.10 0.12 0.13 0.14 0.14 0.14
1.00 0.99 0.88 0.76 0.62 0.54 0.48 0.40 0.36 0.36 0.40 0.45 0.46 0.44 0.39 0.34 0.33 0.31 0.23 0.21 0.20 0.19 0.17 0.14 0.12 0.10 0.07 0.05 0.05 0.03 0.02 0.01 0.00 0.00 0.00 0.02 0.08 0.16 0.18 0.18 0.20 0.18 0.15
1.23 1.25 1.19 0.98 0.78 0.64 0.56 0.43 0.39 0.37 0.38 0.39 0.40 0.35 0.33 0.33 0.31 0.27 0.19 0.14 0.15 0.18 0.17 0.16 0.13 0.11 0.08 0.06 0.04 0.03 0.02 0.01 0.00 0.00 0.01 0.04 0.11 0.15 0.14 0.14 0.13 0.11 0.09
1.30 1.29 1.31 1.19 0.95 0.76 0.63 0.52 0.45 0.38 0.36 0.33 0.29 0.30 0.27 0.27 0.30 0.25 0.23 0.19 0.17 0.17 0.17 0.17 0.15 0.13 0.10 0.05 0.03 0.02 0.02 0.01 0.01 0.00 0.01 0.02 0.05 0.08 0.08 0.06 0.05 0.06 0.05
1.41 1.39 1.42 1.38 1.16 0.92 0.71 0.55 0.49 0.42 0.40 0.36 0.30 0.27 0.27 0.29 0.31 0.32 0.30 0.28 0.26 0.19 0.18 0.18 0.17 0.11 0.07 0.04 0.03 0.02 0.01 0.01 0.01 0.00 0.00 0.00 0.02 0.05 0.07 0.06 0.05 0.05 0.05
1.53 1.43 1.45 1.46 1.31 1.11 0.85 0.65 0.51 0.43 0.41 0.38 0.34 0.33 0.35 0.33 0.30 0.30 0.30 0.28 0.28 0.23 0.20 0.17 0.13 0.10 0.09 0.07 0.05 0.04 0.03 0.02 0.01 0.01 0.01 0.00 0.01 0.03 0.05 0.07 0.08 0.09 0.09
1.52 1.51 1.48 1.42 1.34 1.24 1.10 0.85 0.62 0.51 0.46 0.45 0.43 0.39 0.39 0.37 0.34 0.34 0.33 0.32 0.28 0.27 0.25 0.21 0.18 0.15 0.12 0.11 0.09 0.08 0.06 0.04 0.02 0.01 0.01 0.01 0.01 0.02 0.03 0.06 0.10 0.13 0.14
1.39 1.48 1.51 1.41 1.32 1.21 1.16 1.07 0.85 0.64 0.54 0.54 0.52 0.46 0.43 0.43 0.41 0.40 0.37 0.37 0.34 0.34 0.32 0.30 0.27 0.25 0.22 0.19 0.15 0.11 0.09 0.07 0.04 0.02 0.02 0.02 0.01 0.01 0.02 0.05 0.10 0.15 0.19
1.23 1.35 1.45 1.49 1.43 1.27 1.18 1.18 1.05 0.87 0.68 0.55 0.54 0.55 0.52 0.48 0.45 0.45 0.42 0.37 0.35 0.38 0.40 0.42 0.41 0.38 0.32 0.28 0.23 0.20 0.17 0.13 0.10 0.07 0.05 0.03 0.02 0.02 0.02 0.04 0.09 0.14 0.21
1.13 1.23 1.32 1.39 1.43 1.37 1.25 1.23 1.21 1.05 0.88 0.69 0.59 0.54 0.53 0.53 0.56 0.56 0.52 0.45 0.43 0.46 0.47 0.46 0.45 0.44 0.39 0.33 0.29 0.28 0.26 0.23 0.18 0.15 0.12 0.08 0.06 0.04 0.04 0.05 0.08 0.13 0.19
1.05 1.17 1.28 1.30 1.36 1.42 1.48 1.42 1.31 1.22 1.05 0.87 0.72 0.60 0.58 0.60 0.62 0.62 0.57 0.54 0.54 0.51 0.50 0.50 0.45 0.43 0.41 0.40 0.38 0.35 0.31 0.27 0.24 0.22 0.19 0.16 0.12 0.10 0.09 0.08 0.07 0.07 0.10
1.09 1.21 1.34 1.34 1.45 1.56 1.68 1.66 1.54 1.37 1.19 1.04 0.87 0.71 0.67 0.69 0.72 0.68 0.63 0.66 0.65 0.60 0.53 0.51 0.50 0.49 0.45 0.46 0.45 0.40 0.36 0.32 0.28 0.25 0.23 0.22 0.22 0.20 0.18 0.15 0.12 0.10 0.08
1.22 1.26 1.37 1.43 1.52 1.62 1.62 1.49 1.37 1.27 1.21 1.14 1.01 0.96 0.88 0.84 0.88 0.87 0.79 0.76 0.77 0.69 0.63 0.66 0.71 0.66 0.60 0.59 0.54 0.41 0.33 0.31 0.30 0.27 0.24 0.21 0.19 0.19 0.17 0.16 0.15 0.12 0.11
1.25 1.29 1.42 1.49 1.52 1.54 1.59 1.64 1.58 1.60 1.51 1.42 1.33 1.24 1.13 1.08 1.07 1.05 1.03 1.01 0.98 0.89 0.79 0.77 0.81 0.79 0.75 0.76 0.71 0.61 0.41 0.29 0.25 0.23 0.23 0.20 0.18 0.16 0.15 0.15 0.14 0.12 0.11
1.16 1.36 1.45 1.49 1.53 1.55 1.76 2.11 2.06 1.94 1.83 1.71 1.57 1.46 1.35 1.30 1.30 1.22 1.20 1.24 1.20 1.10 0.98 0.93 0.92 0.90 0.90 0.89 0.82 0.80 0.59 0.37 0.27 0.22 0.18 0.16 0.17 0.17 0.16 0.16 0.15 0.14 0.13
1.00 1.25 1.53 1.60 1.68 1.79 1.97 2.18 2.22 1.99 1.78 1.69 1.67 1.65 1.59 1.46 1.43 1.41 1.38 1.35 1.33 1.28 1.16 1.11 1.10 1.07 1.02 0.96 0.90 0.77 0.67 0.53 0.44 0.31 0.20 0.17 0.16 0.16 0.17 0.18 0.18 0.17 0.17
0.94 1.11 1.37 1.59 1.66 1.83 1.98 2.08 2.23 2.03 1.77 1.73 1.75 1.69 1.67 1.58 1.46 1.43 1.42 1.36 1.27 1.23 1.22 1.20 1.17 1.13 1.03 0.95 0.88 0.82 0.77 0.63 0.50 0.45 0.31 0.20 0.18 0.16 0.17 0.18 0.19 0.20 0.22
0.85 0.96 1.13 1.31 1.40 1.52 1.68 1.87 2.03 2.04 1.91 1.79 1.70 1.63 1.58 1.56 1.51 1.46 1.44 1.35 1.25 1.17 1.13 1.14 1.15 1.11 1.06 0.99 0.92 0.87 0.84 0.76 0.61 0.56 0.51 0.37 0.30 0.23 0.20 0.20 0.22 0.23 0.26

GEFSSE_prec_meanprecacc_126.txt.gz
Total_Precipitation_Accumulation
0.02 0.07 0.19 0.21 0.21 0.18 0.17 0.18 0.16 0.14 0.15 0.19 0.23 0.25 0.26 0.24 0.22 0.19 0.20 0.19 0.20 0.22 0.25 0.29 0.30 0.27 0.25 0.24 0.21 0.15 0.10 0.08 0.08 0.08 0.08 0.10 0.11 0.11 0.10 0.10 0.11 0.13 0.16
0.02 0.07 0.19 0.20 0.22 0.21 0.20 0.19 0.17 0.16 0.17 0.22 0.30 0.29 0.25 0.23 0.23 0.21 0.17 0.17 0.18 0.21 0.28 0.31 0.23 0.17 0.12 0.09 0.07 0.06 0.05 0.04 0.03 0.01 0.01 0.02 0.04 0.06 0.06 0.06 0.08 0.12 0.13
0.02 0.07 0.18 0.22 0.23 0.22 0.20 0.17 0.16 0.17 0.21 0.27 0.34 0.32 0.28 0.21 0.19 0.19 0.16 0.17 0.17 0.20 0.23 0.22 0.16 0.12 0.08 0.08 0.04 0.02 0.02 0.01 0.01 0.00 0.01 0.02 0.03 0.04 0.04 0.04 0.07 0.09 0.11
0.03 0.07 0.14 0.23 0.25 0.23 0.22 0.21 0.21 0.22 0.25 0.29 0.35 0.34 0.30 0.26 0.25 0.23 0.20 0.16 0.14 0.14 0.14 0.15 0.12 0.08 0.06 0.05 0.03 0.01 0.01 0.01 0.00 0.01 0.02 0.02 0.02 0.04 0.05 0.06 0.08 0.10 0.11
0.07 0.10 0.17 0.24 0.27 0.25 0.25 0.22 0.24 0.26 0.28 0.32 0.36 0.35 0.29 0.27 0.27 0.23 0.20 0.15 0.13 0.12 0.12 0.13 0.11 0.07 0.04 0.03 0.03 0.02 0.01 0.01 0.00 0.00 0.01 0.02 0.03 0.06 0.08 0.08 0.11 0.12 0.11
0.12 0.18 0.26 0.27 0.29 0.30 0.28 0.25 0.25 0.28 0.33 0.37 0.40 0.38 0.31 0.30 0.30 0.26 0.20 0.14 0.12 0.11 0.12 0.12 0.12 0.08 0.05 0.03 0.03 0.02 0.01 0.01 0.00 0.00 0.01 0.02 0.03 0.06 0.07 0.09 0.13 0.14 0.14
0.16 0.24 0.32 0.34 0.35 0.35 0.34 0.35 0.34 0.35 0.40 0.44 0.46 0.42 0.37 0.34 0.33 0.29 0.23 0.14 0.11 0.10 0.12 0.11 0.12 0.10 0.07 0.06 0.04 0.03 0.02 0.01 0.00 0.00 0.01 0.02 0.03 0.06 0.07 0.10 0.13 0.15 0.15
0.32 0.39 0.44 0.44 0.41 0.39 0.39 0.38 0.36 0.40 0.47 0.49 0.47 0.47 0.44 0.39 0.37 0.36 0.27 0.17 0.14 0.13 0.16 0.14 0.13 0.11 0.09 0.07 0.06 0.04 0.02 0.01 0.00 0.00 0.00 0.01 0.03 0.08 0.09 0.10 0.11 0.12 0.12
0.64 0.68 0.65 0.59 0.49 0.46 0.42 0.39 0.37 0.40 0.47 0.52 0.52 0.51 0.47 0.44 0.41 0.39 0.32 0.23 0.18 0.18 0.19 0.16 0.13 0.12 0.11 0.09 0.07 0.05 0.02 0.01 0.01 0.01 0.01 0.01 0.04 0.10 0.13 0.13 0.15 0.15 0.14
1.00 1.00 0.89 0.78 0.64 0.57 0.51 0.42 0.39 0.38 0.42 0.47 0.48 0.46 0.41 0.37 0.37 0.35 0.27 0.24 0.22 0.21 0.19 0.16 0.13 0.13 0.11 0.09 0.08 0.06 0.03 0.02 0.01 0.01 0.01 0.02 0.08 0.16 0.18 0.19 0.20 0.19 0.16
1.23 1.26 1.19 0.99 0.80 0.66 0.58 0.45 0.40 0.39 0.39 0.41 0.42 0.36 0.36 0.36 0.34 0.29 0.21 0.17 0.18 0.21 0.19 0.18 0.15 0.13 0.11 0.10 0.09 0.07 0.05 0.03 0.01 0.01 0.01 0.04 0.11 0.16 0.15 0.14 0.14 0.12 0.10
1.30 1.29 1.32 1.20 0.97 0.78 0.66 0.56 0.49 0.41 0.39 0.36 0.32 0.32 0.29 0.30 0.33 0.29 0.25 0.21 0.19 0.20 0.19 0.19 0.18 0.16 0.13 0.08 0.07 0.06 0.05 0.03 0.02 0.01 0.01 0.03 0.05 0.08 0.08 0.07 0.07 0.07 0.06
1.42 1.39 1.43 1.39 1.17 0.93 0.73 0.59 0.53 0.45 0.43 0.38 0.31 0.30 0.29 0.31 0.33 0.35 0.34 0.31 0.27 0.21 0.20 0.20 0.20 0.14 0.10 0.08 0.07 0.06 0.04 0.04 0.03 0.02 0.01 0.01 0.02 0.06 0.08 0.07 0.06 0.06 0.06
1.54 1.43 1.46 1.47 1.32 1.12 0.87 0.67 0.54 0.46 0.44 0.42 0.37 0.35 0.37 0.35 0.32 0.31 0.31 0.30 0.30 0.24 0.22 0.19 0.15 0.12 0.10 0.09 0.10 0.09 0.07 0.06 0.04 0.02 0.01 0.01 0.01 0.04 0.07 0.09 0.10 0.11 0.10
1.53 1.52 1.48 1.42 1.34 1.24 1.11 0.87 0.64 0.53 0.49 0.49 0.47 0.44 0.42 0.40 0.36 0.36 0.34 0.32 0.29 0.28 0.26 0.23 0.20 0.17 0.14 0.13 0.12 0.12 0.11 0.09 0.06 0.05 0.03 0.02 0.01 0.02 0.05 0.08 0.13 0.17 0.18
1.40 1.49 1.51 1.41 1.32 1.21 1.17 1.07 0.86 0.66 0.56 0.56 0.54 0.50 0.49 0.48 0.45 0.43 0.40 0.39 0.35 0.34 0.32 0.31 0.29 0.28 0.24 0.21 0.17 0.14 0.12 0.11 0.10 0.08 0.06 0.04 0.03 0.02 0.03 0.07 0.13 0.19 0.24
1.23 1.36 1.45 1.49 1.43 1.27 1.18 1.18 1.05 0.88 0.69 0.57 0.56 0.56 0.54 0.52 0.51 0.50 0.47 0.41 0.37 0.39 0.41 0.43 0.43 0.40 0.34 0.29 0.25 0.23 0.21 0.19 0.16 0.14 0.12 0.09 0.06 0.05 0.05 0.06 0.12 0.19 0.27
1.13 1.23 1.32 1.39 1.43 1.37 1.25 1.24 1.21 1.06 0.88 0.71 0.61 0.56 0.54 0.54 0.57 0.59 0.55 0.49 0.46 0.48 0.49 0.47 0.46 0.45 0.40 0.34 0.31 0.31 0.30 0.28 0.26 0.25 0.24 0.20 0.16 0.11 0.10 0.10 0.12 0.18 0.25
1.05 1.17 1.28 1.30 1.36 1.42 1.48 1.42 1.31 1.22 1.06 0.87 0.73 0.61 0.59 0.61 0.63 0.63 0.58 0.56 0.57 0.55 0.53 0.52 0.46 0.44 0.43 0.42 0.41 0.38 0.35 0.32 0.30 0.29 0.29 0.29 0.28 0.26 0.22 0.20 0.16 0.13 0.15
1.09 1.21 1.34 1.34 1.45 1.56 1.68 1.66 1.54 1.37 1.19 1.05 0.87 0.71 0.67 0.69 0.72 0.68 0.64 0.67 0.67 0.63 0.56 0.55 0.53 0.52 0.47 0.50 0.50 0.44 0.41 0.38 0.35 0.32 0.31 0.30 0.30 0.29 0.28 0.26 0.23 0.20 0.16
1.22 1.26 1.37 1.43 1.52 1.62 1.62 1.49 1.37 1.27 1.21 1.15 1.01 0.96 0.88 0.84 0.88 0.87 0.80 0.77 0.79 0.71 0.65 0.69 0.75 0.71 0.65 0.65 0.61 0.47 0.39 0.37 0.36 0.34 0.31 0.29 0.27 0.26 0.23 0.22 0.21 0.19 0.19
1.25 1.29 1.42 1.49 1.52 1.54 1.59 1.64 1.58 1.60 1.51 1.42 1.33 1.24 1.13 1.08 1.07 1.06 1.03 1.01 0.99 0.91 0.81 0.80 0.84 0.83 0.82 0.84 0.81 0.72 0.50 0.36 0.30 0.29 0.28 0.27 0.26 0.26 0.24 0.23 0.22 0.20 0.18
1.16 1.36 1.45 1.49 1.53 1.55 1.76 2.11 2.06 1.94 1.83 1.71 1.57 1.46 1.35 1.30 1.30 1.22 1.20 1.24 1.21 1.12 1.00 0.95 0.96 0.95 0.95 0.97 0.93 0.93 0.72 0.47 0.35 0.28 0.24 0.23 0.24 0.27 0.27 0.26 0.25 0.23 0.20
1.00 1.25 1.53 1.60 1.68 1.79 1.97 2.18 2.22 1.99 1.78 1.69 1.67 1.65 1.59 1.46 1.43 1.41 1.39 1.36 1.34 1.29 1.17 1.13 1.12 1.10 1.07 1.02 0.99 0.89 0.81 0.66 0.56 0.41 0.29 0.25 0.24 0.23 0.25 0.27 0.27 0.27 0.27
0.94 1.11 1.37 1.59 1.66 1.83 1.98 2.08 2.23 2.03 1.77 1.73 1.75 1.69 1.67 1.58 1.46 1.43 1.42 1.37 1.28 1.24 1.23 1.22 1.19 1.15 1.07 0.99 0.94 0.89 0.85 0.71 0.59 0.54 0.39 0.28 0.26 0.22 0.22 0.24 0.26 0.28 0.31
0.85 0.96 1.13 1.31 1.40 1.52 1.68 1.87 2.03 2.04 1.91 1.79 1.70 1.63 1.59 1.56 1.51 1.47 1.45 1.37 1.27 1.19 1.15 1.16 1.16 1.13 1.08 1.02 0.95 0.92 0.90 0.82 0.68 0.63 0.59 0.45 0.38 0.30 0.26 0.26 0.27 0.28 0.31

GEFSSE_prec_meanprecacc_132.txt.gz
Total_Precipitation_Accumulation
0.02 0.07 0.19 0.22 0.23 0.21 0.20 0.19 0.18 0.16 0.16 0.20 0.24 0.26 0.27 0.25 0.23 0.20 0.21 0.20 0.21 0.23 0.26 0.30 0.31 0.29 0.26 0.25 0.22 0.15 0.10 0.09 0.09 0.09 0.08 0.10 0.11 0.12 0.11 0.11 0.13 0.15 0.17
0.02 0.07 0.19 0.21 0.24 0.23 0.22 0.21 0.20 0.17 0.18 0.23 0.31 0.31 0.27 0.24 0.23 0.22 0.18 0.18 0.19 0.22 0.29 0.32 0.24 0.18 0.13 0.10 0.07 0.06 0.06 0.05 0.03 0.02 0.01 0.02 0.04 0.06 0.06 0.07 0.09 0.12 0.14
0.02 0.07 0.18 0.22 0.24 0.23 0.21 0.19 0.18 0.18 0.22 0.28 0.35 0.34 0.29 0.22 0.20 0.20 0.17 0.18 0.18 0.22 0.24 0.24 0.17 0.13 0.09 0.08 0.05 0.02 0.02 0.01 0.01 0.00 0.01 0.02 0.03 0.04 0.04 0.05 0.07 0.09 0.12
0.03 0.07 0.14 0.24 0.25 0.24 0.23 0.22 0.22 0.23 0.27 0.31 0.37 0.37 0.32 0.27 0.26 0.24 0.21 0.17 0.15 0.15 0.15 0.17 0.14 0.09 0.07 0.05 0.04 0.02 0.01 0.01 0.00 0.01 0.02 0.02 0.02 0.04 0.05 0.06 0.08 0.10 0.12
0.08 0.10 0.17 0.24 0.27 0.26 0.25 0.23 0.26 0.28 0.31 0.35 0.38 0.38 0.31 0.29 0.28 0.25 0.23 0.17 0.14 0.13 0.13 0.14 0.13 0.08 0.05 0.03 0.03 0.02 0.02 0.01 0.00 0.01 0.02 0.02 0.03 0.06 0.08 0.09 0.12 0.13 0.12
0.13 0.19 0.26 0.28 0.30 0.30 0.29 0.26 0.27 0.30 0.35 0.39 0.42 0.41 0.33 0.32 0.32 0.28 0.23 0.16 0.13 0.12 0.13 0.13 0.13 0.09 0.06 0.04 0.03 0.02 0.02 0.01 0.00 0.00 0.01 0.02 0.03 0.06 0.07 0.09 0.13 0.14 0.15
0.18 0.26 0.33 0.35 0.37 0.36 0.35 0.37 0.36 0.37 0.41 0.46 0.48 0.45 0.40 0.36 0.35 0.30 0.25 0.15 0.12 0.11 0.13 0.13 0.14 0.12 0.09 0.07 0.05 0.04 0.02 0.01 0.00 0.01 0.01 0.02 0.03 0.06 0.08 0.10 0.14 0.15 0.15
0.34 0.42 0.46 0.45 0.42 0.40 0.40 0.40 0.39 0.43 0.49 0.51 0.49 0.49 0.46 0.41 0.39 0.37 0.28 0.18 0.15 0.14 0.17 0.15 0.15 0.13 0.11 0.08 0.07 0.05 0.03 0.01 0.01 0.01 0.01 0.02 0.03 0.08 0.10 0.10 0.12 0.13 0.13
0.67 0.72 0.68 0.60 0.50 0.47 0.43 0.41 0.39 0.42 0.48 0.53 0.53 0.53 0.48 0.45 0.43 0.40 0.33 0.24 0.20 0.20 0.20 0.18 0.15 0.13 0.13 0.11 0.09 0.06 0.03 0.02 0.01 0.01 0.01 0.02 0.05 0.10 0.13 0.14 0.15 0.15 0.15
1.02 1.04 0.94 0.81 0.67 0.59 0.53 0.43 0.39 0.39 0.43 0.47 0.49 0.46 0.41 0.38 0.38 0.36 0.28 0.24 0.23 0.22 0.20 0.17 0.15 0.15 0.13 0.11 0.10 0.07 0.05 0.03 0.02 0.01 0.02 0.03 0.09 0.17 0.18 0.19 0.21 0.19 0.16
1.24 1.27 1.22 1.03 0.84 0.71 0.62 0.47 0.42 0.40 0.40 0.42 0.43 0.37 0.37 0.38 0.37 0.31 0.22 0.17 0.19 0.21 0.20 0.19 0.16 0.15 0.14 0.11 0.11 0.09 0.07 0.04 0.02 0.02 0.03 0.05 0.12 0.16 0.15 0.15 0.15 0.12 0.11
1.31 1.30 1.34 1.23 1.00 0.83 0.70 0.59 0.53 0.44 0.42 0.38 0.34 0.35 0.31 0.33 0.38 0.33 0.28 0.23 0.20 0.20 0.19 0.20 0.19 0.18 0.16 0.13 0.11 0.09 0.08 0.06 0.05 0.04 0.03 0.04 0.07 0.10 0.10 0.09 0.08 0.07 0.07
1.43 1.41 1.44 1.41 1.19 0.96 0.78 0.63 0.58 0.50 0.48 0.43 0.34 0.32 0.32 0.34 0.37 0.40 0.39 0.34 0.29 0.23 0.22 0.22 0.22 0.17 0.16 0.15 0.14 0.10 0.08 0.07 0.06 0.05 0.03 0.03 0.04 0.08 0.10 0.09 0.07 0.07 0.08
1.56 1.46 1.48 1.49 1.35 1.15 0.90 0.71 0.57 0.49 0.47 0.46 0.40 0.37 0.40 0.38 0.36 0.36 0.36 0.33 0.33 0.26 0.24 0.22 0.19 0.15 0.15 0.15 0.16 0.16 0.15 0.12 0.08 0.06 0.05 0.03 0.04 0.06 0.09 0.12 0.13 0.13 0.12
1.54 1.54 1.50 1.44 1.36 1.27 1.14 0.91 0.68 0.55 0.51 0.51 0.50 0.46 0.45 0.43 0.40 0.41 0.38 0.36 0.31 0.30 0.28 0.25 0.23 0.20 0.18 0.17 0.17 0.17 0.18 0.16 0.13 0.10 0.07 0.05 0.04 0.05 0.08 0.12 0.17 0.21 0.22
1.41 1.50 1.53 1.43 1.33 1.23 1.18 1.10 0.89 0.69 0.59 0.59 0.57 0.53 0.52 0.52 0.48 0.46 0.44 0.44 0.39 0.37 0.34 0.34 0.31 0.31 0.27 0.24 0.20 0.17 0.17 0.17 0.15 0.13 0.11 0.08 0.07 0.06 0.07 0.11 0.18 0.24 0.30
1.25 1.37 1.47 1.51 1.45 1.28 1.19 1.19 1.07 0.90 0.71 0.59 0.58 0.58 0.56 0.55 0.55 0.55 0.52 0.46 0.43 0.45 0.46 0.47 0.46 0.44 0.36 0.31 0.26 0.25 0.24 0.23 0.21 0.18 0.16 0.14 0.12 0.12 0.11 0.12 0.17 0.26 0.34
1.14 1.24 1.33 1.40 1.44 1.38 1.26 1.25 1.22 1.07 0.90 0.72 0.63 0.58 0.56 0.56 0.61 0.64 0.62 0.56 0.53 0.55 0.55 0.54 0.51 0.50 0.42 0.36 0.32 0.32 0.32 0.30 0.29 0.28 0.27 0.24 0.20 0.17 0.16 0.16 0.19 0.26 0.35
1.06 1.17 1.29 1.30 1.36 1.42 1.48 1.42 1.31 1.23 1.06 0.88 0.74 0.62 0.60 0.62 0.64 0.65 0.62 0.60 0.62 0.59 0.58 0.57 0.51 0.49 0.46 0.44 0.43 0.40 0.37 0.36 0.34 0.34 0.34 0.34 0.33 0.30 0.27 0.25 0.21 0.19 0.24
1.10 1.21 1.34 1.34 1.46 1.56 1.69 1.66 1.54 1.37 1.20 1.05 0.88 0.73 0.69 0.70 0.73 0.69 0.65 0.68 0.69 0.65 0.58 0.57 0.56 0.55 0.50 0.52 0.52 0.46 0.43 0.41 0.38 0.36 0.35 0.35 0.34 0.33 0.32 0.30 0.28 0.25 0.22
1.23 1.27 1.37 1.43 1.53 1.62 1.62 1.50 1.37 1.27 1.22 1.15 1.02 0.97 0.89 0.85 0.89 0.88 0.81 0.79 0.81 0.73 0.67 0.71 0.77 0.73 0.67 0.68 0.64 0.49 0.41 0.40 0.40 0.38 0.36 0.34 0.32 0.31 0.28 0.27 0.27 0.27 0.26
1.26 1.29 1.42 1.49 1.52 1.54 1.59 1.64 1.58 1.60 1.51 1.43 1.33 1.24 1.14 1.08 1.08 1.06 1.04 1.03 1.01 0.92 0.83 0.82 0.86 0.85 0.83 0.87 0.85 0.76 0.54 0.40 0.34 0.32 0.33 0.32 0.34 0.34 0.31 0.30 0.29 0.28 0.26
1.16 1.36 1.45 1.49 1.53 1.56 1.76 2.11 2.06 1.94 1.83 1.71 1.58 1.46 1.35 1.30 1.30 1.22 1.20 1.25 1.22 1.12 1.01 0.97 0.98 0.97 0.97 1.00 0.98 0.99 0.77 0.52 0.39 0.32 0.28 0.27 0.31 0.36 0.37 0.36 0.33 0.30 0.26
1.00 1.25 1.53 1.60 1.68 1.79 1.97 2.18 2.23 1.99 1.78 1.69 1.68 1.65 1.59 1.46 1.43 1.41 1.39 1.36 1.34 1.30 1.18 1.14 1.14 1.12 1.09 1.05 1.03 0.93 0.86 0.71 0.63 0.47 0.34 0.30 0.29 0.30 0.34 0.34 0.33 0.34 0.33
0.94 1.11 1.37 1.59 1.66 1.83 1.98 2.08 2.23 2.04 1.77 1.74 1.75 1.69 1.67 1.58 1.46 1.43 1.42 1.37 1.28 1.24 1.24 1.22 1.20 1.16 1.08 1.02 0.97 0.92 0.88 0.74 0.63 0.59 0.44 0.33 0.31 0.28 0.28 0.30 0.32 0.33 0.37
0.85 0.96 1.13 1.31 1.40 1.52 1.68 1.87 2.03 2.04 1.92 1.79 1.70 1.63 1.59 1.56 1.51 1.47 1.45 1.37 1.27 1.19 1.15 1.16 1.16 1.14 1.09 1.03 0.97 0.94 0.92 0.84 0.71 0.68 0.64 0.49 0.42 0.35 0.32 0.32 0.34 0.35 0.37

GEFSSE_prec_meanprecacc_138.txt.gz
Total_Precipitation_Accumulation
0.02 0.07 0.21 0.23 0.24 0.22 0.20 0.20 0.18 0.16 0.16 0.20 0.24 0.26 0.27 0.25 0.23 0.20 0.21 0.20 0.21 0.23 0.26 0.31 0.32 0.30 0.27 0.25 0.22 0.16 0.10 0.09 0.09 0.09 0.09 0.10 0.12 0.12 0.12 0.12 0.14 0.16 0.19
0.02 0.08 0.20 0.22 0.24 0.23 0.22 0.22 0.21 0.18 0.18 0.24 0.31 0.31 0.27 0.24 0.23 0.22 0.18 0.18 0.19 0.22 0.29 0.32 0.26 0.19 0.14 0.11 0.08 0.07 0.06 0.05 0.03 0.02 0.01 0.02 0.05 0.07 0.07 0.07 0.09 0.13 0.14
0.02 0.08 0.19 0.23 0.25 0.23 0.22 0.19 0.18 0.18 0.22 0.29 0.36 0.35 0.30 0.23 0.21 0.21 0.18 0.18 0.19 0.22 0.25 0.24 0.18 0.14 0.10 0.09 0.05 0.03 0.02 0.02 0.01 0.00 0.01 0.02 0.03 0.04 0.04 0.05 0.07 0.09 0.12
0.03 0.07 0.15 0.25 0.26 0.24 0.23 0.22 0.23 0.24 0.27 0.31 0.38 0.37 0.33 0.28 0.27 0.25 0.22 0.18 0.16 0.16 0.16 0.18 0.14 0.10 0.08 0.06 0.04 0.02 0.02 0.02 0.01 0.01 0.03 0.02 0.03 0.05 0.06 0.06 0.09 0.10 0.12
0.08 0.11 0.18 0.25 0.29 0.27 0.26 0.23 0.26 0.28 0.31 0.35 0.39 0.38 0.32 0.30 0.29 0.27 0.24 0.18 0.15 0.14 0.14 0.15 0.13 0.09 0.06 0.04 0.04 0.03 0.02 0.02 0.01 0.01 0.02 0.03 0.03 0.07 0.09 0.09 0.12 0.13 0.12
0.13 0.19 0.27 0.29 0.31 0.32 0.30 0.27 0.27 0.30 0.35 0.39 0.42 0.41 0.34 0.32 0.33 0.29 0.24 0.16 0.14 0.13 0.13 0.14 0.14 0.10 0.07 0.05 0.04 0.03 0.02 0.02 0.01 0.01 0.01 0.02 0.03 0.06 0.08 0.10 0.13 0.15 0.15
0.18 0.26 0.34 0.36 0.38 0.38 0.37 0.39 0.37 0.38 0.42 0.47 0.49 0.45 0.41 0.38 0.36 0.31 0.25 0.15 0.12 0.11 0.14 0.13 0.14 0.12 0.10 0.08 0.06 0.04 0.03 0.02 0.01 0.01 0.01 0.02 0.03 0.06 0.08 0.10 0.14 0.16 0.16
0.35 0.43 0.47 0.47 0.43 0.42 0.41 0.42 0.40 0.44 0.49 0.52 0.51 0.50 0.48 0.43 0.40 0.37 0.29 0.19 0.15 0.15 0.18 0.16 0.15 0.14 0.12 0.10 0.08 0.06 0.04 0.02 0.01 0.01 0.01 0.02 0.03 0.09 0.11 0.11 0.13 0.14 0.14
0.70 0.75 0.70 0.62 0.52 0.49 0.45 0.43 0.40 0.43 0.49 0.54 0.55 0.54 0.49 0.46 0.44 0.41 0.33 0.24 0.20 0.21 0.21 0.18 0.15 0.14 0.14 0.12 0.10 0.08 0.05 0.03 0.02 0.01 0.01 0.02 0.05 0.11 0.14 0.15 0.17 0.17 0.16
1.05 1.07 0.98 0.84 0.69 0.62 0.55 0.46 0.42 0.41 0.44 0.48 0.50 0.47 0.42 0.39 0.39 0.37 0.28 0.25 0.23 0.23 0.21 0.17 0.15 0.15 0.13 0.12 0.12 0.09 0.06 0.04 0.02 0.01 0.02 0.03 0.09 0.17 0.20 0.21 0.23 0.21 0.18
1.26 1.29 1.25 1.07 0.87 0.73 0.64 0.50 0.44 0.42 0.42 0.43 0.44 0.38 0.38 0.38 0.38 0.32 0.23 0.18 0.19 0.22 0.20 0.19 0.17 0.16 0.14 0.12 0.12 0.11 0.09 0.06 0.03 0.02 0.03 0.06 0.13 0.18 0.18 0.18 0.17 0.15 0.13
1.34 1.33 1.37 1.26 1.05 0.87 0.73 0.62 0.56 0.47 0.44 0.39 0.35 0.36 0.32 0.33 0.38 0.33 0.29 0.23 0.20 0.21 0.20 0.21 0.20 0.19 0.17 0.13 0.12 0.11 0.10 0.08 0.07 0.05 0.04 0.05 0.09 0.13 0.14 0.13 0.11 0.11 0.10
1.47 1.44 1.48 1.45 1.23 0.99 0.80 0.66 0.60 0.53 0.51 0.45 0.36 0.34 0.33 0.36 0.38 0.40 0.40 0.35 0.30 0.23 0.22 0.22 0.23 0.18 0.16 0.15 0.16 0.12 0.11 0.11 0.10 0.07 0.04 0.03 0.06 0.12 0.15 0.15 0.13 0.12 0.12
1.59 1.49 1.52 1.53 1.39 1.18 0.92 0.73 0.59 0.52 0.50 0.48 0.42 0.39 0.42 0.40 0.37 0.37 0.36 0.34 0.34 0.26 0.25 0.22 0.19 0.16 0.16 0.16 0.17 0.17 0.17 0.16 0.15 0.14 0.09 0.05 0.05 0.08 0.13 0.17 0.19 0.20 0.18
1.57 1.57 1.54 1.49 1.41 1.31 1.17 0.93 0.70 0.58 0.54 0.55 0.53 0.48 0.47 0.45 0.41 0.42 0.38 0.37 0.32 0.30 0.29 0.26 0.23 0.21 0.19 0.18 0.18 0.18 0.19 0.19 0.18 0.19 0.16 0.09 0.07 0.07 0.11 0.16 0.23 0.28 0.29
1.44 1.53 1.57 1.48 1.39 1.28 1.23 1.13 0.92 0.72 0.61 0.61 0.60 0.55 0.54 0.54 0.50 0.47 0.45 0.44 0.39 0.37 0.35 0.34 0.32 0.31 0.28 0.25 0.21 0.18 0.17 0.18 0.17 0.16 0.16 0.13 0.10 0.09 0.10 0.15 0.23 0.32 0.39
1.27 1.39 1.51 1.56 1.50 1.34 1.25 1.24 1.10 0.92 0.73 0.61 0.60 0.61 0.59 0.58 0.57 0.57 0.54 0.48 0.44 0.46 0.46 0.48 0.47 0.46 0.38 0.33 0.28 0.26 0.25 0.24 0.22 0.20 0.18 0.16 0.14 0.15 0.15 0.16 0.23 0.32 0.42
1.15 1.26 1.36 1.44 1.49 1.43 1.31 1.28 1.26 1.10 0.92 0.76 0.65 0.60 0.58 0.59 0.63 0.66 0.65 0.59 0.55 0.57 0.58 0.56 0.55 0.54 0.46 0.41 0.36 0.35 0.33 0.31 0.30 0.29 0.29 0.26 0.22 0.19 0.19 0.20 0.24 0.32 0.42
1.07 1.19 1.31 1.34 1.40 1.47 1.53 1.46 1.34 1.27 1.10 0.91 0.77 0.64 0.61 0.64 0.66 0.67 0.64 0.62 0.64 0.63 0.63 0.63 0.58 0.55 0.50 0.48 0.48 0.43 0.39 0.37 0.35 0.34 0.35 0.35 0.34 0.32 0.30 0.29 0.25 0.24 0.31
1.10 1.22 1.36 1.36 1.48 1.59 1.73 1.70 1.58 1.41 1.23 1.07 0.90 0.75 0.70 0.71 0.75 0.72 0.69 0.71 0.72 0.67 0.61 0.61 0.61 0.60 0.54 0.56 0.56 0.49 0.44 0.42 0.39 0.36 0.36 0.37 0.37 0.36 0.36 0.34 0.31 0.29 0.29
1.23 1.27 1.38 1.44 1.54 1.64 1.64 1.53 1.41 1.30 1.24 1.17 1.04 0.99 0.91 0.87 0.91 0.91 0.84 0.83 0.84 0.77 0.70 0.74 0.82 0.78 0.71 0.71 0.67 0.52 0.44 0.42 0.40 0.39 0.37 0.36 0.34 0.33 0.31 0.31 0.32 0.31 0.31
1.27 1.30 1.43 1.50 1.52 1.55 1.60 1.65 1.60 1.63 1.54 1.44 1.34 1.26 1.16 1.10 1.10 1.09 1.08 1.07 1.05 0.97 0.88 0.86 0.90 0.89 0.87 0.90 0.87 0.79 0.56 0.41 0.35 0.34 0.35 0.34 0.36 0.36 0.33 0.33 0.32 0.32 0.31
1.17 1.37 1.46 1.50 1.53 1.56 1.77 2.12 2.07 1.96 1.84 1.72 1.58 1.47 1.36 1.31 1.31 1.23 1.23 1.27 1.25 1.15 1.04 1.00 1.01 1.00 1.01 1.04 1.01 1.03 0.80 0.54 0.40 0.34 0.30 0.29 0.33 0.38 0.40 0.40 0.38 0.35 0.31
1.01 1.26 1.54 1.61 1.69 1.79 1.98 2.19 2.24 2.00 1.79 1.70 1.68 1.66 1.60 1.47 1.43 1.41 1.39 1.36 1.35 1.31 1.19 1.15 1.16 1.14 1.12 1.09 1.07 0.97 0.89 0.74 0.64 0.48 0.35 0.31 0.30 0.31 0.36 0.40 0.40 0.40 0.40
0.94 1.12 1.38 1.60 1.67 1.84 1.99 2.09 2.24 2.04 1.77 1.74 1.75 1.69 1.67 1.58 1.46 1.44 1.42 1.37 1.29 1.25 1.24 1.23 1.20 1.17 1.09 1.02 0.98 0.94 0.89 0.75 0.64 0.60 0.45 0.33 0.31 0.28 0.28 0.32 0.36 0.39 0.42
0.86 0.96 1.14 1.32 1.41 1.53 1.69 1.88 2.04 2.04 1.92 1.79 1.70 1.63 1.59 1.56 1.52 1.47 1.45 1.37 1.27 1.19 1.15 1.16 1.17 1.14 1.09 1.03 0.97 0.94 0.92 0.85 0.72 0.68 0.64 0.50 0.43 0.35 0.32 0.33 0.36 0.38 0.42

GEFSSE_prec_meanprecacc_144.txt.gz
Total_Precipitation_Accumulation
0.03 0.07 0.23 0.26 0.27 0.24 0.22 0.21 0.19 0.17 0.17 0.21 0.24 0.26 0.28 0.26 0.24 0.20 0.22 0.22 0.22 0.24 0.27 0.32 0.33 0.31 0.29 0.27 0.23 0.17 0.11 0.09 0.10 0.10 0.09 0.11 0.12 0.12 0.12 0.13 0.15 0.17 0.21
0.02 0.08 0.22 0.24 0.27 0.25 0.24 0.23 0.21 0.18 0.19 0.24 0.32 0.32 0.28 0.25 0.24 0.23 0.20 0.20 0.20 0.23 0.31 0.34 0.27 0.21 0.15 0.12 0.09 0.08 0.07 0.05 0.04 0.02 0.01 0.02 0.05 0.07 0.07 0.07 0.10 0.13 0.15
0.02 0.08 0.20 0.25 0.27 0.25 0.23 0.20 0.18 0.18 0.23 0.29 0.37 0.36 0.30 0.23 0.21 0.21 0.19 0.19 0.20 0.23 0.26 0.26 0.20 0.16 0.12 0.11 0.07 0.04 0.03 0.03 0.02 0.01 0.01 0.02 0.03 0.04 0.04 0.05 0.08 0.10 0.12
0.03 0.08 0.16 0.26 0.28 0.26 0.25 0.23 0.23 0.24 0.27 0.31 0.38 0.37 0.33 0.28 0.27 0.25 0.22 0.18 0.17 0.17 0.17 0.19 0.16 0.12 0.10 0.08 0.06 0.03 0.03 0.02 0.02 0.02 0.03 0.03 0.03 0.05 0.06 0.06 0.09 0.11 0.12
0.09 0.11 0.18 0.26 0.30 0.28 0.27 0.24 0.27 0.29 0.31 0.35 0.39 0.38 0.32 0.30 0.30 0.27 0.24 0.18 0.16 0.14 0.14 0.15 0.14 0.09 0.06 0.05 0.04 0.04 0.03 0.03 0.02 0.02 0.02 0.03 0.03 0.07 0.09 0.10 0.13 0.14 0.13
0.14 0.20 0.28 0.30 0.33 0.34 0.32 0.29 0.29 0.31 0.36 0.40 0.42 0.41 0.34 0.33 0.34 0.30 0.25 0.16 0.14 0.13 0.14 0.14 0.14 0.11 0.08 0.05 0.04 0.04 0.04 0.03 0.02 0.01 0.01 0.03 0.04 0.07 0.09 0.10 0.15 0.16 0.16
0.19 0.28 0.36 0.38 0.39 0.39 0.39 0.41 0.38 0.39 0.43 0.48 0.49 0.46 0.41 0.38 0.37 0.32 0.26 0.15 0.13 0.12 0.14 0.13 0.14 0.13 0.11 0.08 0.06 0.05 0.05 0.03 0.02 0.01 0.01 0.02 0.04 0.07 0.09 0.12 0.16 0.18 0.18
0.38 0.46 0.52 0.51 0.47 0.44 0.43 0.44 0.43 0.45 0.51 0.53 0.51 0.51 0.48 0.44 0.42 0.38 0.29 0.19 0.15 0.15 0.18 0.16 0.15 0.14 0.12 0.10 0.09 0.07 0.05 0.03 0.02 0.01 0.01 0.02 0.04 0.09 0.12 0.13 0.14 0.16 0.16
0.75 0.79 0.74 0.66 0.56 0.52 0.47 0.45 0.43 0.45 0.50 0.55 0.56 0.54 0.50 0.48 0.46 0.42 0.33 0.25 0.20 0.21 0.21 0.18 0.15 0.14 0.14 0.12 0.11 0.08 0.05 0.03 0.02 0.02 0.02 0.02 0.05 0.11 0.15 0.17 0.19 0.19 0.18
1.10 1.12 1.03 0.88 0.73 0.65 0.58 0.48 0.44 0.44 0.47 0.50 0.51 0.48 0.43 0.40 0.40 0.38 0.29 0.25 0.23 0.23 0.21 0.17 0.15 0.16 0.13 0.12 0.12 0.09 0.06 0.05 0.03 0.02 0.02 0.03 0.09 0.18 0.21 0.22 0.25 0.24 0.21
1.35 1.36 1.32 1.14 0.93 0.78 0.67 0.51 0.46 0.45 0.46 0.46 0.46 0.40 0.39 0.39 0.39 0.33 0.24 0.18 0.19 0.22 0.20 0.19 0.17 0.16 0.14 0.12 0.12 0.11 0.09 0.06 0.03 0.03 0.04 0.06 0.13 0.19 0.20 0.20 0.20 0.18 0.17
1.47 1.43 1.44 1.32 1.12 0.93 0.78 0.65 0.58 0.49 0.47 0.43 0.38 0.38 0.34 0.35 0.40 0.35 0.30 0.24 0.20 0.21 0.20 0.21 0.20 0.19 0.17 0.13 0.12 0.11 0.10 0.08 0.07 0.06 0.05 0.06 0.09 0.15 0.17 0.16 0.14 0.14 0.14
1.62 1.57 1.57 1.51 1.30 1.08 0.86 0.70 0.63 0.55 0.53 0.48 0.38 0.35 0.36 0.38 0.40 0.43 0.42 0.37 0.31 0.23 0.22 0.22 0.23 0.18 0.16 0.16 0.16 0.12 0.11 0.11 0.10 0.08 0.06 0.05 0.07 0.14 0.18 0.18 0.17 0.16 0.16
1.76 1.62 1.63 1.62 1.47 1.27 1.01 0.78 0.63 0.55 0.52 0.50 0.44 0.41 0.44 0.42 0.40 0.39 0.39 0.36 0.35 0.27 0.25 0.22 0.19 0.16 0.16 0.16 0.17 0.18 0.17 0.17 0.15 0.14 0.11 0.08 0.07 0.10 0.16 0.20 0.23 0.24 0.23
1.72 1.69 1.63 1.57 1.49 1.40 1.27 1.00 0.74 0.60 0.55 0.56 0.54 0.50 0.48 0.47 0.44 0.45 0.41 0.38 0.33 0.31 0.29 0.26 0.23 0.21 0.19 0.18 0.18 0.18 0.20 0.19 0.18 0.19 0.17 0.12 0.09 0.09 0.13 0.18 0.26 0.32 0.34
1.52 1.64 1.65 1.55 1.45 1.35 1.31 1.21 0.97 0.75 0.63 0.64 0.63 0.57 0.55 0.55 0.53 0.51 0.49 0.46 0.40 0.38 0.35 0.34 0.32 0.31 0.28 0.25 0.21 0.19 0.18 0.18 0.17 0.16 0.16 0.15 0.12 0.11 0.11 0.16 0.25 0.35 0.44
1.31 1.47 1.58 1.61 1.56 1.41 1.33 1.33 1.18 0.98 0.77 0.63 0.64 0.65 0.61 0.59 0.59 0.60 0.58 0.51 0.46 0.46 0.47 0.49 0.48 0.46 0.38 0.34 0.28 0.27 0.26 0.25 0.23 0.21 0.19 0.17 0.16 0.16 0.16 0.17 0.24 0.35 0.46
1.19 1.31 1.42 1.50 1.54 1.50 1.41 1.38 1.33 1.17 0.99 0.81 0.68 0.64 0.61 0.60 0.64 0.69 0.69 0.63 0.58 0.58 0.58 0.57 0.55 0.54 0.47 0.42 0.37 0.36 0.35 0.33 0.31 0.30 0.29 0.26 0.23 0.20 0.20 0.21 0.26 0.34 0.44
1.10 1.22 1.36 1.38 1.44 1.52 1.61 1.56 1.43 1.34 1.17 0.98 0.82 0.68 0.66 0.68 0.69 0.69 0.67 0.67 0.69 0.65 0.63 0.64 0.58 0.56 0.51 0.49 0.48 0.44 0.40 0.38 0.35 0.35 0.35 0.35 0.34 0.32 0.30 0.29 0.26 0.26 0.32
1.13 1.24 1.38 1.40 1.52 1.64 1.80 1.82 1.71 1.52 1.32 1.16 0.98 0.82 0.75 0.76 0.79 0.75 0.71 0.74 0.77 0.71 0.62 0.62 0.62 0.61 0.55 0.57 0.57 0.50 0.46 0.43 0.40 0.37 0.36 0.37 0.37 0.37 0.36 0.35 0.33 0.31 0.30
1.24 1.29 1.39 1.45 1.56 1.67 1.70 1.63 1.56 1.45 1.39 1.31 1.16 1.09 0.99 0.92 0.95 0.96 0.88 0.86 0.89 0.83 0.74 0.76 0.83 0.80 0.73 0.74 0.69 0.54 0.45 0.43 0.41 0.40 0.38 0.37 0.34 0.34 0.32 0.32 0.32 0.32 0.32
1.27 1.30 1.43 1.50 1.53 1.56 1.62 1.70 1.69 1.74 1.66 1.60 1.50 1.37 1.24 1.16 1.15 1.15 1.13 1.12 1.10 1.02 0.94 0.93 0.95 0.92 0.89 0.92 0.89 0.81 0.59 0.45 0.38 0.36 0.37 0.36 0.37 0.37 0.34 0.33 0.33 0.33 0.31
1.17 1.37 1.46 1.50 1.54 1.57 1.78 2.14 2.11 2.03 1.92 1.79 1.67 1.58 1.45 1.39 1.38 1.30 1.28 1.33 1.30 1.20 1.09 1.06 1.06 1.04 1.04 1.07 1.03 1.05 0.83 0.57 0.44 0.38 0.35 0.32 0.35 0.39 0.41 0.40 0.38 0.35 0.31
1.01 1.26 1.54 1.61 1.69 1.79 1.98 2.20 2.26 2.03 1.85 1.75 1.72 1.71 1.65 1.51 1.49 1.47 1.44 1.41 1.40 1.36 1.25 1.20 1.20 1.18 1.15 1.12 1.10 1.00 0.92 0.78 0.69 0.53 0.39 0.35 0.32 0.33 0.37 0.41 0.41 0.40 0.40
0.95 1.12 1.38 1.60 1.67 1.84 1.99 2.10 2.25 2.07 1.80 1.78 1.79 1.72 1.70 1.61 1.49 1.47 1.45 1.40 1.32 1.29 1.29 1.28 1.26 1.23 1.15 1.07 1.03 0.99 0.93 0.79 0.67 0.64 0.49 0.37 0.33 0.30 0.30 0.34 0.38 0.40 0.43
0.86 0.96 1.14 1.32 1.41 1.53 1.69 1.88 2.05 2.07 1.95 1.83 1.74 1.66 1.60 1.58 1.53 1.49 1.48 1.40 1.29 1.22 1.18 1.19 1.20 1.18 1.14 1.08 1.01 0.97 0.95 0.88 0.74 0.71 0.66 0.51 0.44 0.36 0.33 0.33 0.36 0.39 0.42

GEFSSE_prec_meanprecacc_150.txt.gz
Total_Precipitation_Accumulation
0.03 0.08 0.24 0.29 0.30 0.27 0.24 0.23 0.21 0.19 0.20 0.23 0.26 0.28 0.29 0.27 0.25 0.22 0.23 0.22 0.23 0.25 0.28 0.33 0.35 0.34 0.31 0.29 0.25 0.18 0.13 0.11 0.11 0.10 0.09 0.11 0.13 0.13 0.12 0.13 0.15 0.18 0.22
0.02 0.09 0.23 0.27 0.30 0.28 0.26 0.25 0.22 0.20 0.21 0.27 0.33 0.34 0.30 0.26 0.25 0.24 0.20 0.20 0.21 0.24 0.31 0.35 0.29 0.23 0.17 0.13 0.10 0.09 0.08 0.07 0.05 0.02 0.01 0.02 0.05 0.07 0.07 0.08 0.10 0.14 0.15
0.02 0.09 0.23 0.28 0.29 0.28 0.26 0.22 0.20 0.20 0.24 0.31 0.38 0.37 0.31 0.24 0.22 0.22 0.19 0.19 0.21 0.24 0.26 0.27 0.21 0.17 0.13 0.12 0.08 0.05 0.04 0.04 0.03 0.01 0.01 0.02 0.03 0.05 0.05 0.05 0.08 0.10 0.12
0.04 0.09 0.19 0.29 0.30 0.28 0.27 0.25 0.25 0.25 0.28 0.33 0.39 0.38 0.34 0.29 0.28 0.26 0.23 0.19 0.17 0.17 0.17 0.19 0.16 0.12 0.10 0.08 0.06 0.04 0.03 0.03 0.02 0.02 0.03 0.03 0.03 0.05 0.06 0.06 0.09 0.11 0.13
0.09 0.12 0.21 0.29 0.32 0.30 0.29 0.25 0.28 0.30 0.32 0.36 0.40 0.39 0.33 0.31 0.31 0.28 0.25 0.19 0.16 0.15 0.15 0.15 0.14 0.10 0.06 0.05 0.04 0.04 0.04 0.03 0.02 0.02 0.03 0.03 0.04 0.07 0.10 0.10 0.14 0.15 0.14
0.15 0.22 0.30 0.33 0.34 0.35 0.34 0.30 0.30 0.32 0.37 0.40 0.43 0.42 0.35 0.34 0.35 0.31 0.25 0.17 0.14 0.13 0.14 0.14 0.15 0.11 0.08 0.05 0.04 0.04 0.04 0.04 0.02 0.02 0.02 0.03 0.04 0.07 0.09 0.11 0.16 0.17 0.17
0.20 0.30 0.40 0.43 0.43 0.41 0.41 0.43 0.39 0.40 0.44 0.48 0.50 0.47 0.42 0.39 0.38 0.33 0.26 0.16 0.13 0.12 0.14 0.13 0.14 0.13 0.11 0.08 0.06 0.05 0.05 0.03 0.02 0.02 0.02 0.03 0.04 0.08 0.10 0.13 0.17 0.19 0.19
0.41 0.50 0.57 0.58 0.53 0.48 0.45 0.46 0.44 0.46 0.52 0.54 0.52 0.52 0.50 0.45 0.43 0.39 0.30 0.19 0.16 0.16 0.18 0.16 0.16 0.14 0.12 0.11 0.09 0.07 0.05 0.03 0.02 0.01 0.02 0.02 0.04 0.10 0.12 0.13 0.16 0.17 0.17
0.79 0.84 0.80 0.74 0.64 0.59 0.52 0.48 0.45 0.46 0.51 0.56 0.57 0.55 0.51 0.49 0.47 0.43 0.34 0.25 0.21 0.21 0.21 0.18 0.16 0.14 0.14 0.12 0.11 0.08 0.05 0.04 0.02 0.02 0.02 0.02 0.05 0.12 0.17 0.18 0.21 0.21 0.19
1.14 1.18 1.09 0.96 0.82 0.73 0.64 0.52 0.47 0.47 0.48 0.51 0.52 0.49 0.43 0.40 0.41 0.39 0.30 0.26 0.24 0.24 0.22 0.17 0.15 0.16 0.13 0.12 0.12 0.09 0.06 0.05 0.03 0.02 0.03 0.04 0.10 0.19 0.22 0.24 0.26 0.26 0.23
1.40 1.41 1.39 1.22 1.01 0.86 0.74 0.56 0.50 0.48 0.48 0.47 0.47 0.40 0.40 0.40 0.39 0.34 0.25 0.19 0.20 0.22 0.21 0.20 0.17 0.16 0.14 0.12 0.12 0.11 0.09 0.06 0.04 0.03 0.04 0.07 0.14 0.20 0.21 0.22 0.22 0.20 0.19
1.54 1.51 1.52 1.42 1.23 1.03 0.87 0.71 0.63 0.53 0.51 0.45 0.39 0.38 0.34 0.36 0.40 0.35 0.31 0.25 0.21 0.21 0.20 0.21 0.20 0.19 0.17 0.14 0.13 0.11 0.10 0.09 0.07 0.06 0.05 0.06 0.10 0.16 0.18 0.17 0.16 0.16 0.16
1.72 1.69 1.69 1.63 1.43 1.22 0.99 0.79 0.69 0.60 0.57 0.51 0.40 0.37 0.36 0.39 0.41 0.44 0.43 0.38 0.33 0.24 0.23 0.23 0.23 0.18 0.16 0.16 0.16 0.13 0.11 0.11 0.10 0.08 0.06 0.05 0.08 0.15 0.20 0.20 0.18 0.18 0.18
1.85 1.76 1.77 1.73 1.59 1.43 1.17 0.92 0.73 0.61 0.57 0.53 0.47 0.43 0.45 0.44 0.41 0.41 0.40 0.38 0.37 0.28 0.26 0.24 0.19 0.16 0.16 0.16 0.17 0.18 0.17 0.17 0.15 0.14 0.11 0.08 0.07 0.11 0.18 0.22 0.25 0.26 0.26
1.81 1.81 1.79 1.70 1.60 1.53 1.41 1.13 0.86 0.70 0.62 0.60 0.57 0.52 0.50 0.50 0.46 0.47 0.43 0.40 0.35 0.33 0.30 0.27 0.24 0.21 0.19 0.18 0.18 0.18 0.20 0.19 0.18 0.19 0.17 0.12 0.09 0.10 0.14 0.20 0.28 0.34 0.37
1.62 1.75 1.79 1.69 1.56 1.47 1.43 1.33 1.08 0.85 0.71 0.69 0.66 0.58 0.57 0.57 0.54 0.52 0.50 0.48 0.43 0.40 0.37 0.36 0.33 0.32 0.28 0.25 0.21 0.19 0.18 0.18 0.17 0.16 0.16 0.16 0.15 0.12 0.12 0.18 0.27 0.37 0.46
1.39 1.58 1.73 1.76 1.67 1.53 1.45 1.45 1.32 1.13 0.89 0.72 0.69 0.68 0.62 0.60 0.60 0.60 0.59 0.53 0.48 0.49 0.50 0.51 0.49 0.47 0.39 0.34 0.28 0.27 0.26 0.25 0.23 0.21 0.19 0.17 0.19 0.18 0.17 0.19 0.27 0.37 0.49
1.25 1.40 1.56 1.64 1.67 1.63 1.52 1.50 1.47 1.33 1.15 0.94 0.76 0.69 0.66 0.62 0.66 0.69 0.69 0.64 0.60 0.61 0.61 0.60 0.57 0.57 0.48 0.42 0.38 0.36 0.35 0.33 0.31 0.30 0.29 0.26 0.24 0.21 0.21 0.22 0.27 0.35 0.46
1.15 1.28 1.45 1.49 1.56 1.65 1.74 1.70 1.58 1.47 1.30 1.14 0.97 0.79 0.72 0.73 0.72 0.70 0.68 0.67 0.71 0.68 0.66 0.66 0.61 0.58 0.52 0.49 0.49 0.44 0.40 0.38 0.35 0.35 0.35 0.35 0.35 0.33 0.30 0.30 0.27 0.26 0.33
1.16 1.28 1.43 1.46 1.59 1.73 1.90 1.93 1.84 1.64 1.44 1.30 1.11 0.94 0.86 0.83 0.86 0.79 0.72 0.75 0.78 0.75 0.66 0.64 0.64 0.64 0.58 0.58 0.57 0.50 0.46 0.43 0.40 0.37 0.37 0.37 0.37 0.37 0.36 0.35 0.33 0.31 0.30
1.27 1.32 1.42 1.48 1.60 1.72 1.77 1.70 1.66 1.58 1.50 1.44 1.30 1.17 1.06 1.01 1.04 1.03 0.93 0.88 0.90 0.84 0.78 0.80 0.86 0.82 0.75 0.75 0.69 0.54 0.46 0.44 0.42 0.40 0.39 0.37 0.35 0.34 0.32 0.32 0.32 0.32 0.32
1.29 1.33 1.46 1.52 1.56 1.60 1.67 1.76 1.75 1.83 1.77 1.72 1.66 1.49 1.31 1.23 1.22 1.21 1.18 1.15 1.12 1.04 0.98 0.96 0.99 0.96 0.91 0.93 0.89 0.81 0.59 0.45 0.38 0.36 0.37 0.36 0.37 0.37 0.35 0.34 0.33 0.33 0.31
1.19 1.39 1.49 1.53 1.55 1.59 1.81 2.19 2.15 2.07 1.98 1.88 1.79 1.71 1.55 1.46 1.43 1.34 1.31 1.35 1.32 1.22 1.13 1.10 1.09 1.08 1.08 1.09 1.04 1.06 0.83 0.58 0.45 0.38 0.35 0.33 0.35 0.40 0.42 0.41 0.39 0.36 0.32
1.02 1.28 1.56 1.65 1.71 1.81 1.99 2.23 2.30 2.06 1.87 1.79 1.77 1.77 1.73 1.58 1.53 1.49 1.47 1.44 1.44 1.41 1.29 1.25 1.26 1.22 1.19 1.16 1.13 1.01 0.93 0.79 0.70 0.54 0.40 0.36 0.34 0.34 0.38 0.41 0.41 0.41 0.40
0.95 1.13 1.40 1.63 1.70 1.86 2.00 2.11 2.28 2.09 1.81 1.80 1.81 1.75 1.74 1.67 1.55 1.50 1.48 1.42 1.34 1.33 1.36 1.36 1.34 1.31 1.20 1.11 1.06 1.01 0.95 0.81 0.69 0.65 0.50 0.38 0.35 0.32 0.32 0.36 0.40 0.42 0.45
0.86 0.97 1.14 1.32 1.42 1.54 1.69 1.89 2.07 2.09 1.96 1.83 1.75 1.68 1.63 1.62 1.60 1.55 1.52 1.42 1.31 1.23 1.21 1.25 1.29 1.28 1.25 1.17 1.08 1.02 0.99 0.91 0.77 0.73 0.69 0.53 0.46 0.38 0.34 0.35 0.37 0.41 0.44

GEFSSE_prec_meanprecacc_156.txt.gz
Total_Precipitation_Accumulation
0.03 0.08 0.25 0.30 0.32 0.28 0.26 0.25 0.22 0.21 0.22 0.25 0.28 0.30 0.30 0.29 0.26 0.22 0.24 0.23 0.24 0.26 0.30 0.35 0.37 0.36 0.32 0.30 0.25 0.19 0.14 0.12 0.12 0.11 0.09 0.11 0.13 0.13 0.12 0.14 0.16 0.18 0.22
0.02 0.09 0.24 0.29 0.34 0.30 0.29 0.27 0.24 0.21 0.23 0.29 0.35 0.35 0.31 0.27 0.26 0.24 0.21 0.20 0.21 0.25 0.33 0.37 0.31 0.25 0.18 0.14 0.11 0.09 0.08 0.08 0.06 0.03 0.01 0.02 0.05 0.07 0.08 0.08 0.11 0.14 0.15
0.02 0.09 0.23 0.31 0.33 0.31 0.28 0.25 0.23 0.21 0.26 0.33 0.39 0.38 0.33 0.26 0.23 0.23 0.20 0.20 0.21 0.25 0.27 0.28 0.22 0.18 0.13 0.12 0.08 0.05 0.04 0.04 0.03 0.02 0.01 0.03 0.04 0.05 0.05 0.06 0.08 0.10 0.13
0.04 0.09 0.20 0.32 0.33 0.31 0.30 0.28 0.27 0.27 0.29 0.34 0.41 0.40 0.36 0.30 0.29 0.27 0.24 0.20 0.19 0.19 0.18 0.20 0.17 0.13 0.10 0.08 0.06 0.04 0.04 0.03 0.02 0.02 0.04 0.04 0.04 0.06 0.07 0.08 0.10 0.12 0.14
0.10 0.13 0.23 0.31 0.35 0.32 0.31 0.28 0.30 0.32 0.33 0.37 0.41 0.41 0.35 0.32 0.32 0.30 0.26 0.20 0.17 0.16 0.16 0.16 0.14 0.10 0.07 0.05 0.05 0.04 0.04 0.04 0.02 0.02 0.03 0.05 0.05 0.08 0.11 0.11 0.14 0.16 0.15
0.16 0.23 0.31 0.35 0.36 0.37 0.36 0.33 0.32 0.34 0.38 0.42 0.44 0.43 0.36 0.35 0.37 0.33 0.27 0.18 0.15 0.14 0.15 0.15 0.15 0.11 0.08 0.06 0.04 0.04 0.04 0.04 0.02 0.02 0.02 0.04 0.05 0.08 0.10 0.12 0.16 0.18 0.18
0.23 0.32 0.41 0.44 0.45 0.44 0.43 0.45 0.42 0.42 0.46 0.50 0.51 0.48 0.43 0.40 0.40 0.35 0.28 0.17 0.14 0.13 0.15 0.14 0.15 0.13 0.11 0.09 0.07 0.06 0.05 0.03 0.02 0.02 0.02 0.04 0.05 0.09 0.11 0.14 0.17 0.19 0.20
0.45 0.53 0.59 0.61 0.57 0.52 0.48 0.48 0.47 0.50 0.54 0.56 0.53 0.53 0.51 0.45 0.43 0.40 0.31 0.21 0.18 0.17 0.19 0.17 0.16 0.14 0.13 0.11 0.09 0.07 0.05 0.03 0.02 0.02 0.02 0.03 0.06 0.12 0.14 0.15 0.17 0.19 0.19
0.85 0.89 0.84 0.77 0.68 0.64 0.55 0.50 0.48 0.50 0.55 0.59 0.58 0.57 0.52 0.50 0.47 0.43 0.35 0.26 0.23 0.23 0.22 0.19 0.16 0.14 0.14 0.13 0.11 0.08 0.05 0.04 0.02 0.02 0.02 0.03 0.06 0.14 0.18 0.20 0.22 0.23 0.22
1.20 1.24 1.15 1.01 0.87 0.79 0.70 0.56 0.52 0.51 0.53 0.55 0.55 0.50 0.44 0.41 0.42 0.39 0.30 0.27 0.26 0.26 0.23 0.18 0.16 0.16 0.14 0.12 0.12 0.09 0.06 0.05 0.03 0.03 0.03 0.04 0.10 0.20 0.24 0.25 0.28 0.27 0.24
1.46 1.47 1.45 1.29 1.08 0.94 0.80 0.60 0.55 0.54 0.55 0.52 0.50 0.41 0.40 0.41 0.40 0.34 0.25 0.20 0.21 0.24 0.22 0.20 0.18 0.17 0.15 0.12 0.12 0.11 0.09 0.06 0.04 0.03 0.04 0.08 0.15 0.22 0.22 0.23 0.23 0.21 0.20
1.59 1.58 1.59 1.49 1.29 1.11 0.96 0.77 0.70 0.60 0.58 0.52 0.43 0.41 0.37 0.39 0.43 0.37 0.32 0.25 0.22 0.22 0.21 0.22 0.21 0.20 0.18 0.15 0.13 0.11 0.11 0.09 0.08 0.06 0.05 0.06 0.11 0.18 0.19 0.18 0.17 0.18 0.17
1.76 1.75 1.75 1.69 1.50 1.29 1.07 0.86 0.75 0.67 0.64 0.59 0.46 0.41 0.42 0.44 0.46 0.48 0.46 0.40 0.34 0.25 0.25 0.25 0.26 0.20 0.18 0.17 0.17 0.13 0.12 0.12 0.11 0.08 0.06 0.05 0.09 0.17 0.22 0.22 0.20 0.20 0.20
1.91 1.81 1.84 1.82 1.68 1.50 1.26 1.03 0.81 0.69 0.65 0.63 0.55 0.48 0.51 0.49 0.46 0.46 0.45 0.42 0.41 0.32 0.30 0.28 0.23 0.20 0.18 0.17 0.17 0.18 0.18 0.17 0.16 0.15 0.11 0.08 0.08 0.12 0.19 0.23 0.26 0.28 0.27
1.88 1.87 1.86 1.78 1.68 1.60 1.49 1.26 0.97 0.78 0.70 0.69 0.68 0.61 0.57 0.55 0.51 0.51 0.48 0.44 0.38 0.36 0.33 0.30 0.26 0.24 0.22 0.20 0.19 0.19 0.20 0.19 0.18 0.19 0.17 0.12 0.09 0.10 0.15 0.21 0.29 0.35 0.38
1.69 1.81 1.86 1.77 1.63 1.52 1.48 1.43 1.21 0.93 0.78 0.77 0.75 0.69 0.65 0.63 0.58 0.56 0.53 0.51 0.46 0.42 0.38 0.37 0.34 0.34 0.30 0.28 0.23 0.19 0.18 0.19 0.17 0.17 0.16 0.16 0.15 0.12 0.13 0.19 0.28 0.38 0.48
1.45 1.63 1.79 1.84 1.75 1.59 1.50 1.51 1.44 1.23 0.98 0.81 0.78 0.76 0.70 0.66 0.62 0.61 0.60 0.54 0.50 0.50 0.51 0.52 0.50 0.48 0.41 0.37 0.32 0.30 0.27 0.25 0.23 0.21 0.19 0.18 0.19 0.19 0.18 0.20 0.28 0.38 0.51
1.30 1.45 1.61 1.70 1.75 1.70 1.59 1.57 1.55 1.41 1.23 1.03 0.86 0.78 0.73 0.68 0.69 0.71 0.70 0.65 0.61 0.61 0.62 0.61 0.59 0.58 0.50 0.45 0.40 0.39 0.38 0.34 0.31 0.30 0.29 0.27 0.24 0.22 0.21 0.23 0.28 0.37 0.48
1.20 1.33 1.51 1.54 1.61 1.72 1.82 1.77 1.66 1.55 1.38 1.23 1.06 0.86 0.77 0.77 0.77 0.74 0.70 0.69 0.72 0.69 0.67 0.67 0.62 0.59 0.54 0.51 0.50 0.46 0.42 0.39 0.36 0.35 0.36 0.36 0.35 0.33 0.31 0.30 0.28 0.27 0.33
1.22 1.32 1.48 1.51 1.63 1.78 1.98 2.01 1.94 1.74 1.51 1.39 1.20 1.01 0.91 0.88 0.90 0.84 0.77 0.78 0.80 0.76 0.67 0.65 0.65 0.65 0.59 0.60 0.59 0.52 0.47 0.44 0.41 0.38 0.37 0.37 0.37 0.37 0.37 0.35 0.33 0.31 0.31
1.34 1.36 1.45 1.52 1.63 1.76 1.82 1.76 1.72 1.67 1.59 1.52 1.40 1.26 1.13 1.07 1.08 1.05 0.95 0.91 0.92 0.86 0.79 0.81 0.86 0.83 0.76 0.77 0.71 0.55 0.47 0.44 0.42 0.40 0.39 0.37 0.35 0.34 0.33 0.33 0.33 0.33 0.33
1.34 1.38 1.49 1.55 1.58 1.62 1.70 1.79 1.79 1.89 1.85 1.80 1.74 1.58 1.42 1.31 1.28 1.24 1.20 1.17 1.13 1.05 0.98 0.97 1.00 0.97 0.91 0.95 0.91 0.82 0.60 0.46 0.39 0.36 0.37 0.36 0.38 0.37 0.35 0.34 0.34 0.34 0.32
1.20 1.43 1.52 1.55 1.57 1.60 1.83 2.21 2.18 2.11 2.04 1.95 1.87 1.79 1.65 1.56 1.50 1.38 1.34 1.37 1.33 1.23 1.13 1.11 1.10 1.09 1.09 1.10 1.06 1.08 0.84 0.58 0.45 0.39 0.35 0.33 0.35 0.40 0.42 0.42 0.39 0.36 0.32
1.03 1.29 1.58 1.66 1.72 1.82 2.01 2.25 2.33 2.10 1.92 1.85 1.86 1.86 1.84 1.68 1.61 1.56 1.51 1.47 1.46 1.42 1.30 1.26 1.27 1.23 1.20 1.17 1.14 1.02 0.94 0.79 0.71 0.54 0.40 0.36 0.35 0.35 0.39 0.42 0.42 0.41 0.41
0.97 1.14 1.42 1.64 1.71 1.88 2.01 2.13 2.30 2.12 1.85 1.84 1.87 1.83 1.84 1.77 1.60 1.55 1.53 1.45 1.36 1.34 1.36 1.37 1.35 1.32 1.21 1.13 1.08 1.02 0.96 0.82 0.70 0.66 0.51 0.38 0.35 0.32 0.32 0.36 0.40 0.43 0.45
0.87 0.98 1.16 1.36 1.44 1.56 1.72 1.90 2.08 2.11 1.99 1.86 1.78 1.73 1.69 1.69 1.65 1.58 1.55 1.45 1.33 1.24 1.21 1.25 1.30 1.29 1.26 1.19 1.09 1.04 1.00 0.92 0.78 0.75 0.70 0.54 0.46 0.38 0.35 0.35 0.38 0.41 0.45

GEFSSE_prec_meanprecacc_162.txt.gz
Total_Precipitation_Accumulation
0.03 0.09 0.26 0.31 0.32 0.29 0.27 0.26 0.24 0.22 0.24 0.26 0.28 0.30 0.31 0.29 0.27 0.23 0.24 0.24 0.25 0.27 0.32 0.37 0.38 0.37 0.33 0.31 0.26 0.19 0.14 0.12 0.12 0.12 0.10 0.11 0.13 0.13 0.13 0.14 0.16 0.18 0.23
0.03 0.10 0.26 0.31 0.34 0.31 0.30 0.29 0.26 0.22 0.24 0.31 0.36 0.36 0.31 0.28 0.27 0.25 0.21 0.21 0.23 0.26 0.34 0.39 0.33 0.26 0.19 0.14 0.11 0.09 0.09 0.08 0.06 0.03 0.02 0.03 0.05 0.08 0.08 0.08 0.11 0.14 0.16
0.03 0.10 0.25 0.33 0.34 0.32 0.29 0.26 0.24 0.22 0.27 0.35 0.41 0.40 0.34 0.26 0.24 0.24 0.21 0.21 0.23 0.26 0.29 0.30 0.24 0.18 0.14 0.13 0.09 0.05 0.04 0.04 0.03 0.02 0.01 0.03 0.05 0.06 0.06 0.06 0.08 0.10 0.13
0.05 0.10 0.22 0.33 0.34 0.32 0.31 0.29 0.28 0.28 0.30 0.35 0.42 0.42 0.37 0.31 0.30 0.28 0.25 0.21 0.20 0.21 0.20 0.22 0.18 0.13 0.10 0.08 0.06 0.04 0.04 0.03 0.02 0.02 0.04 0.04 0.04 0.07 0.08 0.08 0.11 0.12 0.14
0.12 0.15 0.25 0.33 0.36 0.34 0.33 0.30 0.31 0.33 0.35 0.39 0.42 0.42 0.36 0.34 0.33 0.31 0.27 0.21 0.19 0.18 0.17 0.18 0.15 0.10 0.07 0.05 0.05 0.04 0.04 0.04 0.02 0.02 0.03 0.05 0.06 0.09 0.12 0.12 0.15 0.17 0.15
0.19 0.26 0.34 0.37 0.38 0.39 0.37 0.35 0.33 0.35 0.40 0.43 0.45 0.44 0.37 0.37 0.39 0.34 0.28 0.19 0.16 0.17 0.17 0.17 0.15 0.11 0.08 0.06 0.05 0.04 0.04 0.04 0.02 0.02 0.03 0.05 0.06 0.11 0.13 0.14 0.18 0.19 0.19
0.26 0.35 0.44 0.46 0.47 0.45 0.45 0.47 0.44 0.44 0.47 0.51 0.53 0.50 0.44 0.41 0.41 0.36 0.29 0.18 0.15 0.15 0.16 0.15 0.16 0.14 0.11 0.09 0.07 0.06 0.05 0.04 0.02 0.02 0.02 0.04 0.06 0.11 0.14 0.17 0.19 0.21 0.22
0.49 0.56 0.64 0.64 0.59 0.53 0.49 0.49 0.48 0.51 0.56 0.57 0.55 0.55 0.52 0.47 0.44 0.40 0.31 0.22 0.19 0.18 0.20 0.18 0.17 0.15 0.13 0.11 0.09 0.07 0.05 0.03 0.02 0.02 0.02 0.03 0.07 0.14 0.16 0.16 0.18 0.20 0.21
0.92 0.94 0.89 0.81 0.71 0.66 0.57 0.51 0.50 0.51 0.57 0.61 0.60 0.59 0.55 0.51 0.48 0.43 0.35 0.27 0.24 0.24 0.24 0.20 0.17 0.15 0.15 0.13 0.11 0.08 0.05 0.04 0.02 0.02 0.02 0.03 0.07 0.15 0.20 0.21 0.24 0.24 0.24
1.29 1.32 1.23 1.08 0.92 0.82 0.72 0.58 0.53 0.53 0.54 0.57 0.57 0.53 0.46 0.43 0.43 0.40 0.31 0.28 0.27 0.27 0.24 0.19 0.17 0.17 0.14 0.13 0.12 0.09 0.06 0.05 0.03 0.03 0.03 0.05 0.11 0.22 0.26 0.26 0.29 0.28 0.26
1.56 1.56 1.54 1.37 1.15 0.98 0.84 0.62 0.57 0.57 0.57 0.54 0.52 0.44 0.43 0.43 0.41 0.34 0.25 0.20 0.22 0.25 0.23 0.21 0.19 0.18 0.15 0.13 0.13 0.11 0.09 0.06 0.04 0.03 0.05 0.08 0.16 0.23 0.24 0.24 0.24 0.22 0.21
1.71 1.67 1.67 1.58 1.37 1.18 1.01 0.81 0.72 0.63 0.61 0.55 0.47 0.45 0.40 0.41 0.44 0.37 0.32 0.25 0.22 0.23 0.22 0.23 0.22 0.21 0.18 0.15 0.13 0.11 0.11 0.09 0.08 0.06 0.06 0.07 0.12 0.19 0.21 0.20 0.19 0.19 0.18
1.90 1.85 1.83 1.79 1.59 1.36 1.12 0.90 0.78 0.69 0.66 0.61 0.51 0.46 0.46 0.47 0.48 0.49 0.48 0.40 0.34 0.26 0.26 0.26 0.27 0.22 0.19 0.18 0.17 0.13 0.12 0.12 0.11 0.08 0.06 0.06 0.10 0.19 0.24 0.24 0.21 0.21 0.21
2.04 1.91 1.93 1.92 1.77 1.58 1.33 1.09 0.85 0.71 0.68 0.66 0.59 0.54 0.58 0.53 0.48 0.47 0.47 0.43 0.42 0.33 0.31 0.28 0.25 0.22 0.20 0.18 0.18 0.19 0.18 0.17 0.16 0.15 0.12 0.08 0.08 0.13 0.20 0.26 0.28 0.29 0.29
2.01 1.97 1.97 1.88 1.78 1.70 1.59 1.35 1.03 0.82 0.73 0.72 0.72 0.66 0.64 0.61 0.54 0.53 0.49 0.46 0.40 0.38 0.35 0.31 0.27 0.26 0.24 0.22 0.20 0.20 0.20 0.19 0.18 0.19 0.17 0.12 0.10 0.10 0.16 0.22 0.31 0.37 0.40
1.79 1.91 1.95 1.87 1.71 1.59 1.56 1.52 1.30 0.99 0.81 0.79 0.78 0.74 0.71 0.69 0.63 0.58 0.54 0.53 0.47 0.43 0.39 0.37 0.35 0.35 0.32 0.31 0.25 0.21 0.20 0.19 0.17 0.17 0.16 0.16 0.15 0.13 0.13 0.20 0.30 0.39 0.50
1.54 1.74 1.86 1.94 1.86 1.65 1.55 1.56 1.50 1.30 1.03 0.85 0.81 0.82 0.77 0.71 0.66 0.64 0.62 0.55 0.50 0.51 0.51 0.52 0.50 0.49 0.43 0.39 0.34 0.32 0.29 0.26 0.24 0.21 0.19 0.18 0.19 0.19 0.18 0.20 0.28 0.39 0.53
1.39 1.54 1.70 1.78 1.87 1.79 1.64 1.60 1.57 1.45 1.28 1.08 0.91 0.83 0.80 0.76 0.75 0.75 0.73 0.67 0.62 0.62 0.63 0.62 0.60 0.59 0.50 0.45 0.42 0.41 0.39 0.36 0.32 0.30 0.29 0.27 0.24 0.22 0.21 0.23 0.28 0.37 0.49
1.28 1.41 1.60 1.63 1.71 1.83 1.88 1.82 1.68 1.57 1.42 1.27 1.12 0.93 0.86 0.87 0.87 0.83 0.75 0.74 0.76 0.72 0.69 0.69 0.64 0.61 0.55 0.51 0.51 0.48 0.44 0.41 0.37 0.35 0.36 0.36 0.35 0.33 0.31 0.30 0.28 0.27 0.34
1.28 1.39 1.55 1.59 1.71 1.88 2.06 2.06 1.97 1.77 1.55 1.43 1.25 1.07 0.98 0.96 0.99 0.92 0.83 0.83 0.84 0.79 0.70 0.67 0.67 0.67 0.60 0.61 0.60 0.53 0.49 0.46 0.42 0.38 0.37 0.37 0.37 0.37 0.37 0.35 0.33 0.31 0.31
1.39 1.41 1.52 1.62 1.72 1.82 1.90 1.83 1.77 1.71 1.63 1.56 1.45 1.32 1.19 1.12 1.14 1.12 1.01 0.95 0.95 0.89 0.81 0.82 0.88 0.84 0.77 0.79 0.73 0.57 0.48 0.46 0.44 0.41 0.39 0.37 0.35 0.34 0.33 0.33 0.33 0.33 0.33
1.40 1.42 1.53 1.63 1.69 1.70 1.75 1.85 1.83 1.92 1.89 1.85 1.79 1.64 1.48 1.36 1.33 1.30 1.25 1.20 1.15 1.06 1.00 0.98 1.01 0.97 0.92 0.95 0.92 0.83 0.61 0.47 0.39 0.37 0.38 0.37 0.38 0.37 0.35 0.34 0.34 0.34 0.32
1.27 1.48 1.56 1.60 1.66 1.70 1.89 2.25 2.22 2.14 2.08 2.00 1.92 1.85 1.70 1.60 1.54 1.43 1.38 1.40 1.35 1.24 1.14 1.12 1.10 1.09 1.09 1.10 1.06 1.08 0.85 0.59 0.45 0.39 0.35 0.33 0.36 0.40 0.42 0.42 0.39 0.36 0.32
1.08 1.35 1.63 1.70 1.77 1.89 2.08 2.31 2.37 2.13 1.94 1.89 1.90 1.91 1.89 1.71 1.65 1.60 1.55 1.50 1.49 1.44 1.31 1.27 1.27 1.23 1.21 1.18 1.14 1.03 0.95 0.80 0.71 0.54 0.40 0.36 0.35 0.35 0.39 0.42 0.42 0.41 0.41
1.00 1.19 1.46 1.67 1.75 1.92 2.06 2.19 2.37 2.16 1.88 1.86 1.92 1.88 1.89 1.82 1.66 1.60 1.56 1.48 1.39 1.37 1.38 1.38 1.36 1.32 1.22 1.13 1.08 1.03 0.97 0.83 0.70 0.66 0.51 0.38 0.36 0.32 0.32 0.36 0.40 0.43 0.45
0.89 1.01 1.19 1.38 1.46 1.58 1.75 1.93 2.12 2.15 2.02 1.89 1.81 1.77 1.74 1.74 1.71 1.64 1.59 1.49 1.36 1.27 1.23 1.27 1.31 1.30 1.27 1.19 1.10 1.04 1.01 0.93 0.79 0.75 0.70 0.54 0.47 0.39 0.35 0.35 0.38 0.41 0.45

GEFSSE_prec_meanprecacc_168.txt.gz
Total_Precipitation_Accumulation
0.03 0.09 0.28 0.33 0.35 0.32 0.29 0.27 0.25 0.23 0.24 0.27 0.29 0.30 0.31 0.30 0.27 0.24 0.25 0.25 0.26 0.28 0.34 0.39 0.41 0.38 0.33 0.31 0.28 0.20 0.15 0.12 0.13 0.12 0.10 0.12 0.13 0.14 0.13 0.14 0.16 0.19 0.24
0.03 0.10 0.28 0.33 0.37 0.33 0.32 0.30 0.27 0.24 0.26 0.32 0.37 0.37 0.32 0.29 0.28 0.26 0.22 0.23 0.24 0.27 0.36 0.41 0.35 0.28 0.20 0.15 0.12 0.10 0.09 0.08 0.06 0.03 0.02 0.03 0.06 0.08 0.08 0.08 0.11 0.14 0.17
0.03 0.11 0.27 0.35 0.37 0.34 0.32 0.28 0.26 0.24 0.29 0.36 0.43 0.41 0.35 0.27 0.25 0.25 0.22 0.22 0.23 0.28 0.31 0.32 0.25 0.20 0.15 0.13 0.09 0.06 0.05 0.04 0.03 0.02 0.01 0.03 0.05 0.06 0.07 0.07 0.09 0.11 0.14
0.07 0.13 0.24 0.37 0.38 0.35 0.34 0.32 0.31 0.30 0.32 0.36 0.42 0.43 0.38 0.33 0.31 0.29 0.26 0.21 0.21 0.22 0.21 0.23 0.19 0.15 0.11 0.09 0.07 0.05 0.04 0.04 0.02 0.02 0.04 0.04 0.04 0.07 0.09 0.10 0.12 0.13 0.15
0.14 0.18 0.29 0.38 0.40 0.37 0.36 0.33 0.34 0.35 0.36 0.40 0.43 0.42 0.37 0.35 0.35 0.32 0.29 0.22 0.20 0.19 0.18 0.19 0.16 0.12 0.08 0.06 0.05 0.04 0.05 0.04 0.02 0.02 0.03 0.05 0.06 0.10 0.14 0.14 0.17 0.18 0.17
0.21 0.30 0.41 0.43 0.43 0.43 0.41 0.38 0.36 0.37 0.42 0.45 0.46 0.45 0.38 0.38 0.40 0.36 0.30 0.21 0.18 0.17 0.18 0.18 0.16 0.13 0.09 0.07 0.05 0.04 0.05 0.04 0.02 0.02 0.03 0.05 0.06 0.13 0.15 0.16 0.19 0.21 0.21
0.30 0.41 0.53 0.56 0.53 0.50 0.49 0.51 0.47 0.46 0.50 0.53 0.54 0.51 0.45 0.43 0.43 0.37 0.30 0.20 0.17 0.16 0.18 0.17 0.16 0.14 0.12 0.10 0.08 0.06 0.05 0.04 0.02 0.02 0.02 0.04 0.07 0.14 0.17 0.19 0.22 0.24 0.25
0.55 0.64 0.74 0.74 0.67 0.59 0.53 0.53 0.52 0.53 0.57 0.59 0.57 0.57 0.53 0.48 0.45 0.41 0.32 0.23 0.20 0.20 0.22 0.19 0.17 0.16 0.14 0.12 0.10 0.08 0.05 0.03 0.02 0.02 0.02 0.03 0.08 0.17 0.18 0.18 0.20 0.22 0.24
1.01 1.04 0.99 0.90 0.78 0.72 0.62 0.55 0.52 0.53 0.58 0.61 0.62 0.61 0.56 0.52 0.49 0.44 0.36 0.28 0.25 0.26 0.26 0.22 0.18 0.16 0.15 0.13 0.11 0.09 0.05 0.04 0.02 0.02 0.02 0.03 0.08 0.18 0.22 0.22 0.25 0.25 0.25
1.41 1.44 1.34 1.18 1.00 0.88 0.77 0.62 0.56 0.55 0.56 0.58 0.58 0.54 0.47 0.44 0.44 0.41 0.31 0.28 0.28 0.28 0.26 0.21 0.18 0.18 0.15 0.13 0.12 0.09 0.07 0.05 0.03 0.03 0.03 0.05 0.12 0.24 0.28 0.28 0.31 0.30 0.27
1.72 1.70 1.67 1.49 1.25 1.05 0.89 0.67 0.61 0.59 0.58 0.56 0.54 0.46 0.44 0.44 0.42 0.36 0.25 0.20 0.22 0.25 0.24 0.23 0.20 0.19 0.16 0.13 0.13 0.12 0.09 0.06 0.04 0.03 0.05 0.09 0.17 0.25 0.26 0.27 0.26 0.24 0.23
1.87 1.84 1.83 1.71 1.47 1.27 1.08 0.86 0.76 0.66 0.63 0.57 0.49 0.46 0.41 0.42 0.45 0.39 0.33 0.26 0.23 0.23 0.23 0.24 0.23 0.22 0.20 0.16 0.14 0.12 0.11 0.09 0.08 0.06 0.06 0.08 0.14 0.21 0.23 0.22 0.21 0.21 0.20
2.07 2.03 1.99 1.93 1.70 1.44 1.19 0.96 0.83 0.72 0.68 0.63 0.52 0.48 0.48 0.49 0.49 0.52 0.49 0.42 0.35 0.26 0.26 0.26 0.27 0.22 0.20 0.19 0.18 0.14 0.12 0.12 0.11 0.08 0.07 0.06 0.11 0.21 0.27 0.26 0.23 0.23 0.22
2.23 2.09 2.08 2.04 1.90 1.68 1.39 1.14 0.89 0.74 0.70 0.68 0.60 0.56 0.59 0.56 0.51 0.50 0.49 0.45 0.44 0.34 0.31 0.28 0.25 0.22 0.20 0.19 0.20 0.20 0.18 0.17 0.16 0.15 0.12 0.09 0.09 0.15 0.23 0.28 0.30 0.31 0.31
2.17 2.14 2.11 2.00 1.91 1.82 1.67 1.40 1.06 0.86 0.75 0.74 0.74 0.68 0.66 0.63 0.57 0.56 0.52 0.48 0.41 0.38 0.35 0.32 0.28 0.26 0.24 0.23 0.22 0.22 0.22 0.20 0.19 0.20 0.17 0.13 0.10 0.11 0.17 0.24 0.33 0.39 0.42
1.89 2.06 2.08 1.99 1.84 1.72 1.68 1.60 1.35 1.03 0.85 0.81 0.80 0.76 0.73 0.71 0.66 0.62 0.58 0.55 0.48 0.44 0.39 0.39 0.36 0.35 0.33 0.31 0.26 0.23 0.23 0.22 0.19 0.18 0.17 0.16 0.15 0.13 0.13 0.21 0.32 0.43 0.53
1.62 1.84 1.99 2.05 1.96 1.75 1.64 1.63 1.56 1.37 1.09 0.89 0.83 0.84 0.79 0.74 0.70 0.68 0.66 0.59 0.53 0.52 0.51 0.53 0.51 0.49 0.43 0.39 0.35 0.33 0.31 0.29 0.26 0.22 0.19 0.18 0.19 0.19 0.18 0.20 0.29 0.41 0.55
1.49 1.66 1.81 1.85 1.95 1.87 1.71 1.65 1.61 1.51 1.35 1.15 0.96 0.87 0.84 0.80 0.80 0.80 0.78 0.72 0.66 0.65 0.64 0.62 0.61 0.59 0.51 0.46 0.42 0.41 0.40 0.37 0.34 0.31 0.30 0.27 0.25 0.22 0.21 0.23 0.28 0.38 0.50
1.37 1.54 1.76 1.69 1.77 1.90 1.95 1.86 1.71 1.60 1.45 1.32 1.16 0.97 0.91 0.92 0.94 0.91 0.83 0.83 0.84 0.77 0.72 0.71 0.65 0.62 0.55 0.51 0.52 0.48 0.45 0.42 0.38 0.37 0.37 0.36 0.35 0.33 0.31 0.30 0.28 0.27 0.34
1.36 1.47 1.68 1.66 1.75 1.94 2.13 2.11 2.00 1.80 1.57 1.45 1.27 1.09 1.00 0.98 1.03 0.99 0.92 0.92 0.93 0.87 0.74 0.71 0.69 0.69 0.62 0.62 0.61 0.55 0.51 0.47 0.44 0.40 0.38 0.38 0.38 0.37 0.37 0.36 0.33 0.32 0.31
1.48 1.48 1.59 1.67 1.75 1.86 1.95 1.88 1.80 1.75 1.66 1.58 1.47 1.34 1.21 1.14 1.17 1.17 1.09 1.04 1.05 0.98 0.87 0.86 0.91 0.86 0.78 0.80 0.74 0.58 0.49 0.47 0.45 0.43 0.41 0.38 0.35 0.34 0.33 0.33 0.33 0.33 0.33
1.47 1.49 1.61 1.68 1.73 1.74 1.80 1.90 1.88 1.96 1.92 1.87 1.81 1.66 1.50 1.38 1.36 1.34 1.33 1.30 1.25 1.16 1.06 1.01 1.03 0.98 0.93 0.96 0.93 0.85 0.62 0.48 0.41 0.39 0.40 0.38 0.39 0.38 0.35 0.35 0.34 0.34 0.32
1.34 1.53 1.63 1.68 1.70 1.74 1.94 2.30 2.26 2.19 2.12 2.03 1.95 1.88 1.74 1.64 1.58 1.48 1.44 1.49 1.45 1.34 1.21 1.15 1.13 1.11 1.11 1.11 1.07 1.09 0.86 0.60 0.47 0.41 0.37 0.35 0.37 0.41 0.43 0.42 0.40 0.36 0.32
1.15 1.40 1.67 1.77 1.83 1.93 2.11 2.35 2.41 2.16 1.99 1.93 1.93 1.94 1.92 1.75 1.68 1.64 1.59 1.57 1.58 1.53 1.38 1.30 1.29 1.26 1.23 1.19 1.15 1.04 0.96 0.80 0.72 0.55 0.41 0.38 0.37 0.36 0.40 0.43 0.42 0.41 0.41
1.04 1.23 1.49 1.73 1.80 1.97 2.10 2.22 2.42 2.21 1.92 1.91 1.95 1.90 1.91 1.85 1.68 1.63 1.60 1.53 1.47 1.46 1.46 1.42 1.37 1.35 1.25 1.15 1.09 1.04 0.98 0.84 0.71 0.67 0.52 0.39 0.37 0.34 0.34 0.38 0.42 0.44 0.45
0.92 1.04 1.22 1.43 1.53 1.63 1.78 1.96 2.15 2.21 2.08 1.94 1.85 1.80 1.76 1.76 1.73 1.66 1.62 1.53 1.42 1.36 1.33 1.33 1.34 1.33 1.30 1.22 1.12 1.06 1.02 0.94 0.80 0.76 0.71 0.55 0.48 0.40 0.37 0.37 0.40 0.43 0.46

GEFSSE_prec_meanprecacc_174.txt.gz
Total_Precipitation_Accumulation
0.04 0.10 0.29 0.34 0.37 0.35 0.32 0.29 0.27 0.25 0.26 0.28 0.30 0.31 0.32 0.31 0.30 0.26 0.26 0.25 0.26 0.30 0.37 0.43 0.43 0.39 0.35 0.32 0.29 0.22 0.17 0.13 0.13 0.12 0.11 0.13 0.14 0.14 0.13 0.14 0.16 0.19 0.24
0.03 0.10 0.28 0.34 0.39 0.36 0.36 0.33 0.30 0.26 0.27 0.33 0.38 0.38 0.34 0.31 0.30 0.27 0.24 0.23 0.25 0.29 0.38 0.43 0.37 0.29 0.21 0.16 0.13 0.12 0.11 0.08 0.07 0.03 0.02 0.03 0.06 0.09 0.10 0.09 0.11 0.15 0.17
0.03 0.11 0.28 0.37 0.39 0.36 0.36 0.32 0.29 0.27 0.30 0.38 0.45 0.43 0.36 0.29 0.27 0.27 0.23 0.23 0.25 0.29 0.32 0.34 0.27 0.21 0.16 0.14 0.10 0.07 0.05 0.04 0.03 0.02 0.02 0.03 0.05 0.07 0.08 0.08 0.10 0.12 0.15
0.07 0.13 0.26 0.40 0.41 0.38 0.37 0.36 0.34 0.34 0.34 0.38 0.43 0.44 0.40 0.35 0.34 0.31 0.27 0.23 0.23 0.24 0.23 0.25 0.21 0.16 0.12 0.10 0.08 0.06 0.04 0.04 0.02 0.02 0.04 0.05 0.05 0.08 0.10 0.11 0.13 0.15 0.17
0.14 0.19 0.32 0.42 0.46 0.42 0.40 0.36 0.37 0.39 0.39 0.42 0.44 0.44 0.38 0.36 0.37 0.34 0.30 0.24 0.21 0.21 0.20 0.20 0.17 0.13 0.09 0.07 0.07 0.05 0.05 0.04 0.02 0.02 0.03 0.05 0.06 0.11 0.15 0.15 0.18 0.19 0.18
0.22 0.31 0.45 0.50 0.51 0.50 0.46 0.41 0.39 0.40 0.45 0.47 0.48 0.46 0.39 0.39 0.41 0.37 0.31 0.21 0.18 0.18 0.19 0.19 0.17 0.14 0.10 0.07 0.06 0.05 0.05 0.05 0.02 0.02 0.03 0.05 0.07 0.15 0.18 0.18 0.21 0.22 0.23
0.31 0.44 0.59 0.65 0.64 0.59 0.55 0.55 0.51 0.49 0.52 0.56 0.56 0.53 0.46 0.44 0.44 0.38 0.31 0.21 0.18 0.17 0.19 0.18 0.17 0.15 0.13 0.11 0.08 0.07 0.06 0.04 0.02 0.02 0.03 0.04 0.08 0.17 0.18 0.21 0.24 0.25 0.27
0.59 0.68 0.80 0.83 0.79 0.69 0.60 0.58 0.56 0.57 0.60 0.61 0.59 0.59 0.55 0.49 0.47 0.42 0.33 0.24 0.21 0.21 0.23 0.20 0.18 0.16 0.14 0.13 0.11 0.08 0.06 0.03 0.02 0.02 0.03 0.04 0.09 0.19 0.19 0.19 0.21 0.23 0.27
1.07 1.11 1.07 1.00 0.91 0.84 0.70 0.61 0.58 0.57 0.61 0.63 0.63 0.63 0.57 0.55 0.52 0.45 0.36 0.29 0.26 0.27 0.27 0.23 0.19 0.17 0.16 0.14 0.12 0.09 0.06 0.04 0.02 0.02 0.02 0.04 0.09 0.21 0.23 0.23 0.26 0.27 0.27
1.50 1.53 1.44 1.28 1.13 1.02 0.85 0.69 0.62 0.59 0.59 0.60 0.60 0.56 0.48 0.47 0.47 0.42 0.31 0.29 0.29 0.29 0.27 0.22 0.19 0.19 0.16 0.14 0.13 0.10 0.07 0.05 0.03 0.03 0.04 0.06 0.15 0.27 0.30 0.30 0.32 0.31 0.28
1.84 1.81 1.80 1.61 1.39 1.23 1.01 0.73 0.67 0.64 0.62 0.58 0.57 0.48 0.46 0.47 0.45 0.37 0.26 0.21 0.23 0.26 0.26 0.24 0.21 0.20 0.17 0.14 0.13 0.12 0.09 0.06 0.04 0.03 0.05 0.10 0.19 0.27 0.28 0.28 0.28 0.26 0.25
2.01 1.98 1.96 1.86 1.67 1.50 1.24 0.93 0.81 0.70 0.67 0.59 0.51 0.49 0.44 0.45 0.48 0.40 0.33 0.26 0.23 0.24 0.24 0.26 0.24 0.23 0.20 0.16 0.14 0.12 0.11 0.09 0.08 0.07 0.06 0.08 0.15 0.23 0.25 0.24 0.23 0.23 0.22
2.20 2.18 2.13 2.10 1.92 1.70 1.39 1.05 0.88 0.76 0.73 0.66 0.55 0.50 0.50 0.51 0.51 0.53 0.51 0.42 0.36 0.27 0.28 0.28 0.29 0.23 0.20 0.19 0.18 0.14 0.12 0.12 0.11 0.09 0.07 0.07 0.12 0.23 0.29 0.29 0.25 0.25 0.25
2.36 2.26 2.22 2.20 2.07 1.87 1.56 1.24 0.98 0.81 0.75 0.73 0.65 0.59 0.62 0.58 0.53 0.51 0.50 0.46 0.45 0.36 0.33 0.31 0.26 0.23 0.20 0.19 0.20 0.20 0.19 0.18 0.16 0.15 0.13 0.09 0.10 0.17 0.25 0.30 0.33 0.34 0.33
2.32 2.31 2.29 2.16 2.04 1.93 1.77 1.48 1.13 0.90 0.80 0.80 0.79 0.72 0.70 0.66 0.60 0.60 0.54 0.49 0.43 0.40 0.38 0.34 0.29 0.27 0.25 0.23 0.22 0.22 0.22 0.20 0.19 0.20 0.18 0.13 0.10 0.12 0.19 0.27 0.36 0.43 0.45
2.06 2.23 2.28 2.18 2.00 1.84 1.76 1.67 1.40 1.07 0.89 0.87 0.86 0.82 0.77 0.75 0.70 0.66 0.62 0.59 0.50 0.45 0.41 0.41 0.37 0.37 0.33 0.32 0.26 0.24 0.23 0.22 0.19 0.18 0.18 0.17 0.15 0.13 0.14 0.23 0.34 0.45 0.56
1.81 2.02 2.19 2.28 2.15 1.90 1.74 1.69 1.60 1.40 1.11 0.92 0.87 0.89 0.85 0.78 0.73 0.71 0.69 0.62 0.56 0.54 0.54 0.55 0.53 0.51 0.44 0.40 0.35 0.33 0.32 0.30 0.26 0.23 0.21 0.19 0.20 0.19 0.18 0.21 0.30 0.42 0.58
1.67 1.84 2.00 2.06 2.14 2.01 1.81 1.72 1.65 1.54 1.38 1.18 0.99 0.90 0.88 0.85 0.84 0.82 0.80 0.75 0.71 0.70 0.68 0.66 0.63 0.61 0.52 0.46 0.43 0.42 0.40 0.38 0.35 0.33 0.31 0.28 0.26 0.22 0.21 0.23 0.29 0.39 0.52
1.54 1.72 1.96 1.90 1.92 2.02 2.05 1.94 1.76 1.63 1.47 1.34 1.19 1.00 0.94 0.97 0.97 0.93 0.85 0.85 0.88 0.84 0.79 0.77 0.70 0.64 0.56 0.52 0.52 0.49 0.45 0.43 0.39 0.38 0.39 0.39 0.38 0.35 0.31 0.31 0.28 0.28 0.35
1.53 1.64 1.87 1.87 1.90 2.03 2.21 2.18 2.05 1.82 1.59 1.47 1.30 1.13 1.02 1.01 1.06 1.01 0.93 0.93 0.95 0.90 0.79 0.77 0.74 0.71 0.63 0.63 0.62 0.55 0.51 0.48 0.45 0.42 0.41 0.42 0.42 0.41 0.39 0.37 0.34 0.32 0.32
1.64 1.64 1.75 1.86 1.92 1.96 2.02 1.95 1.85 1.78 1.69 1.61 1.49 1.38 1.23 1.16 1.19 1.19 1.10 1.05 1.06 0.99 0.90 0.91 0.95 0.89 0.80 0.81 0.76 0.59 0.50 0.48 0.46 0.44 0.42 0.41 0.38 0.37 0.35 0.34 0.34 0.33 0.33
1.60 1.64 1.77 1.86 1.88 1.84 1.89 1.99 1.94 1.99 1.95 1.91 1.85 1.70 1.54 1.41 1.38 1.36 1.34 1.32 1.26 1.18 1.10 1.06 1.07 1.02 0.95 0.97 0.94 0.86 0.63 0.49 0.42 0.40 0.41 0.40 0.40 0.39 0.36 0.35 0.35 0.34 0.32
1.46 1.69 1.79 1.84 1.85 1.83 2.03 2.39 2.33 2.23 2.14 2.07 2.00 1.92 1.78 1.67 1.61 1.50 1.45 1.50 1.46 1.35 1.25 1.20 1.17 1.15 1.15 1.14 1.09 1.11 0.87 0.61 0.48 0.42 0.39 0.36 0.39 0.44 0.45 0.44 0.40 0.36 0.32
1.26 1.54 1.82 1.91 1.96 2.03 2.19 2.41 2.45 2.20 2.02 1.95 1.97 1.98 1.95 1.77 1.70 1.66 1.61 1.58 1.59 1.55 1.40 1.35 1.34 1.29 1.26 1.22 1.18 1.06 0.97 0.81 0.73 0.56 0.43 0.39 0.38 0.38 0.42 0.44 0.43 0.41 0.41
1.12 1.33 1.59 1.84 1.92 2.08 2.19 2.28 2.44 2.24 1.95 1.94 1.97 1.94 1.94 1.87 1.70 1.64 1.62 1.55 1.49 1.48 1.48 1.45 1.41 1.38 1.28 1.18 1.12 1.06 1.00 0.86 0.73 0.69 0.53 0.41 0.40 0.36 0.36 0.40 0.43 0.44 0.45
0.97 1.11 1.28 1.49 1.61 1.71 1.86 2.03 2.20 2.23 2.11 1.96 1.87 1.82 1.79 1.79 1.75 1.68 1.64 1.55 1.44 1.37 1.34 1.35 1.37 1.37 1.34 1.26 1.18 1.13 1.07 0.99 0.85 0.81 0.75 0.58 0.50 0.43 0.40 0.41 0.43 0.45 0.47

GEFSSE_prec_meanprecacc_180.txt.gz
Total_Precipitation_Accumulation
0.04 0.10 0.30 0.35 0.38 0.37 0.35 0.32 0.30 0.28 0.29 0.31 0.32 0.33 0.34 0.33 0.33 0.28 0.28 0.26 0.27 0.32 0.39 0.48 0.46 0.41 0.37 0.34 0.30 0.23 0.18 0.14 0.14 0.13 0.11 0.14 0.16 0.16 0.14 0.14 0.17 0.20 0.25
0.03 0.11 0.29 0.35 0.41 0.38 0.39 0.37 0.33 0.29 0.30 0.35 0.40 0.40 0.35 0.33 0.32 0.28 0.26 0.25 0.26 0.31 0.40 0.46 0.40 0.32 0.23 0.17 0.15 0.13 0.12 0.09 0.07 0.04 0.02 0.04 0.07 0.10 0.10 0.10 0.12 0.15 0.17
0.03 0.11 0.29 0.38 0.42 0.41 0.40 0.37 0.33 0.29 0.33 0.41 0.48 0.45 0.38 0.30 0.28 0.28 0.25 0.24 0.26 0.32 0.36 0.37 0.29 0.23 0.17 0.16 0.12 0.08 0.06 0.05 0.04 0.02 0.02 0.04 0.06 0.08 0.09 0.09 0.11 0.13 0.16
0.07 0.13 0.26 0.42 0.46 0.44 0.42 0.42 0.39 0.38 0.38 0.41 0.47 0.47 0.42 0.36 0.36 0.32 0.28 0.24 0.25 0.26 0.25 0.28 0.23 0.17 0.13 0.11 0.09 0.07 0.05 0.04 0.03 0.02 0.05 0.06 0.06 0.09 0.11 0.12 0.14 0.16 0.19
0.15 0.19 0.33 0.46 0.52 0.48 0.45 0.43 0.44 0.45 0.44 0.45 0.48 0.46 0.41 0.39 0.39 0.37 0.32 0.25 0.23 0.23 0.22 0.22 0.19 0.13 0.09 0.08 0.07 0.07 0.06 0.05 0.02 0.02 0.05 0.06 0.08 0.13 0.18 0.17 0.19 0.21 0.20
0.23 0.32 0.47 0.54 0.56 0.57 0.53 0.49 0.47 0.48 0.51 0.52 0.52 0.49 0.42 0.41 0.43 0.40 0.34 0.24 0.20 0.20 0.21 0.20 0.19 0.14 0.10 0.08 0.06 0.06 0.05 0.05 0.02 0.02 0.03 0.06 0.08 0.17 0.21 0.21 0.23 0.23 0.24
0.33 0.46 0.62 0.70 0.71 0.69 0.66 0.65 0.60 0.58 0.60 0.61 0.60 0.56 0.49 0.46 0.46 0.42 0.34 0.23 0.19 0.19 0.20 0.19 0.18 0.15 0.13 0.11 0.09 0.07 0.06 0.04 0.02 0.02 0.03 0.05 0.09 0.19 0.20 0.22 0.25 0.27 0.29
0.60 0.72 0.85 0.88 0.86 0.80 0.73 0.70 0.65 0.64 0.66 0.66 0.63 0.62 0.58 0.52 0.50 0.45 0.34 0.25 0.23 0.22 0.24 0.22 0.20 0.17 0.15 0.13 0.11 0.09 0.06 0.03 0.02 0.02 0.03 0.04 0.10 0.20 0.20 0.19 0.21 0.25 0.28
1.10 1.15 1.12 1.06 0.98 0.94 0.81 0.71 0.67 0.64 0.66 0.68 0.67 0.65 0.60 0.57 0.55 0.48 0.38 0.30 0.28 0.29 0.28 0.24 0.20 0.18 0.16 0.14 0.12 0.09 0.06 0.04 0.03 0.03 0.03 0.05 0.11 0.23 0.25 0.24 0.27 0.28 0.29
1.54 1.59 1.51 1.37 1.22 1.11 0.97 0.79 0.70 0.67 0.65 0.65 0.64 0.59 0.50 0.48 0.50 0.44 0.33 0.30 0.31 0.31 0.28 0.24 0.21 0.21 0.17 0.15 0.13 0.10 0.07 0.05 0.03 0.03 0.04 0.08 0.17 0.30 0.32 0.32 0.34 0.33 0.30
1.88 1.89 1.89 1.73 1.52 1.36 1.14 0.85 0.75 0.72 0.69 0.64 0.60 0.50 0.48 0.49 0.48 0.38 0.27 0.21 0.24 0.27 0.27 0.26 0.22 0.21 0.19 0.15 0.14 0.12 0.09 0.06 0.04 0.04 0.06 0.11 0.21 0.29 0.30 0.30 0.30 0.28 0.26
2.06 2.05 2.05 1.98 1.83 1.68 1.40 1.09 0.92 0.78 0.73 0.64 0.53 0.51 0.46 0.47 0.51 0.42 0.35 0.27 0.24 0.25 0.25 0.27 0.25 0.25 0.22 0.17 0.14 0.12 0.11 0.09 0.09 0.07 0.07 0.09 0.16 0.26 0.29 0.27 0.25 0.24 0.23
2.25 2.26 2.22 2.23 2.08 1.88 1.58 1.27 1.03 0.88 0.81 0.73 0.60 0.55 0.54 0.56 0.55 0.56 0.53 0.44 0.37 0.28 0.28 0.29 0.30 0.24 0.22 0.20 0.19 0.14 0.13 0.13 0.12 0.09 0.07 0.07 0.13 0.26 0.33 0.31 0.27 0.26 0.26
2.42 2.33 2.30 2.31 2.23 2.04 1.72 1.44 1.13 0.93 0.88 0.85 0.74 0.65 0.67 0.65 0.60 0.55 0.53 0.49 0.48 0.37 0.35 0.33 0.29 0.24 0.22 0.20 0.20 0.20 0.19 0.18 0.17 0.16 0.13 0.10 0.11 0.20 0.29 0.33 0.35 0.36 0.35
2.38 2.38 2.37 2.25 2.17 2.11 1.96 1.65 1.26 1.01 0.87 0.88 0.88 0.80 0.75 0.72 0.67 0.65 0.58 0.53 0.46 0.42 0.40 0.36 0.32 0.30 0.27 0.24 0.22 0.22 0.22 0.21 0.19 0.20 0.18 0.13 0.11 0.13 0.21 0.29 0.38 0.45 0.48
2.11 2.28 2.35 2.27 2.12 2.01 1.97 1.87 1.54 1.16 0.95 0.91 0.94 0.93 0.86 0.81 0.77 0.71 0.67 0.64 0.56 0.49 0.43 0.43 0.40 0.41 0.38 0.35 0.28 0.24 0.24 0.22 0.20 0.19 0.18 0.18 0.16 0.14 0.15 0.24 0.35 0.46 0.58
1.86 2.07 2.24 2.35 2.26 2.06 1.94 1.90 1.79 1.50 1.18 0.94 0.90 0.96 0.96 0.88 0.83 0.78 0.74 0.67 0.61 0.58 0.57 0.58 0.56 0.55 0.49 0.44 0.39 0.35 0.32 0.30 0.27 0.23 0.21 0.19 0.20 0.20 0.19 0.22 0.31 0.43 0.59
1.74 1.92 2.07 2.13 2.25 2.14 1.97 1.89 1.83 1.67 1.46 1.21 1.01 0.92 0.92 0.90 0.90 0.90 0.87 0.82 0.76 0.74 0.72 0.68 0.65 0.63 0.55 0.50 0.47 0.45 0.42 0.39 0.35 0.33 0.32 0.28 0.26 0.23 0.22 0.23 0.29 0.39 0.52
1.62 1.83 2.07 1.99 2.05 2.17 2.19 2.08 1.91 1.76 1.55 1.38 1.21 1.01 0.95 0.99 1.01 0.98 0.90 0.91 0.93 0.87 0.81 0.79 0.73 0.67 0.59 0.55 0.56 0.52 0.48 0.44 0.40 0.40 0.40 0.39 0.38 0.35 0.32 0.31 0.29 0.28 0.35
1.60 1.77 2.02 2.00 2.05 2.21 2.36 2.32 2.19 1.95 1.69 1.52 1.32 1.13 1.02 1.01 1.08 1.05 0.97 0.96 0.97 0.91 0.80 0.78 0.76 0.74 0.66 0.66 0.64 0.58 0.54 0.50 0.46 0.43 0.42 0.42 0.42 0.42 0.40 0.38 0.35 0.33 0.32
1.72 1.76 1.91 2.02 2.09 2.16 2.20 2.11 1.98 1.89 1.78 1.67 1.52 1.38 1.24 1.16 1.20 1.22 1.13 1.08 1.08 1.01 0.91 0.91 0.96 0.90 0.82 0.84 0.79 0.62 0.52 0.50 0.48 0.45 0.43 0.42 0.39 0.37 0.35 0.35 0.35 0.34 0.34
1.67 1.72 1.90 2.04 2.08 2.05 2.10 2.17 2.07 2.07 2.03 1.96 1.88 1.72 1.55 1.41 1.39 1.38 1.37 1.36 1.30 1.20 1.11 1.06 1.07 1.03 0.96 0.99 0.98 0.90 0.67 0.52 0.45 0.42 0.42 0.40 0.41 0.40 0.37 0.36 0.36 0.35 0.33
1.52 1.75 1.87 1.96 2.04 2.07 2.26 2.59 2.47 2.31 2.22 2.12 2.03 1.94 1.80 1.68 1.61 1.51 1.47 1.53 1.50 1.39 1.27 1.21 1.18 1.16 1.16 1.16 1.11 1.14 0.91 0.64 0.51 0.45 0.41 0.37 0.39 0.44 0.45 0.44 0.41 0.37 0.33
1.31 1.59 1.87 2.00 2.09 2.23 2.43 2.62 2.58 2.28 2.08 2.01 2.01 2.01 1.97 1.79 1.71 1.67 1.62 1.60 1.62 1.57 1.42 1.36 1.35 1.30 1.27 1.24 1.20 1.08 0.99 0.84 0.75 0.59 0.44 0.41 0.39 0.38 0.42 0.44 0.44 0.42 0.42
1.15 1.36 1.64 1.91 2.02 2.22 2.37 2.44 2.55 2.32 2.02 1.99 2.01 1.97 1.97 1.89 1.71 1.65 1.63 1.56 1.50 1.49 1.49 1.46 1.42 1.38 1.28 1.19 1.13 1.08 1.02 0.88 0.75 0.70 0.55 0.42 0.41 0.37 0.37 0.41 0.44 0.46 0.47
1.00 1.14 1.33 1.55 1.68 1.79 1.98 2.15 2.29 2.31 2.19 2.03 1.91 1.85 1.81 1.81 1.76 1.70 1.65 1.56 1.45 1.38 1.35 1.36 1.38 1.37 1.34 1.27 1.19 1.13 1.09 1.00 0.86 0.82 0.76 0.59 0.51 0.44 0.41 0.42 0.44 0.46 0.48

GEFSSE_prec_meanprecacc_186.txt.gz
Total_Precipitation_Accumulation
0.04 0.11 0.31 0.38 0.43 0.42 0.39 0.36 0.34 0.31 0.31 0.33 0.34 0.34 0.35 0.34 0.35 0.29 0.29 0.27 0.28 0.33 0.40 0.49 0.48 0.42 0.38 0.35 0.31 0.24 0.19 0.15 0.14 0.13 0.12 0.15 0.17 0.17 0.15 0.15 0.17 0.21 0.26
0.03 0.11 0.30 0.37 0.46 0.44 0.44 0.42 0.37 0.33 0.34 0.38 0.43 0.42 0.38 0.34 0.33 0.30 0.27 0.27 0.28 0.32 0.41 0.48 0.42 0.33 0.24 0.18 0.15 0.14 0.12 0.10 0.07 0.04 0.03 0.04 0.07 0.10 0.11 0.10 0.12 0.16 0.18
0.04 0.12 0.29 0.40 0.46 0.46 0.46 0.41 0.38 0.34 0.38 0.46 0.52 0.49 0.41 0.31 0.29 0.29 0.26 0.26 0.29 0.35 0.38 0.39 0.32 0.25 0.18 0.16 0.12 0.08 0.07 0.06 0.04 0.02 0.02 0.04 0.07 0.09 0.09 0.10 0.12 0.14 0.17
0.08 0.14 0.27 0.44 0.49 0.48 0.47 0.46 0.44 0.43 0.43 0.47 0.54 0.51 0.44 0.38 0.37 0.33 0.29 0.26 0.27 0.29 0.28 0.30 0.25 0.19 0.14 0.11 0.10 0.08 0.06 0.05 0.03 0.02 0.05 0.06 0.07 0.11 0.13 0.13 0.15 0.17 0.20
0.16 0.20 0.34 0.48 0.54 0.51 0.50 0.47 0.50 0.51 0.51 0.53 0.56 0.52 0.44 0.41 0.42 0.39 0.33 0.26 0.25 0.25 0.25 0.25 0.20 0.15 0.10 0.08 0.08 0.07 0.07 0.06 0.03 0.03 0.06 0.07 0.09 0.15 0.19 0.18 0.20 0.22 0.21
0.23 0.35 0.50 0.58 0.61 0.61 0.57 0.53 0.53 0.55 0.61 0.62 0.63 0.58 0.47 0.44 0.46 0.43 0.37 0.25 0.21 0.22 0.23 0.22 0.20 0.15 0.11 0.08 0.07 0.06 0.06 0.05 0.03 0.02 0.04 0.06 0.09 0.18 0.22 0.22 0.24 0.24 0.25
0.34 0.50 0.68 0.75 0.76 0.74 0.70 0.69 0.65 0.65 0.67 0.69 0.69 0.65 0.55 0.50 0.49 0.45 0.36 0.24 0.21 0.21 0.23 0.21 0.19 0.16 0.13 0.11 0.09 0.07 0.07 0.05 0.02 0.02 0.03 0.05 0.10 0.20 0.21 0.23 0.26 0.28 0.31
0.62 0.76 0.92 0.98 0.94 0.87 0.78 0.74 0.70 0.70 0.71 0.72 0.69 0.68 0.64 0.56 0.53 0.49 0.37 0.27 0.24 0.24 0.27 0.23 0.21 0.18 0.15 0.13 0.11 0.09 0.06 0.04 0.03 0.02 0.04 0.05 0.11 0.22 0.21 0.20 0.23 0.26 0.30
1.12 1.20 1.20 1.16 1.08 1.03 0.89 0.77 0.71 0.69 0.72 0.74 0.72 0.71 0.68 0.63 0.60 0.52 0.42 0.32 0.30 0.30 0.29 0.25 0.22 0.19 0.17 0.15 0.13 0.09 0.06 0.04 0.03 0.03 0.03 0.05 0.12 0.25 0.27 0.26 0.29 0.29 0.30
1.56 1.63 1.60 1.46 1.31 1.21 1.05 0.86 0.75 0.72 0.71 0.71 0.69 0.63 0.56 0.54 0.54 0.48 0.37 0.33 0.33 0.32 0.29 0.25 0.23 0.23 0.18 0.15 0.14 0.10 0.07 0.05 0.04 0.03 0.05 0.08 0.18 0.32 0.35 0.35 0.36 0.35 0.31
1.90 1.92 1.96 1.84 1.60 1.45 1.23 0.92 0.82 0.78 0.75 0.71 0.67 0.55 0.52 0.54 0.52 0.42 0.30 0.25 0.27 0.29 0.28 0.26 0.24 0.23 0.20 0.16 0.14 0.12 0.10 0.06 0.04 0.04 0.06 0.12 0.23 0.31 0.33 0.34 0.33 0.29 0.27
2.08 2.09 2.11 2.09 1.94 1.77 1.48 1.19 1.02 0.87 0.81 0.70 0.59 0.56 0.50 0.51 0.55 0.45 0.38 0.29 0.26 0.26 0.26 0.28 0.27 0.26 0.23 0.18 0.15 0.12 0.12 0.10 0.09 0.07 0.07 0.10 0.18 0.29 0.33 0.31 0.28 0.26 0.25
2.27 2.29 2.28 2.33 2.21 1.98 1.68 1.38 1.16 0.99 0.90 0.80 0.66 0.59 0.58 0.60 0.59 0.59 0.56 0.47 0.39 0.30 0.30 0.30 0.31 0.25 0.22 0.21 0.20 0.15 0.13 0.13 0.12 0.09 0.08 0.08 0.15 0.31 0.38 0.35 0.30 0.28 0.28
2.45 2.36 2.37 2.41 2.36 2.15 1.85 1.58 1.27 1.07 0.98 0.93 0.80 0.71 0.72 0.69 0.66 0.62 0.58 0.53 0.51 0.40 0.37 0.34 0.30 0.25 0.22 0.21 0.21 0.21 0.20 0.18 0.17 0.16 0.13 0.10 0.13 0.24 0.32 0.35 0.37 0.38 0.37
2.41 2.41 2.44 2.37 2.30 2.23 2.08 1.79 1.38 1.13 1.01 0.96 0.96 0.87 0.80 0.77 0.72 0.73 0.66 0.60 0.51 0.46 0.42 0.38 0.33 0.31 0.28 0.25 0.23 0.23 0.23 0.21 0.19 0.20 0.18 0.13 0.11 0.15 0.23 0.31 0.41 0.47 0.50
2.14 2.33 2.40 2.36 2.25 2.15 2.11 2.02 1.68 1.27 1.09 1.04 1.01 1.02 0.94 0.87 0.81 0.77 0.71 0.68 0.60 0.53 0.47 0.45 0.41 0.42 0.39 0.36 0.30 0.26 0.25 0.23 0.20 0.19 0.18 0.18 0.16 0.15 0.17 0.26 0.37 0.48 0.59
1.90 2.12 2.30 2.43 2.38 2.22 2.11 2.07 1.99 1.67 1.31 1.09 1.01 1.02 1.06 0.99 0.93 0.86 0.81 0.72 0.65 0.62 0.60 0.61 0.58 0.57 0.51 0.46 0.40 0.37 0.35 0.32 0.27 0.24 0.21 0.19 0.20 0.20 0.19 0.23 0.32 0.44 0.60
1.77 1.95 2.12 2.23 2.41 2.33 2.15 2.03 1.99 1.87 1.62 1.37 1.13 0.99 0.99 0.99 1.00 1.00 0.96 0.90 0.82 0.79 0.76 0.72 0.68 0.66 0.57 0.53 0.48 0.46 0.44 0.41 0.37 0.34 0.32 0.29 0.26 0.23 0.22 0.24 0.30 0.39 0.53
1.63 1.85 2.11 2.07 2.19 2.38 2.45 2.27 2.06 1.93 1.75 1.56 1.34 1.09 1.00 1.04 1.08 1.06 0.97 0.97 0.99 0.94 0.86 0.83 0.75 0.69 0.61 0.58 0.58 0.53 0.50 0.48 0.45 0.42 0.41 0.40 0.38 0.35 0.32 0.31 0.29 0.28 0.36
1.63 1.79 2.05 2.06 2.15 2.35 2.59 2.57 2.40 2.14 1.86 1.70 1.46 1.24 1.09 1.06 1.13 1.09 1.02 1.00 1.01 0.96 0.85 0.82 0.79 0.76 0.68 0.67 0.66 0.58 0.54 0.52 0.51 0.48 0.45 0.44 0.43 0.42 0.40 0.38 0.35 0.33 0.32
1.76 1.78 1.93 2.05 2.16 2.26 2.37 2.33 2.19 2.10 1.97 1.83 1.65 1.49 1.31 1.21 1.24 1.24 1.16 1.11 1.11 1.04 0.95 0.95 0.98 0.92 0.84 0.85 0.79 0.62 0.53 0.51 0.49 0.48 0.47 0.44 0.41 0.39 0.36 0.36 0.35 0.34 0.34
1.70 1.75 1.91 2.06 2.12 2.11 2.21 2.35 2.24 2.26 2.22 2.12 1.99 1.81 1.62 1.45 1.41 1.39 1.38 1.37 1.31 1.22 1.14 1.10 1.09 1.04 0.97 1.00 0.99 0.91 0.68 0.53 0.46 0.44 0.45 0.43 0.43 0.42 0.38 0.37 0.36 0.35 0.33
1.56 1.78 1.89 1.98 2.08 2.11 2.31 2.71 2.64 2.50 2.40 2.28 2.14 2.02 1.86 1.72 1.63 1.52 1.48 1.54 1.51 1.40 1.29 1.24 1.21 1.18 1.16 1.16 1.12 1.15 0.92 0.65 0.52 0.47 0.45 0.41 0.42 0.45 0.46 0.45 0.41 0.37 0.33
1.35 1.63 1.90 2.02 2.13 2.27 2.47 2.68 2.73 2.46 2.26 2.18 2.11 2.08 2.02 1.83 1.73 1.68 1.63 1.60 1.62 1.59 1.45 1.40 1.38 1.32 1.28 1.24 1.20 1.08 1.00 0.84 0.76 0.60 0.47 0.46 0.44 0.42 0.43 0.45 0.44 0.43 0.43
1.20 1.41 1.67 1.93 2.05 2.26 2.42 2.50 2.65 2.46 2.18 2.14 2.11 2.04 2.03 1.93 1.74 1.68 1.64 1.57 1.50 1.50 1.51 1.50 1.46 1.42 1.30 1.20 1.14 1.08 1.02 0.88 0.75 0.71 0.56 0.45 0.46 0.43 0.40 0.42 0.45 0.46 0.47
1.03 1.18 1.35 1.57 1.71 1.83 2.02 2.20 2.36 2.38 2.29 2.15 2.00 1.91 1.86 1.84 1.78 1.72 1.67 1.58 1.46 1.39 1.36 1.39 1.42 1.41 1.38 1.29 1.19 1.14 1.09 1.01 0.86 0.82 0.77 0.60 0.54 0.49 0.47 0.46 0.46 0.47 0.48